<?xml version="1.0" encoding="UTF-8" standalone="no" ?>
<gpx xmlns="http://www.topografix.com/GPX/1/1" xmlns:xsi="http://www.w3.org/2001/XMLSchema-instance" xsi:schemaLocation="http://www.topografix.com/GPX/1/1 http://www.topografix.com/GPX/1/1/gpx.xsd" version="1.1" creator="VisuGPX - https://www.visugpx.com">
  <metadata>
    <name>Sortie VTT du 14 05 2019 </name>
    <desc><![CDATA[Sortie VTT du mardi avec passage au mémorial de la ferme de Richmond]]></desc>
  </metadata>
  <trk>
    <name><![CDATA[20190514214921-87vKW]]></name>
    <trkseg>
      <trkpt lat="44.73449" lon="-0.67557">
        <ele>51</ele>
        <time>2019-05-14T12:04:25Z</time>
      </trkpt>
      <trkpt lat="44.73406" lon="-0.67551">
        <ele>53</ele>
        <time>2019-05-14T12:06:17Z</time>
      </trkpt>
      <trkpt lat="44.73404" lon="-0.67473">
        <ele>54</ele>
        <time>2019-05-14T12:06:47Z</time>
      </trkpt>
      <trkpt lat="44.734" lon="-0.67437">
        <ele>54</ele>
        <time>2019-05-14T12:06:51Z</time>
      </trkpt>
      <trkpt lat="44.73398" lon="-0.6742">
        <ele>54</ele>
        <time>2019-05-14T12:06:56Z</time>
      </trkpt>
      <trkpt lat="44.73403" lon="-0.67406">
        <ele>50</ele>
        <time>2019-05-14T12:07:26Z</time>
      </trkpt>
      <trkpt lat="44.73452" lon="-0.67279">
        <ele>50</ele>
        <time>2019-05-14T12:07:27Z</time>
      </trkpt>
      <trkpt lat="44.73458" lon="-0.67262">
        <ele>50</ele>
        <time>2019-05-14T12:07:30Z</time>
      </trkpt>
      <trkpt lat="44.73462" lon="-0.67238">
        <ele>50</ele>
        <time>2019-05-14T12:07:32Z</time>
      </trkpt>
      <trkpt lat="44.7351" lon="-0.67115">
        <ele>51</ele>
        <time>2019-05-14T12:07:48Z</time>
      </trkpt>
      <trkpt lat="44.7351" lon="-0.67111">
        <ele>51</ele>
        <time>2019-05-14T12:08:17Z</time>
      </trkpt>
      <trkpt lat="44.73505" lon="-0.671">
        <ele>52</ele>
        <time>2019-05-14T12:08:18Z</time>
      </trkpt>
      <trkpt lat="44.73504" lon="-0.67092">
        <ele>52</ele>
        <time>2019-05-14T12:08:21Z</time>
      </trkpt>
      <trkpt lat="44.73464" lon="-0.67018">
        <ele>52</ele>
        <time>2019-05-14T12:08:22Z</time>
      </trkpt>
      <trkpt lat="44.73397" lon="-0.66903">
        <ele>52</ele>
        <time>2019-05-14T12:08:24Z</time>
      </trkpt>
      <trkpt lat="44.73394" lon="-0.66901">
        <ele>52</ele>
        <time>2019-05-14T12:08:25Z</time>
      </trkpt>
      <trkpt lat="44.73385" lon="-0.66899">
        <ele>52</ele>
        <time>2019-05-14T12:08:27Z</time>
      </trkpt>
      <trkpt lat="44.73382" lon="-0.66898">
        <ele>52</ele>
        <time>2019-05-14T12:08:28Z</time>
      </trkpt>
      <trkpt lat="44.73376" lon="-0.66894">
        <ele>52</ele>
        <time>2019-05-14T12:08:29Z</time>
      </trkpt>
      <trkpt lat="44.73374" lon="-0.6689">
        <ele>52</ele>
        <time>2019-05-14T12:08:33Z</time>
      </trkpt>
      <trkpt lat="44.73371" lon="-0.66882">
        <ele>53</ele>
        <time>2019-05-14T12:08:34Z</time>
      </trkpt>
      <trkpt lat="44.7337" lon="-0.66877">
        <ele>53</ele>
        <time>2019-05-14T12:08:36Z</time>
      </trkpt>
      <trkpt lat="44.7337" lon="-0.66873">
        <ele>53</ele>
        <time>2019-05-14T12:09:06Z</time>
      </trkpt>
      <trkpt lat="44.73374" lon="-0.66853">
        <ele>53</ele>
        <time>2019-05-14T12:09:28Z</time>
      </trkpt>
      <trkpt lat="44.73373" lon="-0.66848">
        <ele>53</ele>
        <time>2019-05-14T12:09:31Z</time>
      </trkpt>
      <trkpt lat="44.73369" lon="-0.66838">
        <ele>54</ele>
        <time>2019-05-14T12:09:34Z</time>
      </trkpt>
      <trkpt lat="44.73291" lon="-0.66702">
        <ele>53</ele>
        <time>2019-05-14T12:09:37Z</time>
      </trkpt>
      <trkpt lat="44.7324" lon="-0.66613">
        <ele>54</ele>
        <time>2019-05-14T12:09:38Z</time>
      </trkpt>
      <trkpt lat="44.73232" lon="-0.66605">
        <ele>54</ele>
        <time>2019-05-14T12:09:41Z</time>
      </trkpt>
      <trkpt lat="44.73225" lon="-0.66602">
        <ele>54</ele>
        <time>2019-05-14T12:09:42Z</time>
      </trkpt>
      <trkpt lat="44.73216" lon="-0.66601">
        <ele>55</ele>
        <time>2019-05-14T12:09:43Z</time>
      </trkpt>
      <trkpt lat="44.73213" lon="-0.66598">
        <ele>55</ele>
        <time>2019-05-14T12:09:48Z</time>
      </trkpt>
      <trkpt lat="44.73206" lon="-0.66587">
        <ele>54</ele>
        <time>2019-05-14T12:09:51Z</time>
      </trkpt>
      <trkpt lat="44.73204" lon="-0.66582">
        <ele>54</ele>
        <time>2019-05-14T12:09:55Z</time>
      </trkpt>
      <trkpt lat="44.73203" lon="-0.66578">
        <ele>54</ele>
        <time>2019-05-14T12:10:25Z</time>
      </trkpt>
      <trkpt lat="44.73207" lon="-0.66553">
        <ele>54</ele>
        <time>2019-05-14T12:10:54Z</time>
      </trkpt>
      <trkpt lat="44.7321" lon="-0.66537">
        <ele>54</ele>
        <time>2019-05-14T12:10:57Z</time>
      </trkpt>
      <trkpt lat="44.73209" lon="-0.66514">
        <ele>53</ele>
        <time>2019-05-14T12:10:59Z</time>
      </trkpt>
      <trkpt lat="44.73191" lon="-0.66342">
        <ele>53</ele>
        <time>2019-05-14T12:11:17Z</time>
      </trkpt>
      <trkpt lat="44.73175" lon="-0.66177">
        <ele>53</ele>
        <time>2019-05-14T12:11:19Z</time>
      </trkpt>
      <trkpt lat="44.73179" lon="-0.66159">
        <ele>53</ele>
        <time>2019-05-14T12:11:22Z</time>
      </trkpt>
      <trkpt lat="44.7317" lon="-0.66148">
        <ele>53</ele>
        <time>2019-05-14T12:11:24Z</time>
      </trkpt>
      <trkpt lat="44.73162" lon="-0.66041">
        <ele>53</ele>
        <time>2019-05-14T12:11:44Z</time>
      </trkpt>
      <trkpt lat="44.73157" lon="-0.66026">
        <ele>58</ele>
        <time>2019-05-14T12:11:46Z</time>
      </trkpt>
      <trkpt lat="44.73151" lon="-0.66">
        <ele>53</ele>
        <time>2019-05-14T12:11:47Z</time>
      </trkpt>
      <trkpt lat="44.73157" lon="-0.65997">
        <ele>52</ele>
        <time>2019-05-14T12:11:49Z</time>
      </trkpt>
      <trkpt lat="44.73148" lon="-0.65884">
        <ele>55</ele>
        <time>2019-05-14T12:11:52Z</time>
      </trkpt>
      <trkpt lat="44.73148" lon="-0.65872">
        <ele>58</ele>
        <time>2019-05-14T12:11:55Z</time>
      </trkpt>
      <trkpt lat="44.73146" lon="-0.65868">
        <ele>59</ele>
        <time>2019-05-14T12:11:57Z</time>
      </trkpt>
      <trkpt lat="44.73145" lon="-0.65858">
        <ele>61</ele>
        <time>2019-05-14T12:11:59Z</time>
      </trkpt>
      <trkpt lat="44.73142" lon="-0.65832">
        <ele>40</ele>
        <time>2019-05-14T12:12:01Z</time>
      </trkpt>
      <trkpt lat="44.73126" lon="-0.65817">
        <ele>39</ele>
        <time>2019-05-14T12:12:06Z</time>
      </trkpt>
      <trkpt lat="44.73121" lon="-0.658">
        <ele>37</ele>
        <time>2019-05-14T12:12:09Z</time>
      </trkpt>
      <trkpt lat="44.73118" lon="-0.65788">
        <ele>33</ele>
        <time>2019-05-14T12:12:12Z</time>
      </trkpt>
      <trkpt lat="44.73109" lon="-0.6578">
        <ele>28</ele>
        <time>2019-05-14T12:12:14Z</time>
      </trkpt>
      <trkpt lat="44.731" lon="-0.6578">
        <ele>22</ele>
        <time>2019-05-14T12:12:17Z</time>
      </trkpt>
      <trkpt lat="44.73086" lon="-0.65769">
        <ele>23</ele>
        <time>2019-05-14T12:12:18Z</time>
      </trkpt>
      <trkpt lat="44.73073" lon="-0.65759">
        <ele>30</ele>
        <time>2019-05-14T12:12:22Z</time>
      </trkpt>
      <trkpt lat="44.73063" lon="-0.65749">
        <ele>33</ele>
        <time>2019-05-14T12:12:26Z</time>
      </trkpt>
      <trkpt lat="44.73038" lon="-0.65742">
        <ele>48</ele>
        <time>2019-05-14T12:12:29Z</time>
      </trkpt>
      <trkpt lat="44.73032" lon="-0.65736">
        <ele>50</ele>
        <time>2019-05-14T12:12:32Z</time>
      </trkpt>
      <trkpt lat="44.73017" lon="-0.65725">
        <ele>54</ele>
        <time>2019-05-14T12:12:33Z</time>
      </trkpt>
      <trkpt lat="44.73007" lon="-0.65728">
        <ele>55</ele>
        <time>2019-05-14T12:12:37Z</time>
      </trkpt>
      <trkpt lat="44.73" lon="-0.65738">
        <ele>54</ele>
        <time>2019-05-14T12:12:42Z</time>
      </trkpt>
      <trkpt lat="44.72988" lon="-0.6575">
        <ele>51</ele>
        <time>2019-05-14T12:12:47Z</time>
      </trkpt>
      <trkpt lat="44.72983" lon="-0.6575">
        <ele>52</ele>
        <time>2019-05-14T12:12:51Z</time>
      </trkpt>
      <trkpt lat="44.72969" lon="-0.65766">
        <ele>53</ele>
        <time>2019-05-14T12:12:52Z</time>
      </trkpt>
      <trkpt lat="44.72953" lon="-0.65769">
        <ele>50</ele>
        <time>2019-05-14T12:12:53Z</time>
      </trkpt>
      <trkpt lat="44.7293" lon="-0.65789">
        <ele>49</ele>
        <time>2019-05-14T12:12:56Z</time>
      </trkpt>
      <trkpt lat="44.72926" lon="-0.65798">
        <ele>49</ele>
        <time>2019-05-14T12:13:03Z</time>
      </trkpt>
      <trkpt lat="44.72922" lon="-0.65805">
        <ele>48</ele>
        <time>2019-05-14T12:13:13Z</time>
      </trkpt>
      <trkpt lat="44.72921" lon="-0.65815">
        <ele>49</ele>
        <time>2019-05-14T12:13:15Z</time>
      </trkpt>
      <trkpt lat="44.72912" lon="-0.65832">
        <ele>49</ele>
        <time>2019-05-14T12:13:16Z</time>
      </trkpt>
      <trkpt lat="44.72888" lon="-0.65853">
        <ele>47</ele>
        <time>2019-05-14T12:13:18Z</time>
      </trkpt>
      <trkpt lat="44.72848" lon="-0.65881">
        <ele>47</ele>
        <time>2019-05-14T12:13:22Z</time>
      </trkpt>
      <trkpt lat="44.72847" lon="-0.65891">
        <ele>47</ele>
        <time>2019-05-14T12:13:24Z</time>
      </trkpt>
      <trkpt lat="44.72843" lon="-0.65897">
        <ele>47</ele>
        <time>2019-05-14T12:13:26Z</time>
      </trkpt>
      <trkpt lat="44.72835" lon="-0.65897">
        <ele>46</ele>
        <time>2019-05-14T12:13:36Z</time>
      </trkpt>
      <trkpt lat="44.72835" lon="-0.65914">
        <ele>44</ele>
        <time>2019-05-14T12:13:45Z</time>
      </trkpt>
      <trkpt lat="44.72826" lon="-0.65927">
        <ele>45</ele>
        <time>2019-05-14T12:13:50Z</time>
      </trkpt>
      <trkpt lat="44.72815" lon="-0.65929">
        <ele>45</ele>
        <time>2019-05-14T12:13:52Z</time>
      </trkpt>
      <trkpt lat="44.7277" lon="-0.65942">
        <ele>41</ele>
        <time>2019-05-14T12:13:54Z</time>
      </trkpt>
      <trkpt lat="44.72746" lon="-0.65967">
        <ele>46</ele>
        <time>2019-05-14T12:14:08Z</time>
      </trkpt>
      <trkpt lat="44.72727" lon="-0.65976">
        <ele>50</ele>
        <time>2019-05-14T12:14:10Z</time>
      </trkpt>
      <trkpt lat="44.7272" lon="-0.65983">
        <ele>50</ele>
        <time>2019-05-14T12:14:18Z</time>
      </trkpt>
      <trkpt lat="44.72711" lon="-0.65989">
        <ele>49</ele>
        <time>2019-05-14T12:14:20Z</time>
      </trkpt>
      <trkpt lat="44.72666" lon="-0.66026">
        <ele>45</ele>
        <time>2019-05-14T12:14:24Z</time>
      </trkpt>
      <trkpt lat="44.72663" lon="-0.66032">
        <ele>45</ele>
        <time>2019-05-14T12:14:37Z</time>
      </trkpt>
      <trkpt lat="44.72639" lon="-0.66053">
        <ele>45</ele>
        <time>2019-05-14T12:14:46Z</time>
      </trkpt>
      <trkpt lat="44.72633" lon="-0.66063">
        <ele>47</ele>
        <time>2019-05-14T12:14:47Z</time>
      </trkpt>
      <trkpt lat="44.72612" lon="-0.66071">
        <ele>47</ele>
        <time>2019-05-14T12:15:05Z</time>
      </trkpt>
      <trkpt lat="44.72559" lon="-0.66093">
        <ele>43</ele>
        <time>2019-05-14T12:15:06Z</time>
      </trkpt>
      <trkpt lat="44.72523" lon="-0.66108">
        <ele>42</ele>
        <time>2019-05-14T12:15:07Z</time>
      </trkpt>
      <trkpt lat="44.72527" lon="-0.66116">
        <ele>43</ele>
        <time>2019-05-14T12:15:13Z</time>
      </trkpt>
      <trkpt lat="44.7245" lon="-0.66141">
        <ele>48</ele>
        <time>2019-05-14T12:15:15Z</time>
      </trkpt>
      <trkpt lat="44.72445" lon="-0.66144">
        <ele>49</ele>
        <time>2019-05-14T12:15:16Z</time>
      </trkpt>
      <trkpt lat="44.7244" lon="-0.66144">
        <ele>50</ele>
        <time>2019-05-14T12:15:17Z</time>
      </trkpt>
      <trkpt lat="44.72415" lon="-0.66148">
        <ele>48</ele>
        <time>2019-05-14T12:15:35Z</time>
      </trkpt>
      <trkpt lat="44.7241" lon="-0.66154">
        <ele>48</ele>
        <time>2019-05-14T12:15:39Z</time>
      </trkpt>
      <trkpt lat="44.72407" lon="-0.66159">
        <ele>47</ele>
        <time>2019-05-14T12:15:45Z</time>
      </trkpt>
      <trkpt lat="44.72401" lon="-0.6616">
        <ele>47</ele>
        <time>2019-05-14T12:15:47Z</time>
      </trkpt>
      <trkpt lat="44.72316" lon="-0.6619">
        <ele>46</ele>
        <time>2019-05-14T12:15:50Z</time>
      </trkpt>
      <trkpt lat="44.72305" lon="-0.662">
        <ele>47</ele>
        <time>2019-05-14T12:15:51Z</time>
      </trkpt>
      <trkpt lat="44.72283" lon="-0.66211">
        <ele>48</ele>
        <time>2019-05-14T12:15:53Z</time>
      </trkpt>
      <trkpt lat="44.72277" lon="-0.66218">
        <ele>48</ele>
        <time>2019-05-14T12:15:54Z</time>
      </trkpt>
      <trkpt lat="44.72263" lon="-0.66221">
        <ele>52</ele>
        <time>2019-05-14T12:15:55Z</time>
      </trkpt>
      <trkpt lat="44.72254" lon="-0.66218">
        <ele>53</ele>
        <time>2019-05-14T12:16:06Z</time>
      </trkpt>
      <trkpt lat="44.72245" lon="-0.6622">
        <ele>53</ele>
        <time>2019-05-14T12:16:08Z</time>
      </trkpt>
      <trkpt lat="44.72241" lon="-0.66225">
        <ele>53</ele>
        <time>2019-05-14T12:16:13Z</time>
      </trkpt>
      <trkpt lat="44.72237" lon="-0.66233">
        <ele>52</ele>
        <time>2019-05-14T12:16:15Z</time>
      </trkpt>
      <trkpt lat="44.72236" lon="-0.66227">
        <ele>52</ele>
        <time>2019-05-14T12:16:18Z</time>
      </trkpt>
      <trkpt lat="44.72233" lon="-0.66219">
        <ele>52</ele>
        <time>2019-05-14T12:16:21Z</time>
      </trkpt>
      <trkpt lat="44.72221" lon="-0.66196">
        <ele>53</ele>
        <time>2019-05-14T12:16:23Z</time>
      </trkpt>
      <trkpt lat="44.72216" lon="-0.66188">
        <ele>53</ele>
        <time>2019-05-14T12:16:29Z</time>
      </trkpt>
      <trkpt lat="44.7221" lon="-0.6618">
        <ele>55</ele>
        <time>2019-05-14T12:16:31Z</time>
      </trkpt>
      <trkpt lat="44.72189" lon="-0.66175">
        <ele>55</ele>
        <time>2019-05-14T12:16:40Z</time>
      </trkpt>
      <trkpt lat="44.72178" lon="-0.66166">
        <ele>54</ele>
        <time>2019-05-14T12:16:41Z</time>
      </trkpt>
      <trkpt lat="44.72151" lon="-0.66137">
        <ele>51</ele>
        <time>2019-05-14T12:16:49Z</time>
      </trkpt>
      <trkpt lat="44.72149" lon="-0.66131">
        <ele>52</ele>
        <time>2019-05-14T12:16:50Z</time>
      </trkpt>
      <trkpt lat="44.72119" lon="-0.661">
        <ele>51</ele>
        <time>2019-05-14T12:16:51Z</time>
      </trkpt>
      <trkpt lat="44.72126" lon="-0.66098">
        <ele>51</ele>
        <time>2019-05-14T12:16:53Z</time>
      </trkpt>
      <trkpt lat="44.72088" lon="-0.66065">
        <ele>48</ele>
        <time>2019-05-14T12:16:56Z</time>
      </trkpt>
      <trkpt lat="44.7209" lon="-0.66062">
        <ele>47</ele>
        <time>2019-05-14T12:16:57Z</time>
      </trkpt>
      <trkpt lat="44.72087" lon="-0.66058">
        <ele>47</ele>
        <time>2019-05-14T12:16:58Z</time>
      </trkpt>
      <trkpt lat="44.72095" lon="-0.66057">
        <ele>46</ele>
        <time>2019-05-14T12:17:26Z</time>
      </trkpt>
      <trkpt lat="44.72088" lon="-0.66047">
        <ele>46</ele>
        <time>2019-05-14T12:17:28Z</time>
      </trkpt>
      <trkpt lat="44.72081" lon="-0.66044">
        <ele>43</ele>
        <time>2019-05-14T12:17:34Z</time>
      </trkpt>
      <trkpt lat="44.72076" lon="-0.66041">
        <ele>41</ele>
        <time>2019-05-14T12:17:41Z</time>
      </trkpt>
      <trkpt lat="44.71971" lon="-0.65919">
        <ele>44</ele>
        <time>2019-05-14T12:17:42Z</time>
      </trkpt>
      <trkpt lat="44.71967" lon="-0.65908">
        <ele>44</ele>
        <time>2019-05-14T12:17:47Z</time>
      </trkpt>
      <trkpt lat="44.71949" lon="-0.65889">
        <ele>42</ele>
        <time>2019-05-14T12:17:50Z</time>
      </trkpt>
      <trkpt lat="44.71943" lon="-0.65883">
        <ele>44</ele>
        <time>2019-05-14T12:17:53Z</time>
      </trkpt>
      <trkpt lat="44.71938" lon="-0.65882">
        <ele>44</ele>
        <time>2019-05-14T12:17:57Z</time>
      </trkpt>
      <trkpt lat="44.7191" lon="-0.65883">
        <ele>42</ele>
        <time>2019-05-14T12:18:06Z</time>
      </trkpt>
      <trkpt lat="44.7189" lon="-0.65883">
        <ele>40</ele>
        <time>2019-05-14T12:18:07Z</time>
      </trkpt>
      <trkpt lat="44.71887" lon="-0.6589">
        <ele>41</ele>
        <time>2019-05-14T12:18:09Z</time>
      </trkpt>
      <trkpt lat="44.71869" lon="-0.65883">
        <ele>32</ele>
        <time>2019-05-14T12:18:20Z</time>
      </trkpt>
      <trkpt lat="44.71827" lon="-0.65866">
        <ele>37</ele>
        <time>2019-05-14T12:18:22Z</time>
      </trkpt>
      <trkpt lat="44.71823" lon="-0.65867">
        <ele>39</ele>
        <time>2019-05-14T12:18:52Z</time>
      </trkpt>
      <trkpt lat="44.71819" lon="-0.6587">
        <ele>46</ele>
        <time>2019-05-14T12:19:01Z</time>
      </trkpt>
      <trkpt lat="44.71764" lon="-0.65841">
        <ele>43</ele>
        <time>2019-05-14T12:19:03Z</time>
      </trkpt>
      <trkpt lat="44.71758" lon="-0.65836">
        <ele>43</ele>
        <time>2019-05-14T12:19:08Z</time>
      </trkpt>
      <trkpt lat="44.71632" lon="-0.65799">
        <ele>42</ele>
        <time>2019-05-14T12:19:13Z</time>
      </trkpt>
      <trkpt lat="44.71599" lon="-0.65787">
        <ele>41</ele>
        <time>2019-05-14T12:19:27Z</time>
      </trkpt>
      <trkpt lat="44.7159" lon="-0.65787">
        <ele>43</ele>
        <time>2019-05-14T12:19:38Z</time>
      </trkpt>
      <trkpt lat="44.71568" lon="-0.65777">
        <ele>43</ele>
        <time>2019-05-14T12:19:40Z</time>
      </trkpt>
      <trkpt lat="44.71554" lon="-0.65774">
        <ele>42</ele>
        <time>2019-05-14T12:19:44Z</time>
      </trkpt>
      <trkpt lat="44.71507" lon="-0.65786">
        <ele>41</ele>
        <time>2019-05-14T12:19:45Z</time>
      </trkpt>
      <trkpt lat="44.71504" lon="-0.65798">
        <ele>41</ele>
        <time>2019-05-14T12:19:50Z</time>
      </trkpt>
      <trkpt lat="44.71499" lon="-0.65795">
        <ele>41</ele>
        <time>2019-05-14T12:19:52Z</time>
      </trkpt>
      <trkpt lat="44.71486" lon="-0.65799">
        <ele>41</ele>
        <time>2019-05-14T12:19:54Z</time>
      </trkpt>
      <trkpt lat="44.71482" lon="-0.65803">
        <ele>42</ele>
        <time>2019-05-14T12:19:56Z</time>
      </trkpt>
      <trkpt lat="44.71456" lon="-0.65811">
        <ele>44</ele>
        <time>2019-05-14T12:20:21Z</time>
      </trkpt>
      <trkpt lat="44.71446" lon="-0.65811">
        <ele>44</ele>
        <time>2019-05-14T12:20:27Z</time>
      </trkpt>
      <trkpt lat="44.71433" lon="-0.6581">
        <ele>46</ele>
        <time>2019-05-14T12:20:57Z</time>
      </trkpt>
      <trkpt lat="44.71423" lon="-0.65813">
        <ele>45</ele>
        <time>2019-05-14T12:21:02Z</time>
      </trkpt>
      <trkpt lat="44.71322" lon="-0.65875">
        <ele>51</ele>
        <time>2019-05-14T12:21:10Z</time>
      </trkpt>
      <trkpt lat="44.71296" lon="-0.65895">
        <ele>52</ele>
        <time>2019-05-14T12:21:13Z</time>
      </trkpt>
      <trkpt lat="44.71184" lon="-0.66031">
        <ele>54</ele>
        <time>2019-05-14T12:21:16Z</time>
      </trkpt>
      <trkpt lat="44.71168" lon="-0.66056">
        <ele>55</ele>
        <time>2019-05-14T12:21:46Z</time>
      </trkpt>
      <trkpt lat="44.71139" lon="-0.66093">
        <ele>54</ele>
        <time>2019-05-14T12:21:53Z</time>
      </trkpt>
      <trkpt lat="44.71125" lon="-0.66099">
        <ele>54</ele>
        <time>2019-05-14T12:21:56Z</time>
      </trkpt>
      <trkpt lat="44.71112" lon="-0.66101">
        <ele>54</ele>
        <time>2019-05-14T12:22:18Z</time>
      </trkpt>
      <trkpt lat="44.70966" lon="-0.66103">
        <ele>54</ele>
        <time>2019-05-14T12:22:22Z</time>
      </trkpt>
      <trkpt lat="44.70929" lon="-0.66104">
        <ele>53</ele>
        <time>2019-05-14T12:22:25Z</time>
      </trkpt>
      <trkpt lat="44.70909" lon="-0.66106">
        <ele>55</ele>
        <time>2019-05-14T12:22:32Z</time>
      </trkpt>
      <trkpt lat="44.70802" lon="-0.66104">
        <ele>53</ele>
        <time>2019-05-14T12:22:34Z</time>
      </trkpt>
      <trkpt lat="44.70784" lon="-0.66106">
        <ele>54</ele>
        <time>2019-05-14T12:22:37Z</time>
      </trkpt>
      <trkpt lat="44.7077" lon="-0.66107">
        <ele>56</ele>
        <time>2019-05-14T12:22:55Z</time>
      </trkpt>
      <trkpt lat="44.70735" lon="-0.66109">
        <ele>55</ele>
        <time>2019-05-14T12:22:56Z</time>
      </trkpt>
      <trkpt lat="44.70726" lon="-0.66112">
        <ele>56</ele>
        <time>2019-05-14T12:23:05Z</time>
      </trkpt>
      <trkpt lat="44.70709" lon="-0.66111">
        <ele>58</ele>
        <time>2019-05-14T12:23:06Z</time>
      </trkpt>
      <trkpt lat="44.70628" lon="-0.66109">
        <ele>53</ele>
        <time>2019-05-14T12:23:09Z</time>
      </trkpt>
      <trkpt lat="44.70624" lon="-0.66112">
        <ele>54</ele>
        <time>2019-05-14T12:23:11Z</time>
      </trkpt>
      <trkpt lat="44.70583" lon="-0.66111">
        <ele>54</ele>
        <time>2019-05-14T12:23:27Z</time>
      </trkpt>
      <trkpt lat="44.70579" lon="-0.66109">
        <ele>55</ele>
        <time>2019-05-14T12:23:29Z</time>
      </trkpt>
      <trkpt lat="44.70565" lon="-0.6611">
        <ele>55</ele>
        <time>2019-05-14T12:23:38Z</time>
      </trkpt>
      <trkpt lat="44.70556" lon="-0.66109">
        <ele>56</ele>
        <time>2019-05-14T12:23:49Z</time>
      </trkpt>
      <trkpt lat="44.70483" lon="-0.66115">
        <ele>55</ele>
        <time>2019-05-14T12:23:51Z</time>
      </trkpt>
      <trkpt lat="44.70475" lon="-0.66112">
        <ele>56</ele>
        <time>2019-05-14T12:24:07Z</time>
      </trkpt>
      <trkpt lat="44.70435" lon="-0.66115">
        <ele>54</ele>
        <time>2019-05-14T12:24:10Z</time>
      </trkpt>
      <trkpt lat="44.7038" lon="-0.66118">
        <ele>53</ele>
        <time>2019-05-14T12:24:11Z</time>
      </trkpt>
      <trkpt lat="44.70373" lon="-0.66116">
        <ele>54</ele>
        <time>2019-05-14T12:24:12Z</time>
      </trkpt>
      <trkpt lat="44.70298" lon="-0.66118">
        <ele>52</ele>
        <time>2019-05-14T12:24:14Z</time>
      </trkpt>
      <trkpt lat="44.70284" lon="-0.66117">
        <ele>52</ele>
        <time>2019-05-14T12:24:22Z</time>
      </trkpt>
      <trkpt lat="44.70281" lon="-0.66113">
        <ele>52</ele>
        <time>2019-05-14T12:24:23Z</time>
      </trkpt>
      <trkpt lat="44.70278" lon="-0.66108">
        <ele>51</ele>
        <time>2019-05-14T12:24:24Z</time>
      </trkpt>
      <trkpt lat="44.70275" lon="-0.66098">
        <ele>52</ele>
        <time>2019-05-14T12:24:25Z</time>
      </trkpt>
      <trkpt lat="44.70269" lon="-0.66048">
        <ele>52</ele>
        <time>2019-05-14T12:24:26Z</time>
      </trkpt>
      <trkpt lat="44.7027" lon="-0.66042">
        <ele>52</ele>
        <time>2019-05-14T12:24:28Z</time>
      </trkpt>
      <trkpt lat="44.70268" lon="-0.66035">
        <ele>51</ele>
        <time>2019-05-14T12:24:35Z</time>
      </trkpt>
      <trkpt lat="44.70265" lon="-0.66031">
        <ele>51</ele>
        <time>2019-05-14T12:24:37Z</time>
      </trkpt>
      <trkpt lat="44.70261" lon="-0.6603">
        <ele>51</ele>
        <time>2019-05-14T12:24:46Z</time>
      </trkpt>
      <trkpt lat="44.70252" lon="-0.66032">
        <ele>52</ele>
        <time>2019-05-14T12:24:50Z</time>
      </trkpt>
      <trkpt lat="44.7022" lon="-0.66045">
        <ele>52</ele>
        <time>2019-05-14T12:24:54Z</time>
      </trkpt>
      <trkpt lat="44.7021" lon="-0.66048">
        <ele>53</ele>
        <time>2019-05-14T12:25:06Z</time>
      </trkpt>
      <trkpt lat="44.70174" lon="-0.66069">
        <ele>53</ele>
        <time>2019-05-14T12:25:09Z</time>
      </trkpt>
      <trkpt lat="44.7016" lon="-0.66084">
        <ele>53</ele>
        <time>2019-05-14T12:25:26Z</time>
      </trkpt>
      <trkpt lat="44.70147" lon="-0.66103">
        <ele>53</ele>
        <time>2019-05-14T12:25:29Z</time>
      </trkpt>
      <trkpt lat="44.70113" lon="-0.66162">
        <ele>53</ele>
        <time>2019-05-14T12:25:46Z</time>
      </trkpt>
      <trkpt lat="44.70104" lon="-0.66178">
        <ele>51</ele>
        <time>2019-05-14T12:25:48Z</time>
      </trkpt>
      <trkpt lat="44.70062" lon="-0.6627">
        <ele>54</ele>
        <time>2019-05-14T12:25:53Z</time>
      </trkpt>
      <trkpt lat="44.70057" lon="-0.66284">
        <ele>56</ele>
        <time>2019-05-14T12:25:55Z</time>
      </trkpt>
      <trkpt lat="44.70007" lon="-0.66375">
        <ele>59</ele>
        <time>2019-05-14T12:26:11Z</time>
      </trkpt>
      <trkpt lat="44.70002" lon="-0.66387">
        <ele>58</ele>
        <time>2019-05-14T12:26:15Z</time>
      </trkpt>
      <trkpt lat="44.69986" lon="-0.66412">
        <ele>59</ele>
        <time>2019-05-14T12:26:24Z</time>
      </trkpt>
      <trkpt lat="44.69979" lon="-0.66423">
        <ele>61</ele>
        <time>2019-05-14T12:26:26Z</time>
      </trkpt>
      <trkpt lat="44.69939" lon="-0.66505">
        <ele>59</ele>
        <time>2019-05-14T12:26:29Z</time>
      </trkpt>
      <trkpt lat="44.69928" lon="-0.66523">
        <ele>63</ele>
        <time>2019-05-14T12:26:30Z</time>
      </trkpt>
      <trkpt lat="44.69907" lon="-0.66569">
        <ele>63</ele>
        <time>2019-05-14T12:26:35Z</time>
      </trkpt>
      <trkpt lat="44.69899" lon="-0.66582">
        <ele>60</ele>
        <time>2019-05-14T12:26:50Z</time>
      </trkpt>
      <trkpt lat="44.69894" lon="-0.66597">
        <ele>59</ele>
        <time>2019-05-14T12:26:52Z</time>
      </trkpt>
      <trkpt lat="44.69891" lon="-0.66601">
        <ele>59</ele>
        <time>2019-05-14T12:26:53Z</time>
      </trkpt>
      <trkpt lat="44.69879" lon="-0.66628">
        <ele>60</ele>
        <time>2019-05-14T12:26:56Z</time>
      </trkpt>
      <trkpt lat="44.6984" lon="-0.66703">
        <ele>63</ele>
        <time>2019-05-14T12:27:03Z</time>
      </trkpt>
      <trkpt lat="44.69837" lon="-0.66714">
        <ele>64</ele>
        <time>2019-05-14T12:27:06Z</time>
      </trkpt>
      <trkpt lat="44.69834" lon="-0.66718">
        <ele>66</ele>
        <time>2019-05-14T12:27:29Z</time>
      </trkpt>
      <trkpt lat="44.69823" lon="-0.66734">
        <ele>67</ele>
        <time>2019-05-14T12:27:30Z</time>
      </trkpt>
      <trkpt lat="44.69804" lon="-0.66767">
        <ele>63</ele>
        <time>2019-05-14T12:27:32Z</time>
      </trkpt>
      <trkpt lat="44.69799" lon="-0.66784">
        <ele>63</ele>
        <time>2019-05-14T12:28:02Z</time>
      </trkpt>
      <trkpt lat="44.69733" lon="-0.66899">
        <ele>61</ele>
        <time>2019-05-14T12:28:24Z</time>
      </trkpt>
      <trkpt lat="44.69731" lon="-0.66906">
        <ele>62</ele>
        <time>2019-05-14T12:28:29Z</time>
      </trkpt>
      <trkpt lat="44.69723" lon="-0.66914">
        <ele>62</ele>
        <time>2019-05-14T12:28:55Z</time>
      </trkpt>
      <trkpt lat="44.69639" lon="-0.67069">
        <ele>61</ele>
        <time>2019-05-14T12:28:56Z</time>
      </trkpt>
      <trkpt lat="44.69577" lon="-0.67186">
        <ele>59</ele>
        <time>2019-05-14T12:29:26Z</time>
      </trkpt>
      <trkpt lat="44.69561" lon="-0.67213">
        <ele>60</ele>
        <time>2019-05-14T12:29:56Z</time>
      </trkpt>
      <trkpt lat="44.69492" lon="-0.67354">
        <ele>60</ele>
        <time>2019-05-14T12:30:26Z</time>
      </trkpt>
      <trkpt lat="44.69488" lon="-0.67359">
        <ele>60</ele>
        <time>2019-05-14T12:30:36Z</time>
      </trkpt>
      <trkpt lat="44.69406" lon="-0.67524">
        <ele>59</ele>
        <time>2019-05-14T12:30:39Z</time>
      </trkpt>
      <trkpt lat="44.69323" lon="-0.67692">
        <ele>60</ele>
        <time>2019-05-14T12:31:09Z</time>
      </trkpt>
      <trkpt lat="44.69237" lon="-0.67855">
        <ele>66</ele>
        <time>2019-05-14T12:31:16Z</time>
      </trkpt>
      <trkpt lat="44.69212" lon="-0.6791">
        <ele>68</ele>
        <time>2019-05-14T12:31:17Z</time>
      </trkpt>
      <trkpt lat="44.69204" lon="-0.67928">
        <ele>66</ele>
        <time>2019-05-14T12:31:23Z</time>
      </trkpt>
      <trkpt lat="44.69121" lon="-0.6808">
        <ele>61</ele>
        <time>2019-05-14T12:31:24Z</time>
      </trkpt>
      <trkpt lat="44.69108" lon="-0.6811">
        <ele>59</ele>
        <time>2019-05-14T12:31:25Z</time>
      </trkpt>
      <trkpt lat="44.69106" lon="-0.68113">
        <ele>59</ele>
        <time>2019-05-14T12:31:26Z</time>
      </trkpt>
      <trkpt lat="44.69098" lon="-0.68131">
        <ele>60</ele>
        <time>2019-05-14T12:31:28Z</time>
      </trkpt>
      <trkpt lat="44.69096" lon="-0.68132">
        <ele>60</ele>
        <time>2019-05-14T12:31:35Z</time>
      </trkpt>
      <trkpt lat="44.69093" lon="-0.68131">
        <ele>60</ele>
        <time>2019-05-14T12:31:36Z</time>
      </trkpt>
      <trkpt lat="44.69091" lon="-0.68129">
        <ele>60</ele>
        <time>2019-05-14T12:31:42Z</time>
      </trkpt>
      <trkpt lat="44.69086" lon="-0.68123">
        <ele>59</ele>
        <time>2019-05-14T12:31:43Z</time>
      </trkpt>
      <trkpt lat="44.69073" lon="-0.68092">
        <ele>62</ele>
        <time>2019-05-14T12:31:44Z</time>
      </trkpt>
      <trkpt lat="44.6907" lon="-0.68088">
        <ele>62</ele>
        <time>2019-05-14T12:31:48Z</time>
      </trkpt>
      <trkpt lat="44.6906" lon="-0.68054">
        <ele>63</ele>
        <time>2019-05-14T12:31:58Z</time>
      </trkpt>
      <trkpt lat="44.69057" lon="-0.68051">
        <ele>63</ele>
        <time>2019-05-14T12:32:00Z</time>
      </trkpt>
      <trkpt lat="44.69056" lon="-0.68046">
        <ele>64</ele>
        <time>2019-05-14T12:32:03Z</time>
      </trkpt>
      <trkpt lat="44.69047" lon="-0.68029">
        <ele>64</ele>
        <time>2019-05-14T12:32:04Z</time>
      </trkpt>
      <trkpt lat="44.69028" lon="-0.67973">
        <ele>61</ele>
        <time>2019-05-14T12:32:06Z</time>
      </trkpt>
      <trkpt lat="44.69025" lon="-0.6796">
        <ele>61</ele>
        <time>2019-05-14T12:32:10Z</time>
      </trkpt>
      <trkpt lat="44.69016" lon="-0.67947">
        <ele>61</ele>
        <time>2019-05-14T12:32:12Z</time>
      </trkpt>
      <trkpt lat="44.69013" lon="-0.67943">
        <ele>63</ele>
        <time>2019-05-14T12:32:16Z</time>
      </trkpt>
      <trkpt lat="44.69005" lon="-0.67941">
        <ele>64</ele>
        <time>2019-05-14T12:32:18Z</time>
      </trkpt>
      <trkpt lat="44.68989" lon="-0.6793">
        <ele>65</ele>
        <time>2019-05-14T12:32:19Z</time>
      </trkpt>
      <trkpt lat="44.68982" lon="-0.67922">
        <ele>65</ele>
        <time>2019-05-14T12:32:21Z</time>
      </trkpt>
      <trkpt lat="44.68973" lon="-0.67905">
        <ele>66</ele>
        <time>2019-05-14T12:32:24Z</time>
      </trkpt>
      <trkpt lat="44.68965" lon="-0.67898">
        <ele>65</ele>
        <time>2019-05-14T12:32:26Z</time>
      </trkpt>
      <trkpt lat="44.68961" lon="-0.67898">
        <ele>65</ele>
        <time>2019-05-14T12:32:30Z</time>
      </trkpt>
      <trkpt lat="44.68954" lon="-0.67894">
        <ele>65</ele>
        <time>2019-05-14T12:32:33Z</time>
      </trkpt>
      <trkpt lat="44.68945" lon="-0.67892">
        <ele>67</ele>
        <time>2019-05-14T12:32:35Z</time>
      </trkpt>
      <trkpt lat="44.68942" lon="-0.67887">
        <ele>67</ele>
        <time>2019-05-14T12:32:58Z</time>
      </trkpt>
      <trkpt lat="44.68936" lon="-0.67874">
        <ele>67</ele>
        <time>2019-05-14T12:32:59Z</time>
      </trkpt>
      <trkpt lat="44.68927" lon="-0.67867">
        <ele>68</ele>
        <time>2019-05-14T12:33:06Z</time>
      </trkpt>
      <trkpt lat="44.6892" lon="-0.6786">
        <ele>68</ele>
        <time>2019-05-14T12:33:08Z</time>
      </trkpt>
      <trkpt lat="44.6884" lon="-0.67793">
        <ele>68</ele>
        <time>2019-05-14T12:33:10Z</time>
      </trkpt>
      <trkpt lat="44.68838" lon="-0.67787">
        <ele>68</ele>
        <time>2019-05-14T12:33:11Z</time>
      </trkpt>
      <trkpt lat="44.68813" lon="-0.67768">
        <ele>69</ele>
        <time>2019-05-14T12:33:14Z</time>
      </trkpt>
      <trkpt lat="44.68806" lon="-0.67762">
        <ele>69</ele>
        <time>2019-05-14T12:33:25Z</time>
      </trkpt>
      <trkpt lat="44.68797" lon="-0.67755">
        <ele>70</ele>
        <time>2019-05-14T12:33:28Z</time>
      </trkpt>
      <trkpt lat="44.68792" lon="-0.67753">
        <ele>72</ele>
        <time>2019-05-14T12:33:30Z</time>
      </trkpt>
      <trkpt lat="44.68785" lon="-0.6774">
        <ele>73</ele>
        <time>2019-05-14T12:34:00Z</time>
      </trkpt>
      <trkpt lat="44.68744" lon="-0.67706">
        <ele>71</ele>
        <time>2019-05-14T12:34:18Z</time>
      </trkpt>
      <trkpt lat="44.68736" lon="-0.67692">
        <ele>73</ele>
        <time>2019-05-14T12:34:20Z</time>
      </trkpt>
      <trkpt lat="44.68729" lon="-0.6769">
        <ele>72</ele>
        <time>2019-05-14T12:34:22Z</time>
      </trkpt>
      <trkpt lat="44.68613" lon="-0.67584">
        <ele>68</ele>
        <time>2019-05-14T12:34:45Z</time>
      </trkpt>
      <trkpt lat="44.68554" lon="-0.67533">
        <ele>70</ele>
        <time>2019-05-14T12:34:47Z</time>
      </trkpt>
      <trkpt lat="44.68545" lon="-0.67531">
        <ele>70</ele>
        <time>2019-05-14T12:35:00Z</time>
      </trkpt>
      <trkpt lat="44.68538" lon="-0.67521">
        <ele>69</ele>
        <time>2019-05-14T12:35:03Z</time>
      </trkpt>
      <trkpt lat="44.68449" lon="-0.67438">
        <ele>66</ele>
        <time>2019-05-14T12:35:15Z</time>
      </trkpt>
      <trkpt lat="44.68442" lon="-0.67432">
        <ele>67</ele>
        <time>2019-05-14T12:35:17Z</time>
      </trkpt>
      <trkpt lat="44.6839" lon="-0.67387">
        <ele>72</ele>
        <time>2019-05-14T12:35:18Z</time>
      </trkpt>
      <trkpt lat="44.68378" lon="-0.67377">
        <ele>73</ele>
        <time>2019-05-14T12:35:19Z</time>
      </trkpt>
      <trkpt lat="44.68336" lon="-0.67334">
        <ele>74</ele>
        <time>2019-05-14T12:35:21Z</time>
      </trkpt>
      <trkpt lat="44.68331" lon="-0.6733">
        <ele>74</ele>
        <time>2019-05-14T12:35:22Z</time>
      </trkpt>
      <trkpt lat="44.68329" lon="-0.67327">
        <ele>74</ele>
        <time>2019-05-14T12:35:25Z</time>
      </trkpt>
      <trkpt lat="44.68329" lon="-0.67323">
        <ele>75</ele>
        <time>2019-05-14T12:35:31Z</time>
      </trkpt>
      <trkpt lat="44.68324" lon="-0.67318">
        <ele>74</ele>
        <time>2019-05-14T12:35:35Z</time>
      </trkpt>
      <trkpt lat="44.68321" lon="-0.67317">
        <ele>74</ele>
        <time>2019-05-14T12:35:37Z</time>
      </trkpt>
      <trkpt lat="44.68314" lon="-0.67309">
        <ele>76</ele>
        <time>2019-05-14T12:35:39Z</time>
      </trkpt>
      <trkpt lat="44.68298" lon="-0.67297">
        <ele>76</ele>
        <time>2019-05-14T12:35:41Z</time>
      </trkpt>
      <trkpt lat="44.68288" lon="-0.67298">
        <ele>76</ele>
        <time>2019-05-14T12:35:44Z</time>
      </trkpt>
      <trkpt lat="44.68284" lon="-0.67302">
        <ele>75</ele>
        <time>2019-05-14T12:35:46Z</time>
      </trkpt>
      <trkpt lat="44.68281" lon="-0.67302">
        <ele>73</ele>
        <time>2019-05-14T12:36:05Z</time>
      </trkpt>
      <trkpt lat="44.68279" lon="-0.67303">
        <ele>71</ele>
        <time>2019-05-14T12:36:20Z</time>
      </trkpt>
      <trkpt lat="44.68276" lon="-0.67305">
        <ele>72</ele>
        <time>2019-05-14T12:36:50Z</time>
      </trkpt>
      <trkpt lat="44.68271" lon="-0.67312">
        <ele>70</ele>
        <time>2019-05-14T12:36:58Z</time>
      </trkpt>
      <trkpt lat="44.6827" lon="-0.67312">
        <ele>72</ele>
        <time>2019-05-14T12:37:13Z</time>
      </trkpt>
      <trkpt lat="44.6827" lon="-0.67307">
        <ele>73</ele>
        <time>2019-05-14T12:37:19Z</time>
      </trkpt>
      <trkpt lat="44.68268" lon="-0.67307">
        <ele>72</ele>
        <time>2019-05-14T12:37:30Z</time>
      </trkpt>
      <trkpt lat="44.68269" lon="-0.67301">
        <ele>65</ele>
        <time>2019-05-14T12:38:14Z</time>
      </trkpt>
      <trkpt lat="44.68273" lon="-0.67304">
        <ele>60</ele>
        <time>2019-05-14T12:38:26Z</time>
      </trkpt>
      <trkpt lat="44.68273" lon="-0.67308">
        <ele>60</ele>
        <time>2019-05-14T12:38:40Z</time>
      </trkpt>
      <trkpt lat="44.68277" lon="-0.67303">
        <ele>64</ele>
        <time>2019-05-14T12:38:45Z</time>
      </trkpt>
      <trkpt lat="44.68279" lon="-0.673">
        <ele>65</ele>
        <time>2019-05-14T12:38:55Z</time>
      </trkpt>
      <trkpt lat="44.6828" lon="-0.67303">
        <ele>66</ele>
        <time>2019-05-14T12:39:26Z</time>
      </trkpt>
      <trkpt lat="44.68279" lon="-0.67302">
        <ele>69</ele>
        <time>2019-05-14T12:39:38Z</time>
      </trkpt>
      <trkpt lat="44.68276" lon="-0.67301">
        <ele>69</ele>
        <time>2019-05-14T12:39:45Z</time>
      </trkpt>
      <trkpt lat="44.68274" lon="-0.67295">
        <ele>68</ele>
        <time>2019-05-14T12:39:47Z</time>
      </trkpt>
      <trkpt lat="44.68273" lon="-0.67295">
        <ele>63</ele>
        <time>2019-05-14T12:40:10Z</time>
      </trkpt>
      <trkpt lat="44.68269" lon="-0.67292">
        <ele>63</ele>
        <time>2019-05-14T12:40:12Z</time>
      </trkpt>
      <trkpt lat="44.68271" lon="-0.67288">
        <ele>63</ele>
        <time>2019-05-14T12:40:13Z</time>
      </trkpt>
      <trkpt lat="44.68274" lon="-0.67287">
        <ele>63</ele>
        <time>2019-05-14T12:40:18Z</time>
      </trkpt>
      <trkpt lat="44.68274" lon="-0.67291">
        <ele>64</ele>
        <time>2019-05-14T12:40:34Z</time>
      </trkpt>
      <trkpt lat="44.68276" lon="-0.67292">
        <ele>64</ele>
        <time>2019-05-14T12:40:35Z</time>
      </trkpt>
      <trkpt lat="44.68277" lon="-0.67295">
        <ele>63</ele>
        <time>2019-05-14T12:40:43Z</time>
      </trkpt>
      <trkpt lat="44.68277" lon="-0.67299">
        <ele>64</ele>
        <time>2019-05-14T12:40:45Z</time>
      </trkpt>
      <trkpt lat="44.68275" lon="-0.67299">
        <ele>67</ele>
        <time>2019-05-14T12:40:47Z</time>
      </trkpt>
      <trkpt lat="44.68272" lon="-0.67299">
        <ele>67</ele>
        <time>2019-05-14T12:40:50Z</time>
      </trkpt>
      <trkpt lat="44.6825" lon="-0.67306">
        <ele>69</ele>
        <time>2019-05-14T12:41:20Z</time>
      </trkpt>
      <trkpt lat="44.68243" lon="-0.67306">
        <ele>69</ele>
        <time>2019-05-14T12:41:50Z</time>
      </trkpt>
      <trkpt lat="44.68237" lon="-0.67311">
        <ele>69</ele>
        <time>2019-05-14T12:42:18Z</time>
      </trkpt>
      <trkpt lat="44.68227" lon="-0.67314">
        <ele>71</ele>
        <time>2019-05-14T12:42:20Z</time>
      </trkpt>
      <trkpt lat="44.68095" lon="-0.67355">
        <ele>64</ele>
        <time>2019-05-14T12:42:23Z</time>
      </trkpt>
      <trkpt lat="44.6796" lon="-0.67398">
        <ele>61</ele>
        <time>2019-05-14T12:42:34Z</time>
      </trkpt>
      <trkpt lat="44.67841" lon="-0.67434">
        <ele>63</ele>
        <time>2019-05-14T12:42:38Z</time>
      </trkpt>
      <trkpt lat="44.67834" lon="-0.67437">
        <ele>64</ele>
        <time>2019-05-14T12:43:09Z</time>
      </trkpt>
      <trkpt lat="44.67824" lon="-0.67436">
        <ele>62</ele>
        <time>2019-05-14T12:43:12Z</time>
      </trkpt>
      <trkpt lat="44.67782" lon="-0.67429">
        <ele>63</ele>
        <time>2019-05-14T12:43:16Z</time>
      </trkpt>
      <trkpt lat="44.67769" lon="-0.67424">
        <ele>64</ele>
        <time>2019-05-14T12:43:24Z</time>
      </trkpt>
      <trkpt lat="44.6765" lon="-0.67415">
        <ele>68</ele>
        <time>2019-05-14T12:43:32Z</time>
      </trkpt>
      <trkpt lat="44.6764" lon="-0.67413">
        <ele>68</ele>
        <time>2019-05-14T12:43:34Z</time>
      </trkpt>
      <trkpt lat="44.67626" lon="-0.67403">
        <ele>69</ele>
        <time>2019-05-14T12:43:35Z</time>
      </trkpt>
      <trkpt lat="44.67607" lon="-0.6737">
        <ele>67</ele>
        <time>2019-05-14T12:43:38Z</time>
      </trkpt>
      <trkpt lat="44.67589" lon="-0.67337">
        <ele>67</ele>
        <time>2019-05-14T12:43:39Z</time>
      </trkpt>
      <trkpt lat="44.67581" lon="-0.6733">
        <ele>67</ele>
        <time>2019-05-14T12:43:47Z</time>
      </trkpt>
      <trkpt lat="44.6758" lon="-0.67325">
        <ele>67</ele>
        <time>2019-05-14T12:43:56Z</time>
      </trkpt>
      <trkpt lat="44.67569" lon="-0.67314">
        <ele>67</ele>
        <time>2019-05-14T12:43:59Z</time>
      </trkpt>
      <trkpt lat="44.67566" lon="-0.67311">
        <ele>66</ele>
        <time>2019-05-14T12:44:03Z</time>
      </trkpt>
      <trkpt lat="44.67547" lon="-0.6728">
        <ele>68</ele>
        <time>2019-05-14T12:44:14Z</time>
      </trkpt>
      <trkpt lat="44.6753" lon="-0.67238">
        <ele>65</ele>
        <time>2019-05-14T12:44:16Z</time>
      </trkpt>
      <trkpt lat="44.67526" lon="-0.67224">
        <ele>64</ele>
        <time>2019-05-14T12:44:21Z</time>
      </trkpt>
      <trkpt lat="44.67519" lon="-0.67205">
        <ele>64</ele>
        <time>2019-05-14T12:44:29Z</time>
      </trkpt>
      <trkpt lat="44.67497" lon="-0.67156">
        <ele>64</ele>
        <time>2019-05-14T12:44:31Z</time>
      </trkpt>
      <trkpt lat="44.67494" lon="-0.67145">
        <ele>64</ele>
        <time>2019-05-14T12:44:35Z</time>
      </trkpt>
      <trkpt lat="44.67486" lon="-0.67126">
        <ele>64</ele>
        <time>2019-05-14T12:45:05Z</time>
      </trkpt>
      <trkpt lat="44.67476" lon="-0.67096">
        <ele>64</ele>
        <time>2019-05-14T12:45:07Z</time>
      </trkpt>
      <trkpt lat="44.67475" lon="-0.67091">
        <ele>63</ele>
        <time>2019-05-14T12:45:23Z</time>
      </trkpt>
      <trkpt lat="44.67466" lon="-0.67081">
        <ele>63</ele>
        <time>2019-05-14T12:45:26Z</time>
      </trkpt>
      <trkpt lat="44.67395" lon="-0.66956">
        <ele>67</ele>
        <time>2019-05-14T12:45:37Z</time>
      </trkpt>
      <trkpt lat="44.67392" lon="-0.66944">
        <ele>68</ele>
        <time>2019-05-14T12:45:41Z</time>
      </trkpt>
      <trkpt lat="44.67353" lon="-0.66873">
        <ele>65</ele>
        <time>2019-05-14T12:45:46Z</time>
      </trkpt>
      <trkpt lat="44.67343" lon="-0.66863">
        <ele>64</ele>
        <time>2019-05-14T12:45:48Z</time>
      </trkpt>
      <trkpt lat="44.67318" lon="-0.66802">
        <ele>62</ele>
        <time>2019-05-14T12:46:17Z</time>
      </trkpt>
      <trkpt lat="44.67309" lon="-0.6678">
        <ele>64</ele>
        <time>2019-05-14T12:46:23Z</time>
      </trkpt>
      <trkpt lat="44.67296" lon="-0.66756">
        <ele>65</ele>
        <time>2019-05-14T12:46:53Z</time>
      </trkpt>
      <trkpt lat="44.67288" lon="-0.66745">
        <ele>64</ele>
        <time>2019-05-14T12:47:23Z</time>
      </trkpt>
      <trkpt lat="44.67214" lon="-0.66593">
        <ele>63</ele>
        <time>2019-05-14T12:47:52Z</time>
      </trkpt>
      <trkpt lat="44.672" lon="-0.66559">
        <ele>63</ele>
        <time>2019-05-14T12:48:14Z</time>
      </trkpt>
      <trkpt lat="44.67126" lon="-0.66409">
        <ele>63</ele>
        <time>2019-05-14T12:48:16Z</time>
      </trkpt>
      <trkpt lat="44.6705" lon="-0.66259">
        <ele>63</ele>
        <time>2019-05-14T12:48:20Z</time>
      </trkpt>
      <trkpt lat="44.66976" lon="-0.66116">
        <ele>62</ele>
        <time>2019-05-14T12:48:24Z</time>
      </trkpt>
      <trkpt lat="44.66919" lon="-0.66002">
        <ele>73</ele>
        <time>2019-05-14T12:48:30Z</time>
      </trkpt>
      <trkpt lat="44.66917" lon="-0.65988">
        <ele>70</ele>
        <time>2019-05-14T12:48:33Z</time>
      </trkpt>
      <trkpt lat="44.66913" lon="-0.65965">
        <ele>67</ele>
        <time>2019-05-14T12:48:44Z</time>
      </trkpt>
      <trkpt lat="44.66907" lon="-0.65942">
        <ele>66</ele>
        <time>2019-05-14T12:48:47Z</time>
      </trkpt>
      <trkpt lat="44.66902" lon="-0.65908">
        <ele>59</ele>
        <time>2019-05-14T12:49:07Z</time>
      </trkpt>
      <trkpt lat="44.66897" lon="-0.65887">
        <ele>58</ele>
        <time>2019-05-14T12:49:08Z</time>
      </trkpt>
      <trkpt lat="44.66879" lon="-0.6582">
        <ele>61</ele>
        <time>2019-05-14T12:49:16Z</time>
      </trkpt>
      <trkpt lat="44.66876" lon="-0.65802">
        <ele>62</ele>
        <time>2019-05-14T12:49:18Z</time>
      </trkpt>
      <trkpt lat="44.66845" lon="-0.65687">
        <ele>63</ele>
        <time>2019-05-14T12:49:29Z</time>
      </trkpt>
      <trkpt lat="44.66844" lon="-0.65682">
        <ele>63</ele>
        <time>2019-05-14T12:49:32Z</time>
      </trkpt>
      <trkpt lat="44.66831" lon="-0.65633">
        <ele>61</ele>
        <time>2019-05-14T12:49:40Z</time>
      </trkpt>
      <trkpt lat="44.66828" lon="-0.65623">
        <ele>60</ele>
        <time>2019-05-14T12:49:42Z</time>
      </trkpt>
      <trkpt lat="44.6681" lon="-0.65556">
        <ele>61</ele>
        <time>2019-05-14T12:49:48Z</time>
      </trkpt>
      <trkpt lat="44.66805" lon="-0.65539">
        <ele>61</ele>
        <time>2019-05-14T12:49:51Z</time>
      </trkpt>
      <trkpt lat="44.66791" lon="-0.65492">
        <ele>59</ele>
        <time>2019-05-14T12:49:53Z</time>
      </trkpt>
      <trkpt lat="44.66786" lon="-0.65484">
        <ele>60</ele>
        <time>2019-05-14T12:50:01Z</time>
      </trkpt>
      <trkpt lat="44.66777" lon="-0.65446">
        <ele>63</ele>
        <time>2019-05-14T12:50:03Z</time>
      </trkpt>
      <trkpt lat="44.66779" lon="-0.6542">
        <ele>62</ele>
        <time>2019-05-14T12:50:07Z</time>
      </trkpt>
      <trkpt lat="44.66773" lon="-0.65414">
        <ele>61</ele>
        <time>2019-05-14T12:50:12Z</time>
      </trkpt>
      <trkpt lat="44.66761" lon="-0.65373">
        <ele>64</ele>
        <time>2019-05-14T12:50:15Z</time>
      </trkpt>
      <trkpt lat="44.66756" lon="-0.65363">
        <ele>67</ele>
        <time>2019-05-14T12:50:18Z</time>
      </trkpt>
      <trkpt lat="44.66749" lon="-0.65337">
        <ele>72</ele>
        <time>2019-05-14T12:50:21Z</time>
      </trkpt>
      <trkpt lat="44.66742" lon="-0.65308">
        <ele>68</ele>
        <time>2019-05-14T12:50:22Z</time>
      </trkpt>
      <trkpt lat="44.66738" lon="-0.65292">
        <ele>66</ele>
        <time>2019-05-14T12:50:30Z</time>
      </trkpt>
      <trkpt lat="44.66735" lon="-0.65276">
        <ele>66</ele>
        <time>2019-05-14T12:50:33Z</time>
      </trkpt>
      <trkpt lat="44.66729" lon="-0.65259">
        <ele>75</ele>
        <time>2019-05-14T12:50:38Z</time>
      </trkpt>
      <trkpt lat="44.6673" lon="-0.65253">
        <ele>74</ele>
        <time>2019-05-14T12:50:39Z</time>
      </trkpt>
      <trkpt lat="44.66718" lon="-0.65207">
        <ele>65</ele>
        <time>2019-05-14T12:51:09Z</time>
      </trkpt>
      <trkpt lat="44.66713" lon="-0.652">
        <ele>40</ele>
        <time>2019-05-14T12:51:18Z</time>
      </trkpt>
      <trkpt lat="44.66698" lon="-0.6518">
        <ele>35</ele>
        <time>2019-05-14T12:51:22Z</time>
      </trkpt>
      <trkpt lat="44.66695" lon="-0.65174">
        <ele>36</ele>
        <time>2019-05-14T12:51:23Z</time>
      </trkpt>
      <trkpt lat="44.6665" lon="-0.64992">
        <ele>36</ele>
        <time>2019-05-14T12:51:28Z</time>
      </trkpt>
      <trkpt lat="44.66638" lon="-0.64944">
        <ele>36</ele>
        <time>2019-05-14T12:51:34Z</time>
      </trkpt>
      <trkpt lat="44.66626" lon="-0.64924">
        <ele>36</ele>
        <time>2019-05-14T12:51:38Z</time>
      </trkpt>
      <trkpt lat="44.66626" lon="-0.64919">
        <ele>36</ele>
        <time>2019-05-14T12:51:44Z</time>
      </trkpt>
      <trkpt lat="44.66625" lon="-0.64889">
        <ele>35</ele>
        <time>2019-05-14T12:51:46Z</time>
      </trkpt>
      <trkpt lat="44.66623" lon="-0.64895">
        <ele>36</ele>
        <time>2019-05-14T12:52:09Z</time>
      </trkpt>
      <trkpt lat="44.66616" lon="-0.64896">
        <ele>36</ele>
        <time>2019-05-14T12:52:11Z</time>
      </trkpt>
      <trkpt lat="44.66598" lon="-0.64911">
        <ele>36</ele>
        <time>2019-05-14T12:52:14Z</time>
      </trkpt>
      <trkpt lat="44.66592" lon="-0.64911">
        <ele>40</ele>
        <time>2019-05-14T12:52:18Z</time>
      </trkpt>
      <trkpt lat="44.66502" lon="-0.64945">
        <ele>56</ele>
        <time>2019-05-14T12:52:23Z</time>
      </trkpt>
      <trkpt lat="44.66496" lon="-0.6495">
        <ele>57</ele>
        <time>2019-05-14T12:52:26Z</time>
      </trkpt>
      <trkpt lat="44.66487" lon="-0.64948">
        <ele>59</ele>
        <time>2019-05-14T12:52:31Z</time>
      </trkpt>
      <trkpt lat="44.66468" lon="-0.64957">
        <ele>60</ele>
        <time>2019-05-14T12:52:39Z</time>
      </trkpt>
      <trkpt lat="44.66451" lon="-0.6497">
        <ele>61</ele>
        <time>2019-05-14T12:52:45Z</time>
      </trkpt>
      <trkpt lat="44.66431" lon="-0.64972">
        <ele>62</ele>
        <time>2019-05-14T12:52:46Z</time>
      </trkpt>
      <trkpt lat="44.66397" lon="-0.64979">
        <ele>63</ele>
        <time>2019-05-14T12:52:48Z</time>
      </trkpt>
      <trkpt lat="44.66366" lon="-0.64989">
        <ele>65</ele>
        <time>2019-05-14T12:52:53Z</time>
      </trkpt>
      <trkpt lat="44.66338" lon="-0.64997">
        <ele>64</ele>
        <time>2019-05-14T12:52:55Z</time>
      </trkpt>
      <trkpt lat="44.66332" lon="-0.64998">
        <ele>63</ele>
        <time>2019-05-14T12:52:59Z</time>
      </trkpt>
      <trkpt lat="44.66322" lon="-0.64997">
        <ele>62</ele>
        <time>2019-05-14T12:53:02Z</time>
      </trkpt>
      <trkpt lat="44.66303" lon="-0.64972">
        <ele>61</ele>
        <time>2019-05-14T12:53:03Z</time>
      </trkpt>
      <trkpt lat="44.66298" lon="-0.64963">
        <ele>60</ele>
        <time>2019-05-14T12:53:13Z</time>
      </trkpt>
      <trkpt lat="44.66293" lon="-0.6494">
        <ele>59</ele>
        <time>2019-05-14T12:53:14Z</time>
      </trkpt>
      <trkpt lat="44.66292" lon="-0.64913">
        <ele>57</ele>
        <time>2019-05-14T12:53:15Z</time>
      </trkpt>
      <trkpt lat="44.66295" lon="-0.64904">
        <ele>57</ele>
        <time>2019-05-14T12:53:17Z</time>
      </trkpt>
      <trkpt lat="44.66282" lon="-0.64834">
        <ele>48</ele>
        <time>2019-05-14T12:53:47Z</time>
      </trkpt>
      <trkpt lat="44.66279" lon="-0.6483">
        <ele>47</ele>
        <time>2019-05-14T12:54:17Z</time>
      </trkpt>
      <trkpt lat="44.66276" lon="-0.64827">
        <ele>46</ele>
        <time>2019-05-14T12:54:47Z</time>
      </trkpt>
      <trkpt lat="44.66269" lon="-0.64826">
        <ele>45</ele>
        <time>2019-05-14T12:55:18Z</time>
      </trkpt>
      <trkpt lat="44.66136" lon="-0.64901">
        <ele>28</ele>
        <time>2019-05-14T12:55:22Z</time>
      </trkpt>
      <trkpt lat="44.66005" lon="-0.64983">
        <ele>20</ele>
        <time>2019-05-14T12:55:30Z</time>
      </trkpt>
      <trkpt lat="44.65881" lon="-0.65067">
        <ele>15</ele>
        <time>2019-05-14T12:55:32Z</time>
      </trkpt>
      <trkpt lat="44.65761" lon="-0.65145">
        <ele>16</ele>
        <time>2019-05-14T12:55:45Z</time>
      </trkpt>
      <trkpt lat="44.65746" lon="-0.65157">
        <ele>16</ele>
        <time>2019-05-14T12:55:46Z</time>
      </trkpt>
      <trkpt lat="44.65716" lon="-0.65177">
        <ele>16</ele>
        <time>2019-05-14T12:55:47Z</time>
      </trkpt>
      <trkpt lat="44.65708" lon="-0.65179">
        <ele>17</ele>
        <time>2019-05-14T12:55:48Z</time>
      </trkpt>
      <trkpt lat="44.6566" lon="-0.6521">
        <ele>13</ele>
        <time>2019-05-14T12:55:50Z</time>
      </trkpt>
      <trkpt lat="44.65656" lon="-0.65214">
        <ele>14</ele>
        <time>2019-05-14T12:55:51Z</time>
      </trkpt>
      <trkpt lat="44.65653" lon="-0.65219">
        <ele>17</ele>
        <time>2019-05-14T12:55:52Z</time>
      </trkpt>
      <trkpt lat="44.65653" lon="-0.65229">
        <ele>18</ele>
        <time>2019-05-14T12:55:57Z</time>
      </trkpt>
      <trkpt lat="44.65649" lon="-0.65233">
        <ele>18</ele>
        <time>2019-05-14T12:55:59Z</time>
      </trkpt>
      <trkpt lat="44.65645" lon="-0.65233">
        <ele>17</ele>
        <time>2019-05-14T12:56:12Z</time>
      </trkpt>
      <trkpt lat="44.65641" lon="-0.65233">
        <ele>17</ele>
        <time>2019-05-14T12:56:13Z</time>
      </trkpt>
      <trkpt lat="44.6562" lon="-0.65243">
        <ele>20</ele>
        <time>2019-05-14T12:56:14Z</time>
      </trkpt>
      <trkpt lat="44.65615" lon="-0.65242">
        <ele>20</ele>
        <time>2019-05-14T12:56:35Z</time>
      </trkpt>
      <trkpt lat="44.65576" lon="-0.65264">
        <ele>24</ele>
        <time>2019-05-14T12:56:45Z</time>
      </trkpt>
      <trkpt lat="44.65572" lon="-0.65265">
        <ele>24</ele>
        <time>2019-05-14T12:56:53Z</time>
      </trkpt>
      <trkpt lat="44.65568" lon="-0.6527">
        <ele>26</ele>
        <time>2019-05-14T12:57:23Z</time>
      </trkpt>
      <trkpt lat="44.65508" lon="-0.65307">
        <ele>17</ele>
        <time>2019-05-14T12:57:53Z</time>
      </trkpt>
      <trkpt lat="44.65483" lon="-0.65327">
        <ele>12</ele>
        <time>2019-05-14T12:58:04Z</time>
      </trkpt>
      <trkpt lat="44.65458" lon="-0.65343">
        <ele>10</ele>
        <time>2019-05-14T12:58:07Z</time>
      </trkpt>
      <trkpt lat="44.65343" lon="-0.65417">
        <ele>4</ele>
        <time>2019-05-14T12:58:14Z</time>
      </trkpt>
      <trkpt lat="44.65225" lon="-0.65493">
        <ele>1</ele>
        <time>2019-05-14T12:58:16Z</time>
      </trkpt>
      <trkpt lat="44.65195" lon="-0.65508">
        <ele>1</ele>
        <time>2019-05-14T12:58:23Z</time>
      </trkpt>
      <trkpt lat="44.65191" lon="-0.65514">
        <ele>1</ele>
        <time>2019-05-14T12:58:26Z</time>
      </trkpt>
      <trkpt lat="44.65176" lon="-0.65523">
        <ele>1</ele>
        <time>2019-05-14T12:58:27Z</time>
      </trkpt>
      <trkpt lat="44.65173" lon="-0.65527">
        <ele>1</ele>
        <time>2019-05-14T12:58:57Z</time>
      </trkpt>
      <trkpt lat="44.65155" lon="-0.65537">
        <ele>66</ele>
        <time>2019-05-14T12:59:15Z</time>
      </trkpt>
      <trkpt lat="44.65146" lon="-0.65544">
        <ele>1</ele>
        <time>2019-05-14T12:59:16Z</time>
      </trkpt>
      <trkpt lat="44.65142" lon="-0.65547">
        <ele>2</ele>
        <time>2019-05-14T12:59:17Z</time>
      </trkpt>
      <trkpt lat="44.65056" lon="-0.65602">
        <ele>12</ele>
        <time>2019-05-14T12:59:19Z</time>
      </trkpt>
      <trkpt lat="44.64993" lon="-0.65639">
        <ele>12</ele>
        <time>2019-05-14T12:59:24Z</time>
      </trkpt>
      <trkpt lat="44.64988" lon="-0.65636">
        <ele>13</ele>
        <time>2019-05-14T12:59:26Z</time>
      </trkpt>
      <trkpt lat="44.64981" lon="-0.65625">
        <ele>14</ele>
        <time>2019-05-14T12:59:28Z</time>
      </trkpt>
      <trkpt lat="44.64973" lon="-0.65624">
        <ele>19</ele>
        <time>2019-05-14T12:59:30Z</time>
      </trkpt>
      <trkpt lat="44.64972" lon="-0.65624">
        <ele>22</ele>
        <time>2019-05-14T12:59:48Z</time>
      </trkpt>
      <trkpt lat="44.64961" lon="-0.65645">
        <ele>27</ele>
        <time>2019-05-14T12:59:57Z</time>
      </trkpt>
      <trkpt lat="44.64955" lon="-0.65649">
        <ele>35</ele>
        <time>2019-05-14T13:00:00Z</time>
      </trkpt>
      <trkpt lat="44.64949" lon="-0.65654">
        <ele>40</ele>
        <time>2019-05-14T13:00:02Z</time>
      </trkpt>
      <trkpt lat="44.64888" lon="-0.65692">
        <ele>59</ele>
        <time>2019-05-14T13:00:03Z</time>
      </trkpt>
      <trkpt lat="44.64859" lon="-0.65711">
        <ele>62</ele>
        <time>2019-05-14T13:00:10Z</time>
      </trkpt>
      <trkpt lat="44.6485" lon="-0.65718">
        <ele>62</ele>
        <time>2019-05-14T13:00:12Z</time>
      </trkpt>
      <trkpt lat="44.64844" lon="-0.65723">
        <ele>64</ele>
        <time>2019-05-14T13:00:15Z</time>
      </trkpt>
      <trkpt lat="44.6484" lon="-0.65726">
        <ele>64</ele>
        <time>2019-05-14T13:00:17Z</time>
      </trkpt>
      <trkpt lat="44.64816" lon="-0.6574">
        <ele>67</ele>
        <time>2019-05-14T13:00:19Z</time>
      </trkpt>
      <trkpt lat="44.64809" lon="-0.65749">
        <ele>65</ele>
        <time>2019-05-14T13:00:26Z</time>
      </trkpt>
      <trkpt lat="44.64801" lon="-0.65753">
        <ele>65</ele>
        <time>2019-05-14T13:00:28Z</time>
      </trkpt>
      <trkpt lat="44.64795" lon="-0.65755">
        <ele>64</ele>
        <time>2019-05-14T13:00:29Z</time>
      </trkpt>
      <trkpt lat="44.64789" lon="-0.65757">
        <ele>64</ele>
        <time>2019-05-14T13:00:30Z</time>
      </trkpt>
      <trkpt lat="44.64775" lon="-0.65767">
        <ele>65</ele>
        <time>2019-05-14T13:00:41Z</time>
      </trkpt>
      <trkpt lat="44.64771" lon="-0.65769">
        <ele>65</ele>
        <time>2019-05-14T13:00:42Z</time>
      </trkpt>
      <trkpt lat="44.64769" lon="-0.65773">
        <ele>65</ele>
        <time>2019-05-14T13:00:44Z</time>
      </trkpt>
      <trkpt lat="44.64764" lon="-0.65775">
        <ele>65</ele>
        <time>2019-05-14T13:00:45Z</time>
      </trkpt>
      <trkpt lat="44.64735" lon="-0.65792">
        <ele>65</ele>
        <time>2019-05-14T13:00:46Z</time>
      </trkpt>
      <trkpt lat="44.64733" lon="-0.65795">
        <ele>65</ele>
        <time>2019-05-14T13:00:50Z</time>
      </trkpt>
      <trkpt lat="44.64728" lon="-0.65802">
        <ele>64</ele>
        <time>2019-05-14T13:00:54Z</time>
      </trkpt>
      <trkpt lat="44.64725" lon="-0.65804">
        <ele>64</ele>
        <time>2019-05-14T13:00:58Z</time>
      </trkpt>
      <trkpt lat="44.64721" lon="-0.65803">
        <ele>64</ele>
        <time>2019-05-14T13:00:59Z</time>
      </trkpt>
      <trkpt lat="44.64711" lon="-0.65804">
        <ele>64</ele>
        <time>2019-05-14T13:01:07Z</time>
      </trkpt>
      <trkpt lat="44.64703" lon="-0.65813">
        <ele>64</ele>
        <time>2019-05-14T13:01:10Z</time>
      </trkpt>
      <trkpt lat="44.64696" lon="-0.65814">
        <ele>58</ele>
        <time>2019-05-14T13:01:17Z</time>
      </trkpt>
      <trkpt lat="44.64698" lon="-0.65824">
        <ele>62</ele>
        <time>2019-05-14T13:01:31Z</time>
      </trkpt>
      <trkpt lat="44.64699" lon="-0.65816">
        <ele>70</ele>
        <time>2019-05-14T13:02:02Z</time>
      </trkpt>
      <trkpt lat="44.64698" lon="-0.65817">
        <ele>64</ele>
        <time>2019-05-14T13:02:04Z</time>
      </trkpt>
      <trkpt lat="44.64699" lon="-0.65822">
        <ele>61</ele>
        <time>2019-05-14T13:02:09Z</time>
      </trkpt>
      <trkpt lat="44.64699" lon="-0.65817">
        <ele>63</ele>
        <time>2019-05-14T13:02:10Z</time>
      </trkpt>
      <trkpt lat="44.64697" lon="-0.65818">
        <ele>66</ele>
        <time>2019-05-14T13:02:17Z</time>
      </trkpt>
      <trkpt lat="44.64693" lon="-0.65818">
        <ele>66</ele>
        <time>2019-05-14T13:02:23Z</time>
      </trkpt>
      <trkpt lat="44.64685" lon="-0.65825">
        <ele>66</ele>
        <time>2019-05-14T13:02:26Z</time>
      </trkpt>
      <trkpt lat="44.64683" lon="-0.65826">
        <ele>65</ele>
        <time>2019-05-14T13:02:36Z</time>
      </trkpt>
      <trkpt lat="44.64659" lon="-0.6584">
        <ele>64</ele>
        <time>2019-05-14T13:02:44Z</time>
      </trkpt>
      <trkpt lat="44.64641" lon="-0.65858">
        <ele>63</ele>
        <time>2019-05-14T13:02:49Z</time>
      </trkpt>
      <trkpt lat="44.64629" lon="-0.65863">
        <ele>63</ele>
        <time>2019-05-14T13:02:51Z</time>
      </trkpt>
      <trkpt lat="44.64585" lon="-0.65887">
        <ele>62</ele>
        <time>2019-05-14T13:02:54Z</time>
      </trkpt>
      <trkpt lat="44.64549" lon="-0.65912">
        <ele>63</ele>
        <time>2019-05-14T13:03:24Z</time>
      </trkpt>
      <trkpt lat="44.64524" lon="-0.65927">
        <ele>63</ele>
        <time>2019-05-14T13:03:44Z</time>
      </trkpt>
      <trkpt lat="44.64519" lon="-0.65938">
        <ele>63</ele>
        <time>2019-05-14T13:03:46Z</time>
      </trkpt>
      <trkpt lat="44.64504" lon="-0.65944">
        <ele>62</ele>
        <time>2019-05-14T13:03:56Z</time>
      </trkpt>
      <trkpt lat="44.64376" lon="-0.66024">
        <ele>63</ele>
        <time>2019-05-14T13:03:57Z</time>
      </trkpt>
      <trkpt lat="44.64309" lon="-0.66067">
        <ele>62</ele>
        <time>2019-05-14T13:03:58Z</time>
      </trkpt>
      <trkpt lat="44.64305" lon="-0.6607">
        <ele>62</ele>
        <time>2019-05-14T13:04:28Z</time>
      </trkpt>
      <trkpt lat="44.64276" lon="-0.66085">
        <ele>63</ele>
        <time>2019-05-14T13:04:35Z</time>
      </trkpt>
      <trkpt lat="44.64274" lon="-0.66085">
        <ele>63</ele>
        <time>2019-05-14T13:04:36Z</time>
      </trkpt>
      <trkpt lat="44.64272" lon="-0.66083">
        <ele>63</ele>
        <time>2019-05-14T13:04:49Z</time>
      </trkpt>
      <trkpt lat="44.64188" lon="-0.65968">
        <ele>63</ele>
        <time>2019-05-14T13:04:51Z</time>
      </trkpt>
      <trkpt lat="44.64166" lon="-0.6594">
        <ele>64</ele>
        <time>2019-05-14T13:05:00Z</time>
      </trkpt>
      <trkpt lat="44.64162" lon="-0.65937">
        <ele>64</ele>
        <time>2019-05-14T13:05:01Z</time>
      </trkpt>
      <trkpt lat="44.64128" lon="-0.65888">
        <ele>65</ele>
        <time>2019-05-14T13:05:03Z</time>
      </trkpt>
      <trkpt lat="44.64121" lon="-0.65882">
        <ele>64</ele>
        <time>2019-05-14T13:05:04Z</time>
      </trkpt>
      <trkpt lat="44.64099" lon="-0.65845">
        <ele>63</ele>
        <time>2019-05-14T13:05:37Z</time>
      </trkpt>
      <trkpt lat="44.64096" lon="-0.65841">
        <ele>63</ele>
        <time>2019-05-14T13:05:40Z</time>
      </trkpt>
      <trkpt lat="44.6409" lon="-0.65835">
        <ele>63</ele>
        <time>2019-05-14T13:05:41Z</time>
      </trkpt>
      <trkpt lat="44.64088" lon="-0.65831">
        <ele>63</ele>
        <time>2019-05-14T13:05:45Z</time>
      </trkpt>
      <trkpt lat="44.64006" lon="-0.6572">
        <ele>64</ele>
        <time>2019-05-14T13:05:46Z</time>
      </trkpt>
      <trkpt lat="44.63995" lon="-0.6571">
        <ele>65</ele>
        <time>2019-05-14T13:05:49Z</time>
      </trkpt>
      <trkpt lat="44.63992" lon="-0.65708">
        <ele>66</ele>
        <time>2019-05-14T13:06:19Z</time>
      </trkpt>
      <trkpt lat="44.63981" lon="-0.65694">
        <ele>61</ele>
        <time>2019-05-14T13:06:28Z</time>
      </trkpt>
      <trkpt lat="44.63978" lon="-0.65686">
        <ele>62</ele>
        <time>2019-05-14T13:06:31Z</time>
      </trkpt>
      <trkpt lat="44.63973" lon="-0.65667">
        <ele>66</ele>
        <time>2019-05-14T13:06:51Z</time>
      </trkpt>
      <trkpt lat="44.63884" lon="-0.65562">
        <ele>64</ele>
        <time>2019-05-14T13:06:53Z</time>
      </trkpt>
      <trkpt lat="44.63859" lon="-0.6553">
        <ele>64</ele>
        <time>2019-05-14T13:06:54Z</time>
      </trkpt>
      <trkpt lat="44.63851" lon="-0.65518">
        <ele>64</ele>
        <time>2019-05-14T13:07:23Z</time>
      </trkpt>
      <trkpt lat="44.63794" lon="-0.65442">
        <ele>64</ele>
        <time>2019-05-14T13:07:24Z</time>
      </trkpt>
      <trkpt lat="44.63786" lon="-0.65438">
        <ele>64</ele>
        <time>2019-05-14T13:07:25Z</time>
      </trkpt>
      <trkpt lat="44.63784" lon="-0.65435">
        <ele>64</ele>
        <time>2019-05-14T13:07:30Z</time>
      </trkpt>
      <trkpt lat="44.63706" lon="-0.6533">
        <ele>64</ele>
        <time>2019-05-14T13:07:31Z</time>
      </trkpt>
      <trkpt lat="44.63704" lon="-0.65328">
        <ele>64</ele>
        <time>2019-05-14T13:07:37Z</time>
      </trkpt>
      <trkpt lat="44.63702" lon="-0.65326">
        <ele>63</ele>
        <time>2019-05-14T13:07:41Z</time>
      </trkpt>
      <trkpt lat="44.63689" lon="-0.65307">
        <ele>63</ele>
        <time>2019-05-14T13:07:44Z</time>
      </trkpt>
      <trkpt lat="44.63686" lon="-0.65304">
        <ele>63</ele>
        <time>2019-05-14T13:07:47Z</time>
      </trkpt>
      <trkpt lat="44.6367" lon="-0.65281">
        <ele>63</ele>
        <time>2019-05-14T13:07:48Z</time>
      </trkpt>
      <trkpt lat="44.63662" lon="-0.65273">
        <ele>62</ele>
        <time>2019-05-14T13:08:18Z</time>
      </trkpt>
      <trkpt lat="44.63653" lon="-0.65256">
        <ele>63</ele>
        <time>2019-05-14T13:08:33Z</time>
      </trkpt>
      <trkpt lat="44.63644" lon="-0.65245">
        <ele>64</ele>
        <time>2019-05-14T13:08:34Z</time>
      </trkpt>
      <trkpt lat="44.6364" lon="-0.65241">
        <ele>63</ele>
        <time>2019-05-14T13:08:35Z</time>
      </trkpt>
      <trkpt lat="44.63562" lon="-0.65135">
        <ele>65</ele>
        <time>2019-05-14T13:08:40Z</time>
      </trkpt>
      <trkpt lat="44.63525" lon="-0.65083">
        <ele>64</ele>
        <time>2019-05-14T13:08:41Z</time>
      </trkpt>
      <trkpt lat="44.63522" lon="-0.6508">
        <ele>64</ele>
        <time>2019-05-14T13:08:43Z</time>
      </trkpt>
      <trkpt lat="44.63519" lon="-0.65078">
        <ele>64</ele>
        <time>2019-05-14T13:08:52Z</time>
      </trkpt>
      <trkpt lat="44.63508" lon="-0.65061">
        <ele>63</ele>
        <time>2019-05-14T13:08:55Z</time>
      </trkpt>
      <trkpt lat="44.63506" lon="-0.65058">
        <ele>63</ele>
        <time>2019-05-14T13:08:56Z</time>
      </trkpt>
      <trkpt lat="44.63505" lon="-0.65057">
        <ele>64</ele>
        <time>2019-05-14T13:08:59Z</time>
      </trkpt>
      <trkpt lat="44.63504" lon="-0.65053">
        <ele>64</ele>
        <time>2019-05-14T13:09:02Z</time>
      </trkpt>
      <trkpt lat="44.635" lon="-0.65052">
        <ele>66</ele>
        <time>2019-05-14T13:09:04Z</time>
      </trkpt>
      <trkpt lat="44.63497" lon="-0.65052">
        <ele>67</ele>
        <time>2019-05-14T13:09:13Z</time>
      </trkpt>
      <trkpt lat="44.63498" lon="-0.65049">
        <ele>67</ele>
        <time>2019-05-14T13:09:19Z</time>
      </trkpt>
      <trkpt lat="44.63495" lon="-0.65044">
        <ele>67</ele>
        <time>2019-05-14T13:09:30Z</time>
      </trkpt>
      <trkpt lat="44.63492" lon="-0.65044">
        <ele>67</ele>
        <time>2019-05-14T13:09:33Z</time>
      </trkpt>
      <trkpt lat="44.63471" lon="-0.65016">
        <ele>68</ele>
        <time>2019-05-14T13:09:46Z</time>
      </trkpt>
      <trkpt lat="44.63455" lon="-0.6499">
        <ele>66</ele>
        <time>2019-05-14T13:09:49Z</time>
      </trkpt>
      <trkpt lat="44.63424" lon="-0.64951">
        <ele>64</ele>
        <time>2019-05-14T13:10:10Z</time>
      </trkpt>
      <trkpt lat="44.63419" lon="-0.64939">
        <ele>65</ele>
        <time>2019-05-14T13:10:13Z</time>
      </trkpt>
      <trkpt lat="44.63382" lon="-0.64894">
        <ele>64</ele>
        <time>2019-05-14T13:10:15Z</time>
      </trkpt>
      <trkpt lat="44.63372" lon="-0.64884">
        <ele>63</ele>
        <time>2019-05-14T13:10:22Z</time>
      </trkpt>
      <trkpt lat="44.6333" lon="-0.64814">
        <ele>63</ele>
        <time>2019-05-14T13:10:53Z</time>
      </trkpt>
      <trkpt lat="44.63323" lon="-0.64813">
        <ele>63</ele>
        <time>2019-05-14T13:11:23Z</time>
      </trkpt>
      <trkpt lat="44.63317" lon="-0.64811">
        <ele>63</ele>
        <time>2019-05-14T13:11:54Z</time>
      </trkpt>
      <trkpt lat="44.63305" lon="-0.64793">
        <ele>64</ele>
        <time>2019-05-14T13:11:58Z</time>
      </trkpt>
      <trkpt lat="44.63244" lon="-0.6471">
        <ele>63</ele>
        <time>2019-05-14T13:12:01Z</time>
      </trkpt>
      <trkpt lat="44.63192" lon="-0.64642">
        <ele>63</ele>
        <time>2019-05-14T13:12:04Z</time>
      </trkpt>
      <trkpt lat="44.63141" lon="-0.64575">
        <ele>62</ele>
        <time>2019-05-14T13:12:06Z</time>
      </trkpt>
      <trkpt lat="44.63136" lon="-0.64567">
        <ele>61</ele>
        <time>2019-05-14T13:12:16Z</time>
      </trkpt>
      <trkpt lat="44.63132" lon="-0.64562">
        <ele>61</ele>
        <time>2019-05-14T13:12:25Z</time>
      </trkpt>
      <trkpt lat="44.63128" lon="-0.64556">
        <ele>62</ele>
        <time>2019-05-14T13:12:27Z</time>
      </trkpt>
      <trkpt lat="44.63125" lon="-0.64554">
        <ele>61</ele>
        <time>2019-05-14T13:12:33Z</time>
      </trkpt>
      <trkpt lat="44.63123" lon="-0.6455">
        <ele>61</ele>
        <time>2019-05-14T13:12:46Z</time>
      </trkpt>
      <trkpt lat="44.63112" lon="-0.64534">
        <ele>61</ele>
        <time>2019-05-14T13:12:51Z</time>
      </trkpt>
      <trkpt lat="44.63108" lon="-0.6453">
        <ele>62</ele>
        <time>2019-05-14T13:12:53Z</time>
      </trkpt>
      <trkpt lat="44.631" lon="-0.64518">
        <ele>63</ele>
        <time>2019-05-14T13:12:55Z</time>
      </trkpt>
      <trkpt lat="44.63081" lon="-0.64494">
        <ele>62</ele>
        <time>2019-05-14T13:13:00Z</time>
      </trkpt>
      <trkpt lat="44.63076" lon="-0.64486">
        <ele>62</ele>
        <time>2019-05-14T13:13:02Z</time>
      </trkpt>
      <trkpt lat="44.63074" lon="-0.6448">
        <ele>62</ele>
        <time>2019-05-14T13:13:07Z</time>
      </trkpt>
      <trkpt lat="44.63071" lon="-0.64474">
        <ele>62</ele>
        <time>2019-05-14T13:13:09Z</time>
      </trkpt>
      <trkpt lat="44.63064" lon="-0.64466">
        <ele>62</ele>
        <time>2019-05-14T13:13:40Z</time>
      </trkpt>
      <trkpt lat="44.6306" lon="-0.64463">
        <ele>63</ele>
        <time>2019-05-14T13:13:46Z</time>
      </trkpt>
      <trkpt lat="44.63051" lon="-0.64453">
        <ele>62</ele>
        <time>2019-05-14T13:13:49Z</time>
      </trkpt>
      <trkpt lat="44.63047" lon="-0.64449">
        <ele>62</ele>
        <time>2019-05-14T13:13:57Z</time>
      </trkpt>
      <trkpt lat="44.63" lon="-0.64383">
        <ele>62</ele>
        <time>2019-05-14T13:13:58Z</time>
      </trkpt>
      <trkpt lat="44.62992" lon="-0.64371">
        <ele>62</ele>
        <time>2019-05-14T13:14:06Z</time>
      </trkpt>
      <trkpt lat="44.62988" lon="-0.64362">
        <ele>62</ele>
        <time>2019-05-14T13:14:08Z</time>
      </trkpt>
      <trkpt lat="44.62973" lon="-0.64346">
        <ele>62</ele>
        <time>2019-05-14T13:14:09Z</time>
      </trkpt>
      <trkpt lat="44.62971" lon="-0.64341">
        <ele>62</ele>
        <time>2019-05-14T13:14:13Z</time>
      </trkpt>
      <trkpt lat="44.62957" lon="-0.64325">
        <ele>62</ele>
        <time>2019-05-14T13:14:24Z</time>
      </trkpt>
      <trkpt lat="44.62955" lon="-0.64319">
        <ele>63</ele>
        <time>2019-05-14T13:14:26Z</time>
      </trkpt>
      <trkpt lat="44.62953" lon="-0.64317">
        <ele>62</ele>
        <time>2019-05-14T13:14:42Z</time>
      </trkpt>
      <trkpt lat="44.62946" lon="-0.64309">
        <ele>63</ele>
        <time>2019-05-14T13:14:44Z</time>
      </trkpt>
      <trkpt lat="44.62927" lon="-0.64287">
        <ele>62</ele>
        <time>2019-05-14T13:15:05Z</time>
      </trkpt>
      <trkpt lat="44.62922" lon="-0.64285">
        <ele>62</ele>
        <time>2019-05-14T13:15:08Z</time>
      </trkpt>
      <trkpt lat="44.62899" lon="-0.64252">
        <ele>62</ele>
        <time>2019-05-14T13:15:20Z</time>
      </trkpt>
      <trkpt lat="44.62899" lon="-0.64247">
        <ele>62</ele>
        <time>2019-05-14T13:15:24Z</time>
      </trkpt>
      <trkpt lat="44.62865" lon="-0.64205">
        <ele>62</ele>
        <time>2019-05-14T13:15:27Z</time>
      </trkpt>
      <trkpt lat="44.62858" lon="-0.64198">
        <ele>61</ele>
        <time>2019-05-14T13:15:38Z</time>
      </trkpt>
      <trkpt lat="44.62836" lon="-0.64165">
        <ele>63</ele>
        <time>2019-05-14T13:15:41Z</time>
      </trkpt>
      <trkpt lat="44.62828" lon="-0.64156">
        <ele>63</ele>
        <time>2019-05-14T13:16:08Z</time>
      </trkpt>
      <trkpt lat="44.62823" lon="-0.64148">
        <ele>62</ele>
        <time>2019-05-14T13:16:22Z</time>
      </trkpt>
      <trkpt lat="44.62807" lon="-0.64127">
        <ele>63</ele>
        <time>2019-05-14T13:17:10Z</time>
      </trkpt>
      <trkpt lat="44.62804" lon="-0.64123">
        <ele>63</ele>
        <time>2019-05-14T13:17:36Z</time>
      </trkpt>
      <trkpt lat="44.62806" lon="-0.64125">
        <ele>61</ele>
        <time>2019-05-14T13:17:41Z</time>
      </trkpt>
      <trkpt lat="44.62807" lon="-0.64121">
        <ele>60</ele>
        <time>2019-05-14T13:17:46Z</time>
      </trkpt>
      <trkpt lat="44.62806" lon="-0.64119">
        <ele>65</ele>
        <time>2019-05-14T13:17:54Z</time>
      </trkpt>
      <trkpt lat="44.62809" lon="-0.64123">
        <ele>73</ele>
        <time>2019-05-14T13:17:57Z</time>
      </trkpt>
      <trkpt lat="44.62778" lon="-0.64102">
        <ele>63</ele>
        <time>2019-05-14T13:17:58Z</time>
      </trkpt>
      <trkpt lat="44.62784" lon="-0.641">
        <ele>37</ele>
        <time>2019-05-14T13:18:00Z</time>
      </trkpt>
      <trkpt lat="44.62793" lon="-0.64103">
        <ele>47</ele>
        <time>2019-05-14T13:18:02Z</time>
      </trkpt>
      <trkpt lat="44.62798" lon="-0.64105">
        <ele>52</ele>
        <time>2019-05-14T13:18:05Z</time>
      </trkpt>
      <trkpt lat="44.62802" lon="-0.64102">
        <ele>56</ele>
        <time>2019-05-14T13:18:07Z</time>
      </trkpt>
      <trkpt lat="44.62801" lon="-0.64095">
        <ele>61</ele>
        <time>2019-05-14T13:18:09Z</time>
      </trkpt>
      <trkpt lat="44.62797" lon="-0.64091">
        <ele>63</ele>
        <time>2019-05-14T13:18:15Z</time>
      </trkpt>
      <trkpt lat="44.62794" lon="-0.64086">
        <ele>65</ele>
        <time>2019-05-14T13:18:17Z</time>
      </trkpt>
      <trkpt lat="44.62793" lon="-0.6408">
        <ele>68</ele>
        <time>2019-05-14T13:18:36Z</time>
      </trkpt>
      <trkpt lat="44.62784" lon="-0.64095">
        <ele>65</ele>
        <time>2019-05-14T13:18:38Z</time>
      </trkpt>
      <trkpt lat="44.62772" lon="-0.64085">
        <ele>57</ele>
        <time>2019-05-14T13:18:39Z</time>
      </trkpt>
      <trkpt lat="44.62769" lon="-0.64078">
        <ele>58</ele>
        <time>2019-05-14T13:18:45Z</time>
      </trkpt>
      <trkpt lat="44.62741" lon="-0.64038">
        <ele>62</ele>
        <time>2019-05-14T13:18:53Z</time>
      </trkpt>
      <trkpt lat="44.62737" lon="-0.64035">
        <ele>63</ele>
        <time>2019-05-14T13:18:54Z</time>
      </trkpt>
      <trkpt lat="44.62735" lon="-0.64033">
        <ele>63</ele>
        <time>2019-05-14T13:18:55Z</time>
      </trkpt>
      <trkpt lat="44.62724" lon="-0.64016">
        <ele>63</ele>
        <time>2019-05-14T13:18:56Z</time>
      </trkpt>
      <trkpt lat="44.62708" lon="-0.63996">
        <ele>62</ele>
        <time>2019-05-14T13:19:21Z</time>
      </trkpt>
      <trkpt lat="44.62707" lon="-0.63992">
        <ele>62</ele>
        <time>2019-05-14T13:19:23Z</time>
      </trkpt>
      <trkpt lat="44.62705" lon="-0.63989">
        <ele>62</ele>
        <time>2019-05-14T13:19:26Z</time>
      </trkpt>
      <trkpt lat="44.62702" lon="-0.63987">
        <ele>62</ele>
        <time>2019-05-14T13:19:36Z</time>
      </trkpt>
      <trkpt lat="44.62653" lon="-0.63922">
        <ele>62</ele>
        <time>2019-05-14T13:19:38Z</time>
      </trkpt>
      <trkpt lat="44.62649" lon="-0.63918">
        <ele>62</ele>
        <time>2019-05-14T13:19:41Z</time>
      </trkpt>
      <trkpt lat="44.62644" lon="-0.6391">
        <ele>61</ele>
        <time>2019-05-14T13:20:02Z</time>
      </trkpt>
      <trkpt lat="44.62627" lon="-0.63887">
        <ele>61</ele>
        <time>2019-05-14T13:20:04Z</time>
      </trkpt>
      <trkpt lat="44.62624" lon="-0.63881">
        <ele>61</ele>
        <time>2019-05-14T13:20:11Z</time>
      </trkpt>
      <trkpt lat="44.62619" lon="-0.63873">
        <ele>61</ele>
        <time>2019-05-14T13:20:18Z</time>
      </trkpt>
      <trkpt lat="44.62584" lon="-0.63822">
        <ele>63</ele>
        <time>2019-05-14T13:20:24Z</time>
      </trkpt>
      <trkpt lat="44.6258" lon="-0.63819">
        <ele>63</ele>
        <time>2019-05-14T13:20:26Z</time>
      </trkpt>
      <trkpt lat="44.62568" lon="-0.638">
        <ele>62</ele>
        <time>2019-05-14T13:20:28Z</time>
      </trkpt>
      <trkpt lat="44.62555" lon="-0.63786">
        <ele>61</ele>
        <time>2019-05-14T13:20:32Z</time>
      </trkpt>
      <trkpt lat="44.62547" lon="-0.63774">
        <ele>62</ele>
        <time>2019-05-14T13:20:36Z</time>
      </trkpt>
      <trkpt lat="44.62544" lon="-0.63771">
        <ele>62</ele>
        <time>2019-05-14T13:20:38Z</time>
      </trkpt>
      <trkpt lat="44.62541" lon="-0.63768">
        <ele>62</ele>
        <time>2019-05-14T13:20:45Z</time>
      </trkpt>
      <trkpt lat="44.62537" lon="-0.63754">
        <ele>63</ele>
        <time>2019-05-14T13:20:50Z</time>
      </trkpt>
      <trkpt lat="44.62533" lon="-0.63744">
        <ele>63</ele>
        <time>2019-05-14T13:20:59Z</time>
      </trkpt>
      <trkpt lat="44.62529" lon="-0.63741">
        <ele>62</ele>
        <time>2019-05-14T13:21:02Z</time>
      </trkpt>
      <trkpt lat="44.6252" lon="-0.63725">
        <ele>62</ele>
        <time>2019-05-14T13:21:05Z</time>
      </trkpt>
      <trkpt lat="44.62523" lon="-0.63723">
        <ele>64</ele>
        <time>2019-05-14T13:21:06Z</time>
      </trkpt>
      <trkpt lat="44.6252" lon="-0.6372">
        <ele>66</ele>
        <time>2019-05-14T13:21:08Z</time>
      </trkpt>
      <trkpt lat="44.6252" lon="-0.63726">
        <ele>76</ele>
        <time>2019-05-14T13:21:13Z</time>
      </trkpt>
      <trkpt lat="44.62523" lon="-0.6373">
        <ele>74</ele>
        <time>2019-05-14T13:21:15Z</time>
      </trkpt>
      <trkpt lat="44.62523" lon="-0.63736">
        <ele>71</ele>
        <time>2019-05-14T13:21:18Z</time>
      </trkpt>
      <trkpt lat="44.6252" lon="-0.63736">
        <ele>69</ele>
        <time>2019-05-14T13:21:20Z</time>
      </trkpt>
      <trkpt lat="44.62509" lon="-0.63731">
        <ele>67</ele>
        <time>2019-05-14T13:21:23Z</time>
      </trkpt>
      <trkpt lat="44.62507" lon="-0.6372">
        <ele>66</ele>
        <time>2019-05-14T13:21:25Z</time>
      </trkpt>
      <trkpt lat="44.62499" lon="-0.63715">
        <ele>65</ele>
        <time>2019-05-14T13:21:27Z</time>
      </trkpt>
      <trkpt lat="44.62495" lon="-0.6371">
        <ele>62</ele>
        <time>2019-05-14T13:21:33Z</time>
      </trkpt>
      <trkpt lat="44.62485" lon="-0.63707">
        <ele>62</ele>
        <time>2019-05-14T13:21:35Z</time>
      </trkpt>
      <trkpt lat="44.62483" lon="-0.63699">
        <ele>55</ele>
        <time>2019-05-14T13:21:36Z</time>
      </trkpt>
      <trkpt lat="44.62478" lon="-0.63693">
        <ele>58</ele>
        <time>2019-05-14T13:21:37Z</time>
      </trkpt>
      <trkpt lat="44.62465" lon="-0.63668">
        <ele>64</ele>
        <time>2019-05-14T13:21:48Z</time>
      </trkpt>
      <trkpt lat="44.62462" lon="-0.63647">
        <ele>56</ele>
        <time>2019-05-14T13:21:49Z</time>
      </trkpt>
      <trkpt lat="44.6245" lon="-0.63655">
        <ele>55</ele>
        <time>2019-05-14T13:21:50Z</time>
      </trkpt>
      <trkpt lat="44.62446" lon="-0.63653">
        <ele>53</ele>
        <time>2019-05-14T13:21:53Z</time>
      </trkpt>
      <trkpt lat="44.6242" lon="-0.63616">
        <ele>58</ele>
        <time>2019-05-14T13:21:57Z</time>
      </trkpt>
      <trkpt lat="44.62418" lon="-0.63608">
        <ele>59</ele>
        <time>2019-05-14T13:21:58Z</time>
      </trkpt>
      <trkpt lat="44.62414" lon="-0.63603">
        <ele>60</ele>
        <time>2019-05-14T13:22:01Z</time>
      </trkpt>
      <trkpt lat="44.62404" lon="-0.63589">
        <ele>61</ele>
        <time>2019-05-14T13:22:05Z</time>
      </trkpt>
      <trkpt lat="44.62392" lon="-0.63568">
        <ele>66</ele>
        <time>2019-05-14T13:22:06Z</time>
      </trkpt>
      <trkpt lat="44.6239" lon="-0.63564">
        <ele>67</ele>
        <time>2019-05-14T13:22:08Z</time>
      </trkpt>
      <trkpt lat="44.62381" lon="-0.63552">
        <ele>65</ele>
        <time>2019-05-14T13:22:10Z</time>
      </trkpt>
      <trkpt lat="44.62365" lon="-0.63537">
        <ele>66</ele>
        <time>2019-05-14T13:22:14Z</time>
      </trkpt>
      <trkpt lat="44.62364" lon="-0.63532">
        <ele>66</ele>
        <time>2019-05-14T13:22:15Z</time>
      </trkpt>
      <trkpt lat="44.62361" lon="-0.6352">
        <ele>66</ele>
        <time>2019-05-14T13:22:17Z</time>
      </trkpt>
      <trkpt lat="44.62353" lon="-0.63515">
        <ele>67</ele>
        <time>2019-05-14T13:22:33Z</time>
      </trkpt>
      <trkpt lat="44.62341" lon="-0.63502">
        <ele>68</ele>
        <time>2019-05-14T13:22:35Z</time>
      </trkpt>
      <trkpt lat="44.6234" lon="-0.63498">
        <ele>67</ele>
        <time>2019-05-14T13:22:42Z</time>
      </trkpt>
      <trkpt lat="44.62338" lon="-0.6349">
        <ele>68</ele>
        <time>2019-05-14T13:22:45Z</time>
      </trkpt>
      <trkpt lat="44.62291" lon="-0.63433">
        <ele>67</ele>
        <time>2019-05-14T13:22:47Z</time>
      </trkpt>
      <trkpt lat="44.62285" lon="-0.63428">
        <ele>68</ele>
        <time>2019-05-14T13:22:48Z</time>
      </trkpt>
      <trkpt lat="44.62269" lon="-0.63406">
        <ele>65</ele>
        <time>2019-05-14T13:22:57Z</time>
      </trkpt>
      <trkpt lat="44.62264" lon="-0.63395">
        <ele>65</ele>
        <time>2019-05-14T13:23:06Z</time>
      </trkpt>
      <trkpt lat="44.62258" lon="-0.63389">
        <ele>64</ele>
        <time>2019-05-14T13:23:07Z</time>
      </trkpt>
      <trkpt lat="44.62257" lon="-0.63384">
        <ele>65</ele>
        <time>2019-05-14T13:23:23Z</time>
      </trkpt>
      <trkpt lat="44.62229" lon="-0.63352">
        <ele>65</ele>
        <time>2019-05-14T13:23:24Z</time>
      </trkpt>
      <trkpt lat="44.62204" lon="-0.63313">
        <ele>65</ele>
        <time>2019-05-14T13:23:25Z</time>
      </trkpt>
      <trkpt lat="44.62203" lon="-0.63307">
        <ele>67</ele>
        <time>2019-05-14T13:23:27Z</time>
      </trkpt>
      <trkpt lat="44.62154" lon="-0.63248">
        <ele>65</ele>
        <time>2019-05-14T13:23:38Z</time>
      </trkpt>
      <trkpt lat="44.62153" lon="-0.63242">
        <ele>66</ele>
        <time>2019-05-14T13:23:40Z</time>
      </trkpt>
      <trkpt lat="44.62152" lon="-0.63238">
        <ele>66</ele>
        <time>2019-05-14T13:23:49Z</time>
      </trkpt>
      <trkpt lat="44.62143" lon="-0.63233">
        <ele>66</ele>
        <time>2019-05-14T13:23:56Z</time>
      </trkpt>
      <trkpt lat="44.62113" lon="-0.63196">
        <ele>66</ele>
        <time>2019-05-14T13:23:58Z</time>
      </trkpt>
      <trkpt lat="44.62108" lon="-0.63187">
        <ele>65</ele>
        <time>2019-05-14T13:24:00Z</time>
      </trkpt>
      <trkpt lat="44.62079" lon="-0.63153">
        <ele>66</ele>
        <time>2019-05-14T13:24:10Z</time>
      </trkpt>
      <trkpt lat="44.62058" lon="-0.63132">
        <ele>54</ele>
        <time>2019-05-14T13:24:12Z</time>
      </trkpt>
      <trkpt lat="44.6205" lon="-0.63124">
        <ele>56</ele>
        <time>2019-05-14T13:24:20Z</time>
      </trkpt>
      <trkpt lat="44.62047" lon="-0.63114">
        <ele>59</ele>
        <time>2019-05-14T13:24:22Z</time>
      </trkpt>
      <trkpt lat="44.62016" lon="-0.63074">
        <ele>59</ele>
        <time>2019-05-14T13:24:23Z</time>
      </trkpt>
      <trkpt lat="44.62008" lon="-0.63068">
        <ele>58</ele>
        <time>2019-05-14T13:24:27Z</time>
      </trkpt>
      <trkpt lat="44.61985" lon="-0.6304">
        <ele>57</ele>
        <time>2019-05-14T13:24:29Z</time>
      </trkpt>
      <trkpt lat="44.61975" lon="-0.63038">
        <ele>55</ele>
        <time>2019-05-14T13:24:35Z</time>
      </trkpt>
      <trkpt lat="44.6197" lon="-0.63042">
        <ele>55</ele>
        <time>2019-05-14T13:24:36Z</time>
      </trkpt>
      <trkpt lat="44.61963" lon="-0.63054">
        <ele>62</ele>
        <time>2019-05-14T13:24:37Z</time>
      </trkpt>
      <trkpt lat="44.6198" lon="-0.6309">
        <ele>75</ele>
        <time>2019-05-14T13:24:38Z</time>
      </trkpt>
      <trkpt lat="44.61968" lon="-0.63089">
        <ele>123</ele>
        <time>2019-05-14T13:24:39Z</time>
      </trkpt>
      <trkpt lat="44.61959" lon="-0.63085">
        <ele>146</ele>
        <time>2019-05-14T13:24:40Z</time>
      </trkpt>
      <trkpt lat="44.61954" lon="-0.6308">
        <ele>152</ele>
        <time>2019-05-14T13:24:43Z</time>
      </trkpt>
      <trkpt lat="44.6195" lon="-0.63071">
        <ele>154</ele>
        <time>2019-05-14T13:24:44Z</time>
      </trkpt>
      <trkpt lat="44.61946" lon="-0.63059">
        <ele>152</ele>
        <time>2019-05-14T13:24:54Z</time>
      </trkpt>
      <trkpt lat="44.61943" lon="-0.63049">
        <ele>146</ele>
        <time>2019-05-14T13:24:55Z</time>
      </trkpt>
      <trkpt lat="44.61936" lon="-0.63024">
        <ele>135</ele>
        <time>2019-05-14T13:24:56Z</time>
      </trkpt>
      <trkpt lat="44.61934" lon="-0.63014">
        <ele>128</ele>
        <time>2019-05-14T13:24:58Z</time>
      </trkpt>
      <trkpt lat="44.61911" lon="-0.62932">
        <ele>88</ele>
        <time>2019-05-14T13:25:02Z</time>
      </trkpt>
      <trkpt lat="44.61912" lon="-0.62926">
        <ele>86</ele>
        <time>2019-05-14T13:25:04Z</time>
      </trkpt>
      <trkpt lat="44.61911" lon="-0.62921">
        <ele>84</ele>
        <time>2019-05-14T13:25:06Z</time>
      </trkpt>
      <trkpt lat="44.61904" lon="-0.62917">
        <ele>79</ele>
        <time>2019-05-14T13:25:08Z</time>
      </trkpt>
      <trkpt lat="44.61893" lon="-0.62909">
        <ele>76</ele>
        <time>2019-05-14T13:25:23Z</time>
      </trkpt>
      <trkpt lat="44.6189" lon="-0.62905">
        <ele>74</ele>
        <time>2019-05-14T13:26:39Z</time>
      </trkpt>
      <trkpt lat="44.6189" lon="-0.62898">
        <ele>74</ele>
        <time>2019-05-14T13:28:20Z</time>
      </trkpt>
      <trkpt lat="44.61887" lon="-0.62896">
        <ele>72</ele>
        <time>2019-05-14T13:29:15Z</time>
      </trkpt>
      <trkpt lat="44.61887" lon="-0.62895">
        <ele>70</ele>
        <time>2019-05-14T13:29:34Z</time>
      </trkpt>
      <trkpt lat="44.61886" lon="-0.62894">
        <ele>65</ele>
        <time>2019-05-14T13:29:37Z</time>
      </trkpt>
      <trkpt lat="44.61887" lon="-0.62896">
        <ele>69</ele>
        <time>2019-05-14T13:29:39Z</time>
      </trkpt>
      <trkpt lat="44.61888" lon="-0.62893">
        <ele>70</ele>
        <time>2019-05-14T13:29:49Z</time>
      </trkpt>
      <trkpt lat="44.61886" lon="-0.6289">
        <ele>70</ele>
        <time>2019-05-14T13:29:53Z</time>
      </trkpt>
      <trkpt lat="44.6189" lon="-0.62896">
        <ele>70</ele>
        <time>2019-05-14T13:29:56Z</time>
      </trkpt>
      <trkpt lat="44.61892" lon="-0.62903">
        <ele>69</ele>
        <time>2019-05-14T13:29:59Z</time>
      </trkpt>
      <trkpt lat="44.61888" lon="-0.62895">
        <ele>64</ele>
        <time>2019-05-14T13:30:01Z</time>
      </trkpt>
      <trkpt lat="44.61886" lon="-0.62899">
        <ele>60</ele>
        <time>2019-05-14T13:30:03Z</time>
      </trkpt>
      <trkpt lat="44.61882" lon="-0.62898">
        <ele>59</ele>
        <time>2019-05-14T13:30:07Z</time>
      </trkpt>
      <trkpt lat="44.6188" lon="-0.62891">
        <ele>60</ele>
        <time>2019-05-14T13:30:10Z</time>
      </trkpt>
      <trkpt lat="44.61878" lon="-0.62885">
        <ele>60</ele>
        <time>2019-05-14T13:30:12Z</time>
      </trkpt>
      <trkpt lat="44.61874" lon="-0.62881">
        <ele>62</ele>
        <time>2019-05-14T13:30:13Z</time>
      </trkpt>
      <trkpt lat="44.61856" lon="-0.62869">
        <ele>60</ele>
        <time>2019-05-14T13:30:14Z</time>
      </trkpt>
      <trkpt lat="44.61856" lon="-0.62869">
        <ele>57</ele>
        <time>2019-05-14T13:30:20Z</time>
      </trkpt>
      <trkpt lat="44.61854" lon="-0.62861">
        <ele>58</ele>
        <time>2019-05-14T13:30:26Z</time>
      </trkpt>
      <trkpt lat="44.6185" lon="-0.62857">
        <ele>57</ele>
        <time>2019-05-14T13:30:29Z</time>
      </trkpt>
      <trkpt lat="44.61848" lon="-0.62852">
        <ele>58</ele>
        <time>2019-05-14T13:30:33Z</time>
      </trkpt>
      <trkpt lat="44.61837" lon="-0.62823">
        <ele>57</ele>
        <time>2019-05-14T13:30:35Z</time>
      </trkpt>
      <trkpt lat="44.61823" lon="-0.6279">
        <ele>58</ele>
        <time>2019-05-14T13:30:37Z</time>
      </trkpt>
      <trkpt lat="44.61813" lon="-0.62776">
        <ele>60</ele>
        <time>2019-05-14T13:30:42Z</time>
      </trkpt>
      <trkpt lat="44.61805" lon="-0.62759">
        <ele>63</ele>
        <time>2019-05-14T13:30:46Z</time>
      </trkpt>
      <trkpt lat="44.61799" lon="-0.62751">
        <ele>64</ele>
        <time>2019-05-14T13:31:06Z</time>
      </trkpt>
      <trkpt lat="44.61791" lon="-0.62741">
        <ele>63</ele>
        <time>2019-05-14T13:31:07Z</time>
      </trkpt>
      <trkpt lat="44.61773" lon="-0.62718">
        <ele>58</ele>
        <time>2019-05-14T13:31:12Z</time>
      </trkpt>
      <trkpt lat="44.61759" lon="-0.62698">
        <ele>60</ele>
        <time>2019-05-14T13:31:17Z</time>
      </trkpt>
      <trkpt lat="44.61699" lon="-0.62618">
        <ele>59</ele>
        <time>2019-05-14T13:31:33Z</time>
      </trkpt>
      <trkpt lat="44.61697" lon="-0.62615">
        <ele>60</ele>
        <time>2019-05-14T13:31:34Z</time>
      </trkpt>
      <trkpt lat="44.61683" lon="-0.62593">
        <ele>61</ele>
        <time>2019-05-14T13:31:40Z</time>
      </trkpt>
      <trkpt lat="44.61668" lon="-0.62577">
        <ele>60</ele>
        <time>2019-05-14T13:31:43Z</time>
      </trkpt>
      <trkpt lat="44.6162" lon="-0.62523">
        <ele>61</ele>
        <time>2019-05-14T13:31:43Z</time>
      </trkpt>
      <trkpt lat="44.61619" lon="-0.62519">
        <ele>62</ele>
        <time>2019-05-14T13:31:44Z</time>
      </trkpt>
      <trkpt lat="44.61595" lon="-0.6249">
        <ele>63</ele>
        <time>2019-05-14T13:31:45Z</time>
      </trkpt>
      <trkpt lat="44.61582" lon="-0.62484">
        <ele>63</ele>
        <time>2019-05-14T13:31:48Z</time>
      </trkpt>
      <trkpt lat="44.6158" lon="-0.6248">
        <ele>60</ele>
        <time>2019-05-14T13:31:50Z</time>
      </trkpt>
      <trkpt lat="44.61577" lon="-0.6248">
        <ele>60</ele>
        <time>2019-05-14T13:31:51Z</time>
      </trkpt>
      <trkpt lat="44.61575" lon="-0.62479">
        <ele>60</ele>
        <time>2019-05-14T13:31:53Z</time>
      </trkpt>
      <trkpt lat="44.6157" lon="-0.62476">
        <ele>60</ele>
        <time>2019-05-14T13:31:54Z</time>
      </trkpt>
      <trkpt lat="44.61566" lon="-0.62469">
        <ele>62</ele>
        <time>2019-05-14T13:32:00Z</time>
      </trkpt>
      <trkpt lat="44.61565" lon="-0.62463">
        <ele>65</ele>
        <time>2019-05-14T13:32:01Z</time>
      </trkpt>
      <trkpt lat="44.61561" lon="-0.62453">
        <ele>68</ele>
        <time>2019-05-14T13:32:02Z</time>
      </trkpt>
      <trkpt lat="44.61558" lon="-0.62451">
        <ele>68</ele>
        <time>2019-05-14T13:32:03Z</time>
      </trkpt>
      <trkpt lat="44.61539" lon="-0.62431">
        <ele>67</ele>
        <time>2019-05-14T13:32:05Z</time>
      </trkpt>
      <trkpt lat="44.61539" lon="-0.62425">
        <ele>69</ele>
        <time>2019-05-14T13:32:06Z</time>
      </trkpt>
      <trkpt lat="44.6154" lon="-0.6242">
        <ele>74</ele>
        <time>2019-05-14T13:32:07Z</time>
      </trkpt>
      <trkpt lat="44.61536" lon="-0.62418">
        <ele>74</ele>
        <time>2019-05-14T13:32:09Z</time>
      </trkpt>
      <trkpt lat="44.6153" lon="-0.6241">
        <ele>75</ele>
        <time>2019-05-14T13:32:11Z</time>
      </trkpt>
      <trkpt lat="44.61528" lon="-0.62404">
        <ele>74</ele>
        <time>2019-05-14T13:32:20Z</time>
      </trkpt>
      <trkpt lat="44.61524" lon="-0.62401">
        <ele>74</ele>
        <time>2019-05-14T13:32:31Z</time>
      </trkpt>
      <trkpt lat="44.61515" lon="-0.62395">
        <ele>72</ele>
        <time>2019-05-14T13:32:32Z</time>
      </trkpt>
      <trkpt lat="44.61507" lon="-0.62388">
        <ele>72</ele>
        <time>2019-05-14T13:32:34Z</time>
      </trkpt>
      <trkpt lat="44.61475" lon="-0.62351">
        <ele>67</ele>
        <time>2019-05-14T13:32:36Z</time>
      </trkpt>
      <trkpt lat="44.6144" lon="-0.62302">
        <ele>67</ele>
        <time>2019-05-14T13:32:49Z</time>
      </trkpt>
      <trkpt lat="44.61438" lon="-0.62296">
        <ele>69</ele>
        <time>2019-05-14T13:33:03Z</time>
      </trkpt>
      <trkpt lat="44.61435" lon="-0.62283">
        <ele>76</ele>
        <time>2019-05-14T13:33:05Z</time>
      </trkpt>
      <trkpt lat="44.61428" lon="-0.62275">
        <ele>76</ele>
        <time>2019-05-14T13:33:07Z</time>
      </trkpt>
      <trkpt lat="44.61383" lon="-0.62226">
        <ele>70</ele>
        <time>2019-05-14T13:33:09Z</time>
      </trkpt>
      <trkpt lat="44.61335" lon="-0.62161">
        <ele>66</ele>
        <time>2019-05-14T13:33:10Z</time>
      </trkpt>
      <trkpt lat="44.6133" lon="-0.62151">
        <ele>66</ele>
        <time>2019-05-14T13:33:14Z</time>
      </trkpt>
      <trkpt lat="44.61322" lon="-0.62144">
        <ele>65</ele>
        <time>2019-05-14T13:33:18Z</time>
      </trkpt>
      <trkpt lat="44.61316" lon="-0.62135">
        <ele>65</ele>
        <time>2019-05-14T13:33:21Z</time>
      </trkpt>
      <trkpt lat="44.61313" lon="-0.62129">
        <ele>66</ele>
        <time>2019-05-14T13:33:24Z</time>
      </trkpt>
      <trkpt lat="44.61299" lon="-0.62114">
        <ele>65</ele>
        <time>2019-05-14T13:33:31Z</time>
      </trkpt>
      <trkpt lat="44.61285" lon="-0.62097">
        <ele>64</ele>
        <time>2019-05-14T13:33:34Z</time>
      </trkpt>
      <trkpt lat="44.61275" lon="-0.62084">
        <ele>64</ele>
        <time>2019-05-14T13:34:04Z</time>
      </trkpt>
      <trkpt lat="44.61265" lon="-0.62069">
        <ele>65</ele>
        <time>2019-05-14T13:34:12Z</time>
      </trkpt>
      <trkpt lat="44.61239" lon="-0.62036">
        <ele>65</ele>
        <time>2019-05-14T13:34:13Z</time>
      </trkpt>
      <trkpt lat="44.61227" lon="-0.62023">
        <ele>65</ele>
        <time>2019-05-14T13:34:14Z</time>
      </trkpt>
      <trkpt lat="44.61126" lon="-0.61881">
        <ele>64</ele>
        <time>2019-05-14T13:34:15Z</time>
      </trkpt>
      <trkpt lat="44.61109" lon="-0.61858">
        <ele>64</ele>
        <time>2019-05-14T13:34:16Z</time>
      </trkpt>
      <trkpt lat="44.61108" lon="-0.61855">
        <ele>64</ele>
        <time>2019-05-14T13:34:18Z</time>
      </trkpt>
      <trkpt lat="44.61109" lon="-0.61849">
        <ele>65</ele>
        <time>2019-05-14T13:34:23Z</time>
      </trkpt>
      <trkpt lat="44.61111" lon="-0.61846">
        <ele>66</ele>
        <time>2019-05-14T13:34:25Z</time>
      </trkpt>
      <trkpt lat="44.61112" lon="-0.61844">
        <ele>66</ele>
        <time>2019-05-14T13:34:28Z</time>
      </trkpt>
      <trkpt lat="44.61116" lon="-0.61839">
        <ele>67</ele>
        <time>2019-05-14T13:34:35Z</time>
      </trkpt>
      <trkpt lat="44.61133" lon="-0.6182">
        <ele>64</ele>
        <time>2019-05-14T13:34:37Z</time>
      </trkpt>
      <trkpt lat="44.61141" lon="-0.61822">
        <ele>64</ele>
        <time>2019-05-14T13:34:49Z</time>
      </trkpt>
      <trkpt lat="44.61156" lon="-0.61821">
        <ele>66</ele>
        <time>2019-05-14T13:34:55Z</time>
      </trkpt>
      <trkpt lat="44.61186" lon="-0.61809">
        <ele>66</ele>
        <time>2019-05-14T13:34:58Z</time>
      </trkpt>
      <trkpt lat="44.61195" lon="-0.61809">
        <ele>68</ele>
        <time>2019-05-14T13:35:06Z</time>
      </trkpt>
      <trkpt lat="44.6125" lon="-0.61782">
        <ele>67</ele>
        <time>2019-05-14T13:35:27Z</time>
      </trkpt>
      <trkpt lat="44.6128" lon="-0.61767">
        <ele>68</ele>
        <time>2019-05-14T13:35:28Z</time>
      </trkpt>
      <trkpt lat="44.61296" lon="-0.61761">
        <ele>68</ele>
        <time>2019-05-14T13:35:29Z</time>
      </trkpt>
      <trkpt lat="44.61335" lon="-0.61744">
        <ele>68</ele>
        <time>2019-05-14T13:35:30Z</time>
      </trkpt>
      <trkpt lat="44.61442" lon="-0.61699">
        <ele>66</ele>
        <time>2019-05-14T13:35:38Z</time>
      </trkpt>
      <trkpt lat="44.61448" lon="-0.61698">
        <ele>67</ele>
        <time>2019-05-14T13:35:40Z</time>
      </trkpt>
      <trkpt lat="44.61454" lon="-0.61699">
        <ele>67</ele>
        <time>2019-05-14T13:35:41Z</time>
      </trkpt>
      <trkpt lat="44.61459" lon="-0.61697">
        <ele>67</ele>
        <time>2019-05-14T13:35:53Z</time>
      </trkpt>
      <trkpt lat="44.61508" lon="-0.61663">
        <ele>68</ele>
        <time>2019-05-14T13:35:58Z</time>
      </trkpt>
      <trkpt lat="44.61517" lon="-0.61661">
        <ele>72</ele>
        <time>2019-05-14T13:36:28Z</time>
      </trkpt>
      <trkpt lat="44.6152" lon="-0.61664">
        <ele>70</ele>
        <time>2019-05-14T13:36:45Z</time>
      </trkpt>
      <trkpt lat="44.61587" lon="-0.61638">
        <ele>62</ele>
        <time>2019-05-14T13:36:47Z</time>
      </trkpt>
      <trkpt lat="44.61614" lon="-0.61628">
        <ele>65</ele>
        <time>2019-05-14T13:36:58Z</time>
      </trkpt>
      <trkpt lat="44.61775" lon="-0.61556">
        <ele>63</ele>
        <time>2019-05-14T13:37:01Z</time>
      </trkpt>
      <trkpt lat="44.61866" lon="-0.61519">
        <ele>64</ele>
        <time>2019-05-14T13:37:02Z</time>
      </trkpt>
      <trkpt lat="44.61876" lon="-0.61516">
        <ele>65</ele>
        <time>2019-05-14T13:37:06Z</time>
      </trkpt>
      <trkpt lat="44.61927" lon="-0.61491">
        <ele>63</ele>
        <time>2019-05-14T13:37:36Z</time>
      </trkpt>
      <trkpt lat="44.6194" lon="-0.61479">
        <ele>65</ele>
        <time>2019-05-14T13:37:38Z</time>
      </trkpt>
      <trkpt lat="44.61948" lon="-0.61485">
        <ele>65</ele>
        <time>2019-05-14T13:37:43Z</time>
      </trkpt>
      <trkpt lat="44.61963" lon="-0.61473">
        <ele>63</ele>
        <time>2019-05-14T13:37:44Z</time>
      </trkpt>
      <trkpt lat="44.62116" lon="-0.61409">
        <ele>69</ele>
        <time>2019-05-14T13:37:48Z</time>
      </trkpt>
      <trkpt lat="44.62127" lon="-0.61407">
        <ele>68</ele>
        <time>2019-05-14T13:37:50Z</time>
      </trkpt>
      <trkpt lat="44.62154" lon="-0.61396">
        <ele>68</ele>
        <time>2019-05-14T13:38:20Z</time>
      </trkpt>
      <trkpt lat="44.62158" lon="-0.61394">
        <ele>69</ele>
        <time>2019-05-14T13:38:21Z</time>
      </trkpt>
      <trkpt lat="44.6218" lon="-0.61385">
        <ele>71</ele>
        <time>2019-05-14T13:38:24Z</time>
      </trkpt>
      <trkpt lat="44.62189" lon="-0.61382">
        <ele>71</ele>
        <time>2019-05-14T13:38:27Z</time>
      </trkpt>
      <trkpt lat="44.62352" lon="-0.61308">
        <ele>64</ele>
        <time>2019-05-14T13:38:34Z</time>
      </trkpt>
      <trkpt lat="44.62359" lon="-0.61307">
        <ele>64</ele>
        <time>2019-05-14T13:38:36Z</time>
      </trkpt>
      <trkpt lat="44.62375" lon="-0.61298">
        <ele>64</ele>
        <time>2019-05-14T13:38:51Z</time>
      </trkpt>
      <trkpt lat="44.62389" lon="-0.61285">
        <ele>64</ele>
        <time>2019-05-14T13:38:54Z</time>
      </trkpt>
      <trkpt lat="44.62429" lon="-0.61273">
        <ele>64</ele>
        <time>2019-05-14T13:39:24Z</time>
      </trkpt>
      <trkpt lat="44.62441" lon="-0.6127">
        <ele>63</ele>
        <time>2019-05-14T13:39:27Z</time>
      </trkpt>
      <trkpt lat="44.62522" lon="-0.61234">
        <ele>62</ele>
        <time>2019-05-14T13:39:30Z</time>
      </trkpt>
      <trkpt lat="44.62538" lon="-0.61226">
        <ele>62</ele>
        <time>2019-05-14T13:39:38Z</time>
      </trkpt>
      <trkpt lat="44.62712" lon="-0.61152">
        <ele>62</ele>
        <time>2019-05-14T13:39:39Z</time>
      </trkpt>
      <trkpt lat="44.62728" lon="-0.61145">
        <ele>62</ele>
        <time>2019-05-14T13:40:09Z</time>
      </trkpt>
      <trkpt lat="44.62738" lon="-0.61135">
        <ele>54</ele>
        <time>2019-05-14T13:40:11Z</time>
      </trkpt>
      <trkpt lat="44.62792" lon="-0.61119">
        <ele>62</ele>
        <time>2019-05-14T13:40:26Z</time>
      </trkpt>
      <trkpt lat="44.62799" lon="-0.61118">
        <ele>63</ele>
        <time>2019-05-14T13:40:54Z</time>
      </trkpt>
      <trkpt lat="44.62976" lon="-0.61041">
        <ele>61</ele>
        <time>2019-05-14T13:40:57Z</time>
      </trkpt>
      <trkpt lat="44.62988" lon="-0.61036">
        <ele>61</ele>
        <time>2019-05-14T13:41:00Z</time>
      </trkpt>
      <trkpt lat="44.63079" lon="-0.60995">
        <ele>62</ele>
        <time>2019-05-14T13:41:01Z</time>
      </trkpt>
      <trkpt lat="44.63258" lon="-0.60917">
        <ele>64</ele>
        <time>2019-05-14T13:41:08Z</time>
      </trkpt>
      <trkpt lat="44.63278" lon="-0.60899">
        <ele>50</ele>
        <time>2019-05-14T13:41:09Z</time>
      </trkpt>
      <trkpt lat="44.63297" lon="-0.60908">
        <ele>55</ele>
        <time>2019-05-14T13:41:21Z</time>
      </trkpt>
      <trkpt lat="44.63302" lon="-0.60905">
        <ele>55</ele>
        <time>2019-05-14T13:41:22Z</time>
      </trkpt>
      <trkpt lat="44.63343" lon="-0.60881">
        <ele>63</ele>
        <time>2019-05-14T13:41:31Z</time>
      </trkpt>
      <trkpt lat="44.63349" lon="-0.60878">
        <ele>63</ele>
        <time>2019-05-14T13:42:01Z</time>
      </trkpt>
      <trkpt lat="44.63423" lon="-0.60847">
        <ele>64</ele>
        <time>2019-05-14T13:42:17Z</time>
      </trkpt>
      <trkpt lat="44.6343" lon="-0.60842">
        <ele>67</ele>
        <time>2019-05-14T13:42:19Z</time>
      </trkpt>
      <trkpt lat="44.63482" lon="-0.60821">
        <ele>66</ele>
        <time>2019-05-14T13:42:31Z</time>
      </trkpt>
      <trkpt lat="44.63658" lon="-0.60748">
        <ele>60</ele>
        <time>2019-05-14T13:42:34Z</time>
      </trkpt>
      <trkpt lat="44.63756" lon="-0.60706">
        <ele>60</ele>
        <time>2019-05-14T13:42:40Z</time>
      </trkpt>
      <trkpt lat="44.63769" lon="-0.60705">
        <ele>60</ele>
        <time>2019-05-14T13:42:41Z</time>
      </trkpt>
      <trkpt lat="44.63831" lon="-0.60673">
        <ele>58</ele>
        <time>2019-05-14T13:42:42Z</time>
      </trkpt>
      <trkpt lat="44.63846" lon="-0.60663">
        <ele>58</ele>
        <time>2019-05-14T13:42:43Z</time>
      </trkpt>
      <trkpt lat="44.63876" lon="-0.60632">
        <ele>61</ele>
        <time>2019-05-14T13:42:45Z</time>
      </trkpt>
      <trkpt lat="44.63881" lon="-0.60631">
        <ele>61</ele>
        <time>2019-05-14T13:42:46Z</time>
      </trkpt>
      <trkpt lat="44.63885" lon="-0.60634">
        <ele>60</ele>
        <time>2019-05-14T13:42:47Z</time>
      </trkpt>
      <trkpt lat="44.63887" lon="-0.60638">
        <ele>60</ele>
        <time>2019-05-14T13:42:48Z</time>
      </trkpt>
      <trkpt lat="44.63892" lon="-0.60639">
        <ele>59</ele>
        <time>2019-05-14T13:42:49Z</time>
      </trkpt>
      <trkpt lat="44.63893" lon="-0.60642">
        <ele>59</ele>
        <time>2019-05-14T13:42:51Z</time>
      </trkpt>
      <trkpt lat="44.63894" lon="-0.60647">
        <ele>59</ele>
        <time>2019-05-14T13:42:52Z</time>
      </trkpt>
      <trkpt lat="44.63892" lon="-0.60651">
        <ele>58</ele>
        <time>2019-05-14T13:42:56Z</time>
      </trkpt>
      <trkpt lat="44.6389" lon="-0.60654">
        <ele>58</ele>
        <time>2019-05-14T13:42:58Z</time>
      </trkpt>
      <trkpt lat="44.63887" lon="-0.60657">
        <ele>58</ele>
        <time>2019-05-14T13:43:00Z</time>
      </trkpt>
      <trkpt lat="44.63885" lon="-0.60662">
        <ele>57</ele>
        <time>2019-05-14T13:43:18Z</time>
      </trkpt>
      <trkpt lat="44.63882" lon="-0.60677">
        <ele>57</ele>
        <time>2019-05-14T13:43:22Z</time>
      </trkpt>
      <trkpt lat="44.63883" lon="-0.60684">
        <ele>57</ele>
        <time>2019-05-14T13:43:56Z</time>
      </trkpt>
      <trkpt lat="44.63884" lon="-0.60691">
        <ele>58</ele>
        <time>2019-05-14T13:44:02Z</time>
      </trkpt>
      <trkpt lat="44.63887" lon="-0.60692">
        <ele>58</ele>
        <time>2019-05-14T13:44:04Z</time>
      </trkpt>
      <trkpt lat="44.6389" lon="-0.60694">
        <ele>56</ele>
        <time>2019-05-14T13:44:09Z</time>
      </trkpt>
      <trkpt lat="44.63889" lon="-0.60691">
        <ele>56</ele>
        <time>2019-05-14T13:44:24Z</time>
      </trkpt>
      <trkpt lat="44.63888" lon="-0.60693">
        <ele>56</ele>
        <time>2019-05-14T13:44:29Z</time>
      </trkpt>
      <trkpt lat="44.63884" lon="-0.60692">
        <ele>56</ele>
        <time>2019-05-14T13:44:49Z</time>
      </trkpt>
      <trkpt lat="44.63897" lon="-0.60693">
        <ele>57</ele>
        <time>2019-05-14T13:45:33Z</time>
      </trkpt>
      <trkpt lat="44.63892" lon="-0.60693">
        <ele>58</ele>
        <time>2019-05-14T13:45:37Z</time>
      </trkpt>
      <trkpt lat="44.63893" lon="-0.60689">
        <ele>58</ele>
        <time>2019-05-14T13:45:40Z</time>
      </trkpt>
      <trkpt lat="44.63895" lon="-0.60692">
        <ele>54</ele>
        <time>2019-05-14T13:45:45Z</time>
      </trkpt>
      <trkpt lat="44.63895" lon="-0.60696">
        <ele>58</ele>
        <time>2019-05-14T13:45:47Z</time>
      </trkpt>
      <trkpt lat="44.6389" lon="-0.60695">
        <ele>58</ele>
        <time>2019-05-14T13:45:51Z</time>
      </trkpt>
      <trkpt lat="44.63888" lon="-0.60694">
        <ele>58</ele>
        <time>2019-05-14T13:45:56Z</time>
      </trkpt>
      <trkpt lat="44.63886" lon="-0.60692">
        <ele>57</ele>
        <time>2019-05-14T13:46:02Z</time>
      </trkpt>
      <trkpt lat="44.63885" lon="-0.60696">
        <ele>58</ele>
        <time>2019-05-14T13:46:10Z</time>
      </trkpt>
      <trkpt lat="44.63886" lon="-0.60705">
        <ele>57</ele>
        <time>2019-05-14T13:46:12Z</time>
      </trkpt>
      <trkpt lat="44.63884" lon="-0.60728">
        <ele>57</ele>
        <time>2019-05-14T13:46:24Z</time>
      </trkpt>
      <trkpt lat="44.63875" lon="-0.60759">
        <ele>57</ele>
        <time>2019-05-14T13:46:31Z</time>
      </trkpt>
      <trkpt lat="44.63855" lon="-0.6081">
        <ele>57</ele>
        <time>2019-05-14T13:46:34Z</time>
      </trkpt>
      <trkpt lat="44.63852" lon="-0.60823">
        <ele>57</ele>
        <time>2019-05-14T13:46:35Z</time>
      </trkpt>
      <trkpt lat="44.63817" lon="-0.60917">
        <ele>59</ele>
        <time>2019-05-14T13:46:56Z</time>
      </trkpt>
      <trkpt lat="44.63798" lon="-0.60971">
        <ele>57</ele>
        <time>2019-05-14T13:47:05Z</time>
      </trkpt>
      <trkpt lat="44.63789" lon="-0.6099">
        <ele>57</ele>
        <time>2019-05-14T13:47:07Z</time>
      </trkpt>
      <trkpt lat="44.63786" lon="-0.60997">
        <ele>57</ele>
        <time>2019-05-14T13:47:37Z</time>
      </trkpt>
      <trkpt lat="44.63732" lon="-0.61151">
        <ele>58</ele>
        <time>2019-05-14T13:47:41Z</time>
      </trkpt>
      <trkpt lat="44.63706" lon="-0.61221">
        <ele>60</ele>
        <time>2019-05-14T13:47:44Z</time>
      </trkpt>
      <trkpt lat="44.63702" lon="-0.61239">
        <ele>60</ele>
        <time>2019-05-14T13:47:50Z</time>
      </trkpt>
      <trkpt lat="44.63613" lon="-0.61479">
        <ele>58</ele>
        <time>2019-05-14T13:47:53Z</time>
      </trkpt>
      <trkpt lat="44.63605" lon="-0.61506">
        <ele>57</ele>
        <time>2019-05-14T13:47:54Z</time>
      </trkpt>
      <trkpt lat="44.63591" lon="-0.61531">
        <ele>55</ele>
        <time>2019-05-14T13:47:56Z</time>
      </trkpt>
      <trkpt lat="44.63575" lon="-0.61581">
        <ele>58</ele>
        <time>2019-05-14T13:48:26Z</time>
      </trkpt>
      <trkpt lat="44.6356" lon="-0.61601">
        <ele>53</ele>
        <time>2019-05-14T13:48:30Z</time>
      </trkpt>
      <trkpt lat="44.63567" lon="-0.61606">
        <ele>57</ele>
        <time>2019-05-14T13:48:34Z</time>
      </trkpt>
      <trkpt lat="44.63559" lon="-0.61618">
        <ele>58</ele>
        <time>2019-05-14T13:48:37Z</time>
      </trkpt>
      <trkpt lat="44.63479" lon="-0.61851">
        <ele>60</ele>
        <time>2019-05-14T13:49:07Z</time>
      </trkpt>
      <trkpt lat="44.63467" lon="-0.61884">
        <ele>59</ele>
        <time>2019-05-14T13:49:32Z</time>
      </trkpt>
      <trkpt lat="44.63458" lon="-0.61913">
        <ele>54</ele>
        <time>2019-05-14T13:49:36Z</time>
      </trkpt>
      <trkpt lat="44.63446" lon="-0.61937">
        <ele>56</ele>
        <time>2019-05-14T13:49:38Z</time>
      </trkpt>
      <trkpt lat="44.63362" lon="-0.6217">
        <ele>59</ele>
        <time>2019-05-14T13:49:40Z</time>
      </trkpt>
      <trkpt lat="44.63293" lon="-0.6236">
        <ele>61</ele>
        <time>2019-05-14T13:49:58Z</time>
      </trkpt>
      <trkpt lat="44.6328" lon="-0.62391">
        <ele>60</ele>
        <time>2019-05-14T13:50:00Z</time>
      </trkpt>
      <trkpt lat="44.63275" lon="-0.62407">
        <ele>59</ele>
        <time>2019-05-14T13:50:02Z</time>
      </trkpt>
      <trkpt lat="44.63272" lon="-0.62422">
        <ele>59</ele>
        <time>2019-05-14T13:50:03Z</time>
      </trkpt>
      <trkpt lat="44.63226" lon="-0.62543">
        <ele>60</ele>
        <time>2019-05-14T13:50:04Z</time>
      </trkpt>
      <trkpt lat="44.63236" lon="-0.62504">
        <ele>80</ele>
        <time>2019-05-14T13:50:05Z</time>
      </trkpt>
      <trkpt lat="44.63224" lon="-0.62526">
        <ele>95</ele>
        <time>2019-05-14T13:50:06Z</time>
      </trkpt>
      <trkpt lat="44.63218" lon="-0.62533">
        <ele>90</ele>
        <time>2019-05-14T13:50:07Z</time>
      </trkpt>
      <trkpt lat="44.6321" lon="-0.62542">
        <ele>88</ele>
        <time>2019-05-14T13:50:13Z</time>
      </trkpt>
      <trkpt lat="44.63201" lon="-0.6255">
        <ele>86</ele>
        <time>2019-05-14T13:50:14Z</time>
      </trkpt>
      <trkpt lat="44.63196" lon="-0.62558">
        <ele>84</ele>
        <time>2019-05-14T13:50:15Z</time>
      </trkpt>
      <trkpt lat="44.63193" lon="-0.62565">
        <ele>82</ele>
        <time>2019-05-14T13:50:28Z</time>
      </trkpt>
      <trkpt lat="44.63175" lon="-0.62605">
        <ele>82</ele>
        <time>2019-05-14T13:50:46Z</time>
      </trkpt>
      <trkpt lat="44.63171" lon="-0.62616">
        <ele>83</ele>
        <time>2019-05-14T13:50:48Z</time>
      </trkpt>
      <trkpt lat="44.63167" lon="-0.62625">
        <ele>81</ele>
        <time>2019-05-14T13:50:49Z</time>
      </trkpt>
      <trkpt lat="44.63135" lon="-0.62739">
        <ele>69</ele>
        <time>2019-05-14T13:50:51Z</time>
      </trkpt>
      <trkpt lat="44.63102" lon="-0.6288">
        <ele>66</ele>
        <time>2019-05-14T13:50:52Z</time>
      </trkpt>
      <trkpt lat="44.63108" lon="-0.62896">
        <ele>67</ele>
        <time>2019-05-14T13:50:58Z</time>
      </trkpt>
      <trkpt lat="44.63106" lon="-0.62906">
        <ele>67</ele>
        <time>2019-05-14T13:51:02Z</time>
      </trkpt>
      <trkpt lat="44.63099" lon="-0.6292">
        <ele>67</ele>
        <time>2019-05-14T13:51:05Z</time>
      </trkpt>
      <trkpt lat="44.631" lon="-0.6293">
        <ele>68</ele>
        <time>2019-05-14T13:51:06Z</time>
      </trkpt>
      <trkpt lat="44.63107" lon="-0.62975">
        <ele>67</ele>
        <time>2019-05-14T13:51:07Z</time>
      </trkpt>
      <trkpt lat="44.63101" lon="-0.63">
        <ele>69</ele>
        <time>2019-05-14T13:51:08Z</time>
      </trkpt>
      <trkpt lat="44.63106" lon="-0.63017">
        <ele>68</ele>
        <time>2019-05-14T13:51:09Z</time>
      </trkpt>
      <trkpt lat="44.63102" lon="-0.63024">
        <ele>68</ele>
        <time>2019-05-14T13:51:16Z</time>
      </trkpt>
      <trkpt lat="44.63098" lon="-0.6303">
        <ele>68</ele>
        <time>2019-05-14T13:51:19Z</time>
      </trkpt>
      <trkpt lat="44.63094" lon="-0.63035">
        <ele>68</ele>
        <time>2019-05-14T13:51:21Z</time>
      </trkpt>
      <trkpt lat="44.6309" lon="-0.63038">
        <ele>69</ele>
        <time>2019-05-14T13:51:27Z</time>
      </trkpt>
      <trkpt lat="44.63062" lon="-0.63037">
        <ele>70</ele>
        <time>2019-05-14T13:51:28Z</time>
      </trkpt>
      <trkpt lat="44.63058" lon="-0.63039">
        <ele>70</ele>
        <time>2019-05-14T13:51:30Z</time>
      </trkpt>
      <trkpt lat="44.63053" lon="-0.63038">
        <ele>70</ele>
        <time>2019-05-14T13:51:32Z</time>
      </trkpt>
      <trkpt lat="44.63034" lon="-0.6304">
        <ele>69</ele>
        <time>2019-05-14T13:51:42Z</time>
      </trkpt>
      <trkpt lat="44.63032" lon="-0.63045">
        <ele>69</ele>
        <time>2019-05-14T13:51:45Z</time>
      </trkpt>
      <trkpt lat="44.63028" lon="-0.63046">
        <ele>69</ele>
        <time>2019-05-14T13:51:51Z</time>
      </trkpt>
      <trkpt lat="44.63023" lon="-0.63046">
        <ele>70</ele>
        <time>2019-05-14T13:51:53Z</time>
      </trkpt>
      <trkpt lat="44.63004" lon="-0.63056">
        <ele>66</ele>
        <time>2019-05-14T13:51:55Z</time>
      </trkpt>
      <trkpt lat="44.63" lon="-0.63056">
        <ele>65</ele>
        <time>2019-05-14T13:52:04Z</time>
      </trkpt>
      <trkpt lat="44.6301" lon="-0.63064">
        <ele>63</ele>
        <time>2019-05-14T13:52:08Z</time>
      </trkpt>
      <trkpt lat="44.63018" lon="-0.63058">
        <ele>63</ele>
        <time>2019-05-14T13:52:10Z</time>
      </trkpt>
      <trkpt lat="44.63023" lon="-0.63069">
        <ele>63</ele>
        <time>2019-05-14T13:52:12Z</time>
      </trkpt>
      <trkpt lat="44.63021" lon="-0.63076">
        <ele>67</ele>
        <time>2019-05-14T13:52:22Z</time>
      </trkpt>
      <trkpt lat="44.63023" lon="-0.63083">
        <ele>70</ele>
        <time>2019-05-14T13:52:32Z</time>
      </trkpt>
      <trkpt lat="44.63022" lon="-0.63089">
        <ele>71</ele>
        <time>2019-05-14T13:52:50Z</time>
      </trkpt>
      <trkpt lat="44.63017" lon="-0.63088">
        <ele>71</ele>
        <time>2019-05-14T13:53:08Z</time>
      </trkpt>
      <trkpt lat="44.63021" lon="-0.63087">
        <ele>73</ele>
        <time>2019-05-14T13:53:33Z</time>
      </trkpt>
      <trkpt lat="44.63022" lon="-0.63089">
        <ele>74</ele>
        <time>2019-05-14T13:53:50Z</time>
      </trkpt>
      <trkpt lat="44.63023" lon="-0.63095">
        <ele>75</ele>
        <time>2019-05-14T13:55:10Z</time>
      </trkpt>
      <trkpt lat="44.63021" lon="-0.63094">
        <ele>77</ele>
        <time>2019-05-14T13:55:47Z</time>
      </trkpt>
      <trkpt lat="44.63018" lon="-0.63094">
        <ele>75</ele>
        <time>2019-05-14T13:56:15Z</time>
      </trkpt>
      <trkpt lat="44.6302" lon="-0.63095">
        <ele>72</ele>
        <time>2019-05-14T13:56:30Z</time>
      </trkpt>
      <trkpt lat="44.63019" lon="-0.63096">
        <ele>66</ele>
        <time>2019-05-14T13:56:32Z</time>
      </trkpt>
      <trkpt lat="44.63019" lon="-0.63092">
        <ele>65</ele>
        <time>2019-05-14T13:56:34Z</time>
      </trkpt>
      <trkpt lat="44.63021" lon="-0.63094">
        <ele>67</ele>
        <time>2019-05-14T13:56:36Z</time>
      </trkpt>
      <trkpt lat="44.63022" lon="-0.63091">
        <ele>66</ele>
        <time>2019-05-14T13:56:39Z</time>
      </trkpt>
      <trkpt lat="44.63025" lon="-0.63092">
        <ele>64</ele>
        <time>2019-05-14T13:56:42Z</time>
      </trkpt>
      <trkpt lat="44.63027" lon="-0.63092">
        <ele>63</ele>
        <time>2019-05-14T13:56:47Z</time>
      </trkpt>
      <trkpt lat="44.6303" lon="-0.63091">
        <ele>63</ele>
        <time>2019-05-14T13:56:49Z</time>
      </trkpt>
      <trkpt lat="44.63033" lon="-0.63089">
        <ele>62</ele>
        <time>2019-05-14T13:56:51Z</time>
      </trkpt>
      <trkpt lat="44.63036" lon="-0.6309">
        <ele>62</ele>
        <time>2019-05-14T13:56:53Z</time>
      </trkpt>
      <trkpt lat="44.6304" lon="-0.63088">
        <ele>64</ele>
        <time>2019-05-14T13:57:00Z</time>
      </trkpt>
      <trkpt lat="44.63043" lon="-0.63085">
        <ele>66</ele>
        <time>2019-05-14T13:57:14Z</time>
      </trkpt>
      <trkpt lat="44.63044" lon="-0.6308">
        <ele>67</ele>
        <time>2019-05-14T13:57:15Z</time>
      </trkpt>
      <trkpt lat="44.63047" lon="-0.63077">
        <ele>67</ele>
        <time>2019-05-14T13:57:16Z</time>
      </trkpt>
      <trkpt lat="44.63056" lon="-0.63077">
        <ele>64</ele>
        <time>2019-05-14T13:57:17Z</time>
      </trkpt>
      <trkpt lat="44.63096" lon="-0.6308">
        <ele>62</ele>
        <time>2019-05-14T13:57:18Z</time>
      </trkpt>
      <trkpt lat="44.631" lon="-0.6308">
        <ele>61</ele>
        <time>2019-05-14T13:57:19Z</time>
      </trkpt>
      <trkpt lat="44.63104" lon="-0.63078">
        <ele>61</ele>
        <time>2019-05-14T13:57:20Z</time>
      </trkpt>
      <trkpt lat="44.63107" lon="-0.63074">
        <ele>60</ele>
        <time>2019-05-14T13:57:21Z</time>
      </trkpt>
      <trkpt lat="44.6311" lon="-0.63071">
        <ele>60</ele>
        <time>2019-05-14T13:57:26Z</time>
      </trkpt>
      <trkpt lat="44.63113" lon="-0.63067">
        <ele>60</ele>
        <time>2019-05-14T13:57:29Z</time>
      </trkpt>
      <trkpt lat="44.63115" lon="-0.63062">
        <ele>60</ele>
        <time>2019-05-14T13:57:30Z</time>
      </trkpt>
      <trkpt lat="44.63116" lon="-0.63057">
        <ele>60</ele>
        <time>2019-05-14T13:57:37Z</time>
      </trkpt>
      <trkpt lat="44.63116" lon="-0.63026">
        <ele>59</ele>
        <time>2019-05-14T13:57:38Z</time>
      </trkpt>
      <trkpt lat="44.6311" lon="-0.63016">
        <ele>65</ele>
        <time>2019-05-14T13:57:47Z</time>
      </trkpt>
      <trkpt lat="44.63113" lon="-0.63006">
        <ele>65</ele>
        <time>2019-05-14T13:58:04Z</time>
      </trkpt>
      <trkpt lat="44.6311" lon="-0.62967">
        <ele>63</ele>
        <time>2019-05-14T13:58:11Z</time>
      </trkpt>
      <trkpt lat="44.63109" lon="-0.62961">
        <ele>64</ele>
        <time>2019-05-14T13:58:14Z</time>
      </trkpt>
      <trkpt lat="44.6311" lon="-0.62902">
        <ele>65</ele>
        <time>2019-05-14T13:58:44Z</time>
      </trkpt>
      <trkpt lat="44.63134" lon="-0.62792">
        <ele>60</ele>
        <time>2019-05-14T13:59:14Z</time>
      </trkpt>
      <trkpt lat="44.63147" lon="-0.62748">
        <ele>60</ele>
        <time>2019-05-14T13:59:31Z</time>
      </trkpt>
      <trkpt lat="44.6315" lon="-0.62727">
        <ele>63</ele>
        <time>2019-05-14T13:59:33Z</time>
      </trkpt>
      <trkpt lat="44.63223" lon="-0.62545">
        <ele>59</ele>
        <time>2019-05-14T13:59:40Z</time>
      </trkpt>
      <trkpt lat="44.63292" lon="-0.62348">
        <ele>59</ele>
        <time>2019-05-14T13:59:42Z</time>
      </trkpt>
      <trkpt lat="44.63332" lon="-0.62237">
        <ele>58</ele>
        <time>2019-05-14T14:00:12Z</time>
      </trkpt>
      <trkpt lat="44.63337" lon="-0.62223">
        <ele>58</ele>
        <time>2019-05-14T14:00:42Z</time>
      </trkpt>
      <trkpt lat="44.63354" lon="-0.62178">
        <ele>59</ele>
        <time>2019-05-14T14:00:44Z</time>
      </trkpt>
      <trkpt lat="44.63358" lon="-0.62164">
        <ele>59</ele>
        <time>2019-05-14T14:00:47Z</time>
      </trkpt>
      <trkpt lat="44.63431" lon="-0.61967">
        <ele>61</ele>
        <time>2019-05-14T14:01:07Z</time>
      </trkpt>
      <trkpt lat="44.63506" lon="-0.61763">
        <ele>58</ele>
        <time>2019-05-14T14:01:09Z</time>
      </trkpt>
      <trkpt lat="44.63511" lon="-0.6175">
        <ele>58</ele>
        <time>2019-05-14T14:01:30Z</time>
      </trkpt>
      <trkpt lat="44.63519" lon="-0.6173">
        <ele>59</ele>
        <time>2019-05-14T14:01:31Z</time>
      </trkpt>
      <trkpt lat="44.63567" lon="-0.61589">
        <ele>59</ele>
        <time>2019-05-14T14:01:39Z</time>
      </trkpt>
      <trkpt lat="44.6357" lon="-0.61574">
        <ele>59</ele>
        <time>2019-05-14T14:01:41Z</time>
      </trkpt>
      <trkpt lat="44.63623" lon="-0.61433">
        <ele>59</ele>
        <time>2019-05-14T14:01:52Z</time>
      </trkpt>
      <trkpt lat="44.63625" lon="-0.61426">
        <ele>58</ele>
        <time>2019-05-14T14:01:54Z</time>
      </trkpt>
      <trkpt lat="44.63646" lon="-0.61372">
        <ele>57</ele>
        <time>2019-05-14T14:02:11Z</time>
      </trkpt>
      <trkpt lat="44.63653" lon="-0.61359">
        <ele>56</ele>
        <time>2019-05-14T14:02:12Z</time>
      </trkpt>
      <trkpt lat="44.63678" lon="-0.61281">
        <ele>56</ele>
        <time>2019-05-14T14:02:34Z</time>
      </trkpt>
      <trkpt lat="44.63679" lon="-0.61267">
        <ele>56</ele>
        <time>2019-05-14T14:02:35Z</time>
      </trkpt>
      <trkpt lat="44.63726" lon="-0.61154">
        <ele>55</ele>
        <time>2019-05-14T14:02:52Z</time>
      </trkpt>
      <trkpt lat="44.63729" lon="-0.61148">
        <ele>55</ele>
        <time>2019-05-14T14:02:57Z</time>
      </trkpt>
      <trkpt lat="44.6378" lon="-0.60999">
        <ele>57</ele>
        <time>2019-05-14T14:03:13Z</time>
      </trkpt>
      <trkpt lat="44.63781" lon="-0.60993">
        <ele>57</ele>
        <time>2019-05-14T14:03:16Z</time>
      </trkpt>
      <trkpt lat="44.63821" lon="-0.60886">
        <ele>59</ele>
        <time>2019-05-14T14:03:17Z</time>
      </trkpt>
      <trkpt lat="44.63837" lon="-0.60857">
        <ele>61</ele>
        <time>2019-05-14T14:03:19Z</time>
      </trkpt>
      <trkpt lat="44.63874" lon="-0.60735">
        <ele>56</ele>
        <time>2019-05-14T14:03:20Z</time>
      </trkpt>
      <trkpt lat="44.63877" lon="-0.6071">
        <ele>56</ele>
        <time>2019-05-14T14:03:22Z</time>
      </trkpt>
      <trkpt lat="44.63877" lon="-0.60703">
        <ele>56</ele>
        <time>2019-05-14T14:03:23Z</time>
      </trkpt>
      <trkpt lat="44.63872" lon="-0.60691">
        <ele>56</ele>
        <time>2019-05-14T14:03:24Z</time>
      </trkpt>
      <trkpt lat="44.63869" lon="-0.60685">
        <ele>56</ele>
        <time>2019-05-14T14:03:25Z</time>
      </trkpt>
      <trkpt lat="44.63861" lon="-0.60676">
        <ele>56</ele>
        <time>2019-05-14T14:03:26Z</time>
      </trkpt>
      <trkpt lat="44.63857" lon="-0.60671">
        <ele>55</ele>
        <time>2019-05-14T14:03:27Z</time>
      </trkpt>
      <trkpt lat="44.63856" lon="-0.60666">
        <ele>55</ele>
        <time>2019-05-14T14:03:30Z</time>
      </trkpt>
      <trkpt lat="44.63855" lon="-0.60659">
        <ele>55</ele>
        <time>2019-05-14T14:03:31Z</time>
      </trkpt>
      <trkpt lat="44.63857" lon="-0.60653">
        <ele>55</ele>
        <time>2019-05-14T14:03:34Z</time>
      </trkpt>
      <trkpt lat="44.6386" lon="-0.60647">
        <ele>55</ele>
        <time>2019-05-14T14:03:36Z</time>
      </trkpt>
      <trkpt lat="44.6387" lon="-0.60637">
        <ele>55</ele>
        <time>2019-05-14T14:03:38Z</time>
      </trkpt>
      <trkpt lat="44.63876" lon="-0.60638">
        <ele>55</ele>
        <time>2019-05-14T14:03:46Z</time>
      </trkpt>
      <trkpt lat="44.63892" lon="-0.60637">
        <ele>56</ele>
        <time>2019-05-14T14:03:47Z</time>
      </trkpt>
      <trkpt lat="44.63905" lon="-0.60623">
        <ele>58</ele>
        <time>2019-05-14T14:03:49Z</time>
      </trkpt>
      <trkpt lat="44.63908" lon="-0.60618">
        <ele>68</ele>
        <time>2019-05-14T14:04:01Z</time>
      </trkpt>
      <trkpt lat="44.63947" lon="-0.60576">
        <ele>52</ele>
        <time>2019-05-14T14:04:03Z</time>
      </trkpt>
      <trkpt lat="44.63952" lon="-0.60569">
        <ele>55</ele>
        <time>2019-05-14T14:04:14Z</time>
      </trkpt>
      <trkpt lat="44.63961" lon="-0.60557">
        <ele>58</ele>
        <time>2019-05-14T14:04:18Z</time>
      </trkpt>
      <trkpt lat="44.64004" lon="-0.6048">
        <ele>64</ele>
        <time>2019-05-14T14:04:28Z</time>
      </trkpt>
      <trkpt lat="44.64012" lon="-0.60469">
        <ele>62</ele>
        <time>2019-05-14T14:04:30Z</time>
      </trkpt>
      <trkpt lat="44.6405" lon="-0.60389">
        <ele>59</ele>
        <time>2019-05-14T14:04:35Z</time>
      </trkpt>
      <trkpt lat="44.64066" lon="-0.60365">
        <ele>58</ele>
        <time>2019-05-14T14:04:38Z</time>
      </trkpt>
      <trkpt lat="44.64101" lon="-0.60293">
        <ele>56</ele>
        <time>2019-05-14T14:04:40Z</time>
      </trkpt>
      <trkpt lat="44.64106" lon="-0.60275">
        <ele>57</ele>
        <time>2019-05-14T14:04:44Z</time>
      </trkpt>
      <trkpt lat="44.64126" lon="-0.60235">
        <ele>57</ele>
        <time>2019-05-14T14:04:45Z</time>
      </trkpt>
      <trkpt lat="44.64136" lon="-0.6021">
        <ele>58</ele>
        <time>2019-05-14T14:04:51Z</time>
      </trkpt>
      <trkpt lat="44.64146" lon="-0.60196">
        <ele>56</ele>
        <time>2019-05-14T14:04:54Z</time>
      </trkpt>
      <trkpt lat="44.64164" lon="-0.60168">
        <ele>55</ele>
        <time>2019-05-14T14:05:07Z</time>
      </trkpt>
      <trkpt lat="44.64171" lon="-0.60164">
        <ele>55</ele>
        <time>2019-05-14T14:05:12Z</time>
      </trkpt>
      <trkpt lat="44.642" lon="-0.60121">
        <ele>56</ele>
        <time>2019-05-14T14:05:39Z</time>
      </trkpt>
      <trkpt lat="44.64216" lon="-0.60103">
        <ele>57</ele>
        <time>2019-05-14T14:05:40Z</time>
      </trkpt>
      <trkpt lat="44.64287" lon="-0.6004">
        <ele>59</ele>
        <time>2019-05-14T14:05:41Z</time>
      </trkpt>
      <trkpt lat="44.64319" lon="-0.60019">
        <ele>60</ele>
        <time>2019-05-14T14:05:42Z</time>
      </trkpt>
      <trkpt lat="44.64452" lon="-0.59894">
        <ele>53</ele>
        <time>2019-05-14T14:05:43Z</time>
      </trkpt>
      <trkpt lat="44.64454" lon="-0.59889">
        <ele>54</ele>
        <time>2019-05-14T14:05:47Z</time>
      </trkpt>
      <trkpt lat="44.64454" lon="-0.59882">
        <ele>54</ele>
        <time>2019-05-14T14:05:51Z</time>
      </trkpt>
      <trkpt lat="44.64457" lon="-0.59875">
        <ele>54</ele>
        <time>2019-05-14T14:05:54Z</time>
      </trkpt>
      <trkpt lat="44.64464" lon="-0.59873">
        <ele>54</ele>
        <time>2019-05-14T14:05:55Z</time>
      </trkpt>
      <trkpt lat="44.64489" lon="-0.59854">
        <ele>55</ele>
        <time>2019-05-14T14:05:56Z</time>
      </trkpt>
      <trkpt lat="44.6451" lon="-0.59845">
        <ele>54</ele>
        <time>2019-05-14T14:05:57Z</time>
      </trkpt>
      <trkpt lat="44.64523" lon="-0.59829">
        <ele>53</ele>
        <time>2019-05-14T14:05:59Z</time>
      </trkpt>
      <trkpt lat="44.64527" lon="-0.59824">
        <ele>54</ele>
        <time>2019-05-14T14:06:01Z</time>
      </trkpt>
      <trkpt lat="44.6453" lon="-0.59818">
        <ele>54</ele>
        <time>2019-05-14T14:06:02Z</time>
      </trkpt>
      <trkpt lat="44.64533" lon="-0.59815">
        <ele>54</ele>
        <time>2019-05-14T14:06:03Z</time>
      </trkpt>
      <trkpt lat="44.64542" lon="-0.59811">
        <ele>54</ele>
        <time>2019-05-14T14:06:05Z</time>
      </trkpt>
      <trkpt lat="44.64555" lon="-0.59812">
        <ele>57</ele>
        <time>2019-05-14T14:06:07Z</time>
      </trkpt>
      <trkpt lat="44.64559" lon="-0.59808">
        <ele>57</ele>
        <time>2019-05-14T14:06:09Z</time>
      </trkpt>
      <trkpt lat="44.64561" lon="-0.59802">
        <ele>58</ele>
        <time>2019-05-14T14:06:15Z</time>
      </trkpt>
      <trkpt lat="44.64564" lon="-0.59797">
        <ele>59</ele>
        <time>2019-05-14T14:06:19Z</time>
      </trkpt>
      <trkpt lat="44.64568" lon="-0.59788">
        <ele>58</ele>
        <time>2019-05-14T14:06:49Z</time>
      </trkpt>
      <trkpt lat="44.64571" lon="-0.5978">
        <ele>57</ele>
        <time>2019-05-14T14:06:51Z</time>
      </trkpt>
      <trkpt lat="44.6458" lon="-0.59775">
        <ele>56</ele>
        <time>2019-05-14T14:06:54Z</time>
      </trkpt>
      <trkpt lat="44.64594" lon="-0.59768">
        <ele>59</ele>
        <time>2019-05-14T14:07:01Z</time>
      </trkpt>
      <trkpt lat="44.64773" lon="-0.59609">
        <ele>57</ele>
        <time>2019-05-14T14:07:03Z</time>
      </trkpt>
      <trkpt lat="44.64787" lon="-0.59603">
        <ele>59</ele>
        <time>2019-05-14T14:07:04Z</time>
      </trkpt>
      <trkpt lat="44.6481" lon="-0.59596">
        <ele>59</ele>
        <time>2019-05-14T14:07:07Z</time>
      </trkpt>
      <trkpt lat="44.64869" lon="-0.59601">
        <ele>53</ele>
        <time>2019-05-14T14:07:13Z</time>
      </trkpt>
      <trkpt lat="44.64886" lon="-0.59607">
        <ele>53</ele>
        <time>2019-05-14T14:07:14Z</time>
      </trkpt>
      <trkpt lat="44.64897" lon="-0.59612">
        <ele>55</ele>
        <time>2019-05-14T14:07:21Z</time>
      </trkpt>
      <trkpt lat="44.64926" lon="-0.59614">
        <ele>56</ele>
        <time>2019-05-14T14:07:23Z</time>
      </trkpt>
      <trkpt lat="44.64964" lon="-0.59616">
        <ele>50</ele>
        <time>2019-05-14T14:07:25Z</time>
      </trkpt>
      <trkpt lat="44.64971" lon="-0.59617">
        <ele>50</ele>
        <time>2019-05-14T14:07:26Z</time>
      </trkpt>
      <trkpt lat="44.65002" lon="-0.59626">
        <ele>48</ele>
        <time>2019-05-14T14:07:29Z</time>
      </trkpt>
      <trkpt lat="44.65008" lon="-0.59629">
        <ele>49</ele>
        <time>2019-05-14T14:07:31Z</time>
      </trkpt>
      <trkpt lat="44.65011" lon="-0.59634">
        <ele>48</ele>
        <time>2019-05-14T14:07:32Z</time>
      </trkpt>
      <trkpt lat="44.6501" lon="-0.59638">
        <ele>48</ele>
        <time>2019-05-14T14:07:34Z</time>
      </trkpt>
      <trkpt lat="44.65004" lon="-0.59652">
        <ele>48</ele>
        <time>2019-05-14T14:07:50Z</time>
      </trkpt>
      <trkpt lat="44.64999" lon="-0.59665">
        <ele>48</ele>
        <time>2019-05-14T14:07:54Z</time>
      </trkpt>
      <trkpt lat="44.64997" lon="-0.59671">
        <ele>48</ele>
        <time>2019-05-14T14:07:56Z</time>
      </trkpt>
      <trkpt lat="44.64997" lon="-0.59683">
        <ele>49</ele>
        <time>2019-05-14T14:07:57Z</time>
      </trkpt>
      <trkpt lat="44.65011" lon="-0.59793">
        <ele>49</ele>
        <time>2019-05-14T14:08:07Z</time>
      </trkpt>
      <trkpt lat="44.6502" lon="-0.59816">
        <ele>49</ele>
        <time>2019-05-14T14:08:15Z</time>
      </trkpt>
      <trkpt lat="44.65023" lon="-0.59831">
        <ele>50</ele>
        <time>2019-05-14T14:08:16Z</time>
      </trkpt>
      <trkpt lat="44.65024" lon="-0.59839">
        <ele>49</ele>
        <time>2019-05-14T14:08:18Z</time>
      </trkpt>
      <trkpt lat="44.65045" lon="-0.59903">
        <ele>53</ele>
        <time>2019-05-14T14:08:27Z</time>
      </trkpt>
      <trkpt lat="44.65065" lon="-0.59949">
        <ele>54</ele>
        <time>2019-05-14T14:08:31Z</time>
      </trkpt>
      <trkpt lat="44.65071" lon="-0.59957">
        <ele>56</ele>
        <time>2019-05-14T14:08:34Z</time>
      </trkpt>
      <trkpt lat="44.65075" lon="-0.59966">
        <ele>62</ele>
        <time>2019-05-14T14:08:36Z</time>
      </trkpt>
      <trkpt lat="44.65084" lon="-0.60014">
        <ele>59</ele>
        <time>2019-05-14T14:08:57Z</time>
      </trkpt>
      <trkpt lat="44.65085" lon="-0.60034">
        <ele>58</ele>
        <time>2019-05-14T14:09:00Z</time>
      </trkpt>
      <trkpt lat="44.65085" lon="-0.60049">
        <ele>58</ele>
        <time>2019-05-14T14:09:01Z</time>
      </trkpt>
      <trkpt lat="44.65088" lon="-0.6006">
        <ele>57</ele>
        <time>2019-05-14T14:09:04Z</time>
      </trkpt>
      <trkpt lat="44.651" lon="-0.60168">
        <ele>56</ele>
        <time>2019-05-14T14:09:06Z</time>
      </trkpt>
      <trkpt lat="44.65097" lon="-0.60186">
        <ele>56</ele>
        <time>2019-05-14T14:09:10Z</time>
      </trkpt>
      <trkpt lat="44.65099" lon="-0.6019">
        <ele>57</ele>
        <time>2019-05-14T14:09:15Z</time>
      </trkpt>
      <trkpt lat="44.65104" lon="-0.60213">
        <ele>57</ele>
        <time>2019-05-14T14:09:16Z</time>
      </trkpt>
      <trkpt lat="44.65107" lon="-0.60226">
        <ele>59</ele>
        <time>2019-05-14T14:09:18Z</time>
      </trkpt>
      <trkpt lat="44.6511" lon="-0.60248">
        <ele>60</ele>
        <time>2019-05-14T14:09:20Z</time>
      </trkpt>
      <trkpt lat="44.65119" lon="-0.60263">
        <ele>61</ele>
        <time>2019-05-14T14:09:22Z</time>
      </trkpt>
      <trkpt lat="44.65121" lon="-0.60266">
        <ele>61</ele>
        <time>2019-05-14T14:09:33Z</time>
      </trkpt>
      <trkpt lat="44.65125" lon="-0.60272">
        <ele>62</ele>
        <time>2019-05-14T14:09:35Z</time>
      </trkpt>
      <trkpt lat="44.65127" lon="-0.60283">
        <ele>62</ele>
        <time>2019-05-14T14:10:01Z</time>
      </trkpt>
      <trkpt lat="44.65124" lon="-0.60297">
        <ele>62</ele>
        <time>2019-05-14T14:10:05Z</time>
      </trkpt>
      <trkpt lat="44.6513" lon="-0.60365">
        <ele>57</ele>
        <time>2019-05-14T14:10:07Z</time>
      </trkpt>
      <trkpt lat="44.65133" lon="-0.60376">
        <ele>56</ele>
        <time>2019-05-14T14:10:12Z</time>
      </trkpt>
      <trkpt lat="44.65152" lon="-0.60541">
        <ele>56</ele>
        <time>2019-05-14T14:10:13Z</time>
      </trkpt>
      <trkpt lat="44.65151" lon="-0.60567">
        <ele>56</ele>
        <time>2019-05-14T14:10:17Z</time>
      </trkpt>
      <trkpt lat="44.65155" lon="-0.60605">
        <ele>51</ele>
        <time>2019-05-14T14:10:18Z</time>
      </trkpt>
      <trkpt lat="44.65159" lon="-0.60635">
        <ele>55</ele>
        <time>2019-05-14T14:10:23Z</time>
      </trkpt>
      <trkpt lat="44.65165" lon="-0.60635">
        <ele>58</ele>
        <time>2019-05-14T14:10:26Z</time>
      </trkpt>
      <trkpt lat="44.65158" lon="-0.60672">
        <ele>58</ele>
        <time>2019-05-14T14:10:35Z</time>
      </trkpt>
      <trkpt lat="44.6516" lon="-0.60678">
        <ele>57</ele>
        <time>2019-05-14T14:10:39Z</time>
      </trkpt>
      <trkpt lat="44.65162" lon="-0.60714">
        <ele>54</ele>
        <time>2019-05-14T14:10:41Z</time>
      </trkpt>
      <trkpt lat="44.65174" lon="-0.60727">
        <ele>50</ele>
        <time>2019-05-14T14:10:43Z</time>
      </trkpt>
      <trkpt lat="44.65196" lon="-0.60789">
        <ele>51</ele>
        <time>2019-05-14T14:10:44Z</time>
      </trkpt>
      <trkpt lat="44.65209" lon="-0.60813">
        <ele>54</ele>
        <time>2019-05-14T14:10:45Z</time>
      </trkpt>
      <trkpt lat="44.65227" lon="-0.60818">
        <ele>56</ele>
        <time>2019-05-14T14:10:47Z</time>
      </trkpt>
      <trkpt lat="44.65234" lon="-0.60814">
        <ele>57</ele>
        <time>2019-05-14T14:10:49Z</time>
      </trkpt>
      <trkpt lat="44.65213" lon="-0.60846">
        <ele>58</ele>
        <time>2019-05-14T14:10:51Z</time>
      </trkpt>
      <trkpt lat="44.65235" lon="-0.60834">
        <ele>60</ele>
        <time>2019-05-14T14:10:53Z</time>
      </trkpt>
      <trkpt lat="44.65227" lon="-0.60853">
        <ele>62</ele>
        <time>2019-05-14T14:10:54Z</time>
      </trkpt>
      <trkpt lat="44.65227" lon="-0.60867">
        <ele>65</ele>
        <time>2019-05-14T14:10:55Z</time>
      </trkpt>
      <trkpt lat="44.65239" lon="-0.60876">
        <ele>64</ele>
        <time>2019-05-14T14:10:56Z</time>
      </trkpt>
      <trkpt lat="44.65249" lon="-0.60886">
        <ele>66</ele>
        <time>2019-05-14T14:10:57Z</time>
      </trkpt>
      <trkpt lat="44.65253" lon="-0.60891">
        <ele>66</ele>
        <time>2019-05-14T14:11:00Z</time>
      </trkpt>
      <trkpt lat="44.65254" lon="-0.60902">
        <ele>66</ele>
        <time>2019-05-14T14:11:11Z</time>
      </trkpt>
      <trkpt lat="44.65259" lon="-0.60907">
        <ele>66</ele>
        <time>2019-05-14T14:11:13Z</time>
      </trkpt>
      <trkpt lat="44.65264" lon="-0.60908">
        <ele>68</ele>
        <time>2019-05-14T14:11:15Z</time>
      </trkpt>
      <trkpt lat="44.65271" lon="-0.60912">
        <ele>70</ele>
        <time>2019-05-14T14:11:16Z</time>
      </trkpt>
      <trkpt lat="44.6529" lon="-0.60948">
        <ele>80</ele>
        <time>2019-05-14T14:11:17Z</time>
      </trkpt>
      <trkpt lat="44.65301" lon="-0.60943">
        <ele>81</ele>
        <time>2019-05-14T14:11:18Z</time>
      </trkpt>
      <trkpt lat="44.65304" lon="-0.60959">
        <ele>81</ele>
        <time>2019-05-14T14:11:20Z</time>
      </trkpt>
      <trkpt lat="44.65297" lon="-0.60976">
        <ele>78</ele>
        <time>2019-05-14T14:11:27Z</time>
      </trkpt>
      <trkpt lat="44.653" lon="-0.60981">
        <ele>76</ele>
        <time>2019-05-14T14:11:31Z</time>
      </trkpt>
      <trkpt lat="44.6531" lon="-0.60983">
        <ele>74</ele>
        <time>2019-05-14T14:11:33Z</time>
      </trkpt>
      <trkpt lat="44.65315" lon="-0.60986">
        <ele>72</ele>
        <time>2019-05-14T14:11:35Z</time>
      </trkpt>
      <trkpt lat="44.65334" lon="-0.61006">
        <ele>67</ele>
        <time>2019-05-14T14:11:37Z</time>
      </trkpt>
      <trkpt lat="44.65332" lon="-0.61036">
        <ele>67</ele>
        <time>2019-05-14T14:11:39Z</time>
      </trkpt>
      <trkpt lat="44.65338" lon="-0.61037">
        <ele>67</ele>
        <time>2019-05-14T14:11:43Z</time>
      </trkpt>
      <trkpt lat="44.65334" lon="-0.61053">
        <ele>67</ele>
        <time>2019-05-14T14:11:51Z</time>
      </trkpt>
      <trkpt lat="44.65336" lon="-0.6106">
        <ele>68</ele>
        <time>2019-05-14T14:11:53Z</time>
      </trkpt>
      <trkpt lat="44.65342" lon="-0.6107">
        <ele>70</ele>
        <time>2019-05-14T14:11:55Z</time>
      </trkpt>
      <trkpt lat="44.65355" lon="-0.61084">
        <ele>72</ele>
        <time>2019-05-14T14:11:57Z</time>
      </trkpt>
      <trkpt lat="44.65367" lon="-0.61131">
        <ele>73</ele>
        <time>2019-05-14T14:12:00Z</time>
      </trkpt>
      <trkpt lat="44.65375" lon="-0.6113">
        <ele>72</ele>
        <time>2019-05-14T14:12:03Z</time>
      </trkpt>
      <trkpt lat="44.65379" lon="-0.61137">
        <ele>71</ele>
        <time>2019-05-14T14:12:05Z</time>
      </trkpt>
      <trkpt lat="44.65384" lon="-0.61145">
        <ele>72</ele>
        <time>2019-05-14T14:12:07Z</time>
      </trkpt>
      <trkpt lat="44.65382" lon="-0.61162">
        <ele>74</ele>
        <time>2019-05-14T14:12:09Z</time>
      </trkpt>
      <trkpt lat="44.65392" lon="-0.61186">
        <ele>76</ele>
        <time>2019-05-14T14:12:10Z</time>
      </trkpt>
      <trkpt lat="44.65396" lon="-0.61195">
        <ele>75</ele>
        <time>2019-05-14T14:12:11Z</time>
      </trkpt>
      <trkpt lat="44.654" lon="-0.61203">
        <ele>73</ele>
        <time>2019-05-14T14:12:13Z</time>
      </trkpt>
      <trkpt lat="44.65407" lon="-0.61209">
        <ele>73</ele>
        <time>2019-05-14T14:12:15Z</time>
      </trkpt>
      <trkpt lat="44.65415" lon="-0.61213">
        <ele>74</ele>
        <time>2019-05-14T14:12:18Z</time>
      </trkpt>
      <trkpt lat="44.65421" lon="-0.61217">
        <ele>74</ele>
        <time>2019-05-14T14:12:21Z</time>
      </trkpt>
      <trkpt lat="44.65431" lon="-0.61218">
        <ele>76</ele>
        <time>2019-05-14T14:12:23Z</time>
      </trkpt>
      <trkpt lat="44.65433" lon="-0.61229">
        <ele>78</ele>
        <time>2019-05-14T14:12:34Z</time>
      </trkpt>
      <trkpt lat="44.65443" lon="-0.61239">
        <ele>78</ele>
        <time>2019-05-14T14:12:35Z</time>
      </trkpt>
      <trkpt lat="44.65448" lon="-0.61246">
        <ele>78</ele>
        <time>2019-05-14T14:12:39Z</time>
      </trkpt>
      <trkpt lat="44.65453" lon="-0.61251">
        <ele>79</ele>
        <time>2019-05-14T14:12:41Z</time>
      </trkpt>
      <trkpt lat="44.65488" lon="-0.61286">
        <ele>76</ele>
        <time>2019-05-14T14:12:43Z</time>
      </trkpt>
      <trkpt lat="44.65487" lon="-0.61293">
        <ele>76</ele>
        <time>2019-05-14T14:12:48Z</time>
      </trkpt>
      <trkpt lat="44.65504" lon="-0.61306">
        <ele>76</ele>
        <time>2019-05-14T14:12:51Z</time>
      </trkpt>
      <trkpt lat="44.65509" lon="-0.61312">
        <ele>76</ele>
        <time>2019-05-14T14:12:52Z</time>
      </trkpt>
      <trkpt lat="44.65511" lon="-0.61331">
        <ele>76</ele>
        <time>2019-05-14T14:12:55Z</time>
      </trkpt>
      <trkpt lat="44.65527" lon="-0.61355">
        <ele>75</ele>
        <time>2019-05-14T14:13:06Z</time>
      </trkpt>
      <trkpt lat="44.65538" lon="-0.61365">
        <ele>76</ele>
        <time>2019-05-14T14:13:27Z</time>
      </trkpt>
      <trkpt lat="44.65544" lon="-0.61368">
        <ele>74</ele>
        <time>2019-05-14T14:13:29Z</time>
      </trkpt>
      <trkpt lat="44.65553" lon="-0.61373">
        <ele>74</ele>
        <time>2019-05-14T14:13:30Z</time>
      </trkpt>
      <trkpt lat="44.65608" lon="-0.61374">
        <ele>74</ele>
        <time>2019-05-14T14:13:31Z</time>
      </trkpt>
      <trkpt lat="44.65674" lon="-0.61298">
        <ele>69</ele>
        <time>2019-05-14T14:13:35Z</time>
      </trkpt>
      <trkpt lat="44.65682" lon="-0.61287">
        <ele>69</ele>
        <time>2019-05-14T14:13:36Z</time>
      </trkpt>
      <trkpt lat="44.65686" lon="-0.61284">
        <ele>69</ele>
        <time>2019-05-14T14:13:38Z</time>
      </trkpt>
      <trkpt lat="44.65686" lon="-0.61273">
        <ele>69</ele>
        <time>2019-05-14T14:13:39Z</time>
      </trkpt>
      <trkpt lat="44.65687" lon="-0.61261">
        <ele>68</ele>
        <time>2019-05-14T14:13:41Z</time>
      </trkpt>
      <trkpt lat="44.657" lon="-0.61258">
        <ele>66</ele>
        <time>2019-05-14T14:13:42Z</time>
      </trkpt>
      <trkpt lat="44.65714" lon="-0.61251">
        <ele>65</ele>
        <time>2019-05-14T14:13:43Z</time>
      </trkpt>
      <trkpt lat="44.65718" lon="-0.61247">
        <ele>65</ele>
        <time>2019-05-14T14:13:44Z</time>
      </trkpt>
      <trkpt lat="44.65723" lon="-0.61251">
        <ele>65</ele>
        <time>2019-05-14T14:13:46Z</time>
      </trkpt>
      <trkpt lat="44.65732" lon="-0.61255">
        <ele>65</ele>
        <time>2019-05-14T14:13:48Z</time>
      </trkpt>
      <trkpt lat="44.65735" lon="-0.6126">
        <ele>64</ele>
        <time>2019-05-14T14:13:52Z</time>
      </trkpt>
      <trkpt lat="44.65735" lon="-0.61265">
        <ele>64</ele>
        <time>2019-05-14T14:13:53Z</time>
      </trkpt>
      <trkpt lat="44.65737" lon="-0.61275">
        <ele>64</ele>
        <time>2019-05-14T14:13:56Z</time>
      </trkpt>
      <trkpt lat="44.65739" lon="-0.61282">
        <ele>64</ele>
        <time>2019-05-14T14:13:58Z</time>
      </trkpt>
      <trkpt lat="44.65737" lon="-0.61304">
        <ele>70</ele>
        <time>2019-05-14T14:14:07Z</time>
      </trkpt>
      <trkpt lat="44.65723" lon="-0.61304">
        <ele>55</ele>
        <time>2019-05-14T14:14:08Z</time>
      </trkpt>
      <trkpt lat="44.65726" lon="-0.61318">
        <ele>42</ele>
        <time>2019-05-14T14:14:10Z</time>
      </trkpt>
      <trkpt lat="44.65726" lon="-0.61325">
        <ele>44</ele>
        <time>2019-05-14T14:14:12Z</time>
      </trkpt>
      <trkpt lat="44.65719" lon="-0.61371">
        <ele>54</ele>
        <time>2019-05-14T14:14:15Z</time>
      </trkpt>
      <trkpt lat="44.65719" lon="-0.61377">
        <ele>54</ele>
        <time>2019-05-14T14:14:17Z</time>
      </trkpt>
      <trkpt lat="44.65722" lon="-0.61384">
        <ele>54</ele>
        <time>2019-05-14T14:14:21Z</time>
      </trkpt>
      <trkpt lat="44.65723" lon="-0.6139">
        <ele>54</ele>
        <time>2019-05-14T14:14:23Z</time>
      </trkpt>
      <trkpt lat="44.65721" lon="-0.61402">
        <ele>54</ele>
        <time>2019-05-14T14:14:26Z</time>
      </trkpt>
      <trkpt lat="44.65719" lon="-0.61413">
        <ele>58</ele>
        <time>2019-05-14T14:14:28Z</time>
      </trkpt>
      <trkpt lat="44.65725" lon="-0.61422">
        <ele>66</ele>
        <time>2019-05-14T14:14:30Z</time>
      </trkpt>
      <trkpt lat="44.65736" lon="-0.61426">
        <ele>69</ele>
        <time>2019-05-14T14:14:32Z</time>
      </trkpt>
      <trkpt lat="44.65741" lon="-0.61451">
        <ele>69</ele>
        <time>2019-05-14T14:14:33Z</time>
      </trkpt>
      <trkpt lat="44.65748" lon="-0.61451">
        <ele>69</ele>
        <time>2019-05-14T14:14:34Z</time>
      </trkpt>
      <trkpt lat="44.6575" lon="-0.61466">
        <ele>67</ele>
        <time>2019-05-14T14:14:36Z</time>
      </trkpt>
      <trkpt lat="44.65745" lon="-0.61491">
        <ele>68</ele>
        <time>2019-05-14T14:14:37Z</time>
      </trkpt>
      <trkpt lat="44.65749" lon="-0.61495">
        <ele>68</ele>
        <time>2019-05-14T14:14:38Z</time>
      </trkpt>
      <trkpt lat="44.65749" lon="-0.61504">
        <ele>68</ele>
        <time>2019-05-14T14:14:39Z</time>
      </trkpt>
      <trkpt lat="44.65736" lon="-0.61526">
        <ele>69</ele>
        <time>2019-05-14T14:14:42Z</time>
      </trkpt>
      <trkpt lat="44.6574" lon="-0.6153">
        <ele>69</ele>
        <time>2019-05-14T14:14:43Z</time>
      </trkpt>
      <trkpt lat="44.6574" lon="-0.61536">
        <ele>69</ele>
        <time>2019-05-14T14:14:48Z</time>
      </trkpt>
      <trkpt lat="44.65744" lon="-0.61542">
        <ele>68</ele>
        <time>2019-05-14T14:14:49Z</time>
      </trkpt>
      <trkpt lat="44.65744" lon="-0.61555">
        <ele>70</ele>
        <time>2019-05-14T14:14:51Z</time>
      </trkpt>
      <trkpt lat="44.65752" lon="-0.61559">
        <ele>71</ele>
        <time>2019-05-14T14:14:58Z</time>
      </trkpt>
      <trkpt lat="44.65755" lon="-0.61598">
        <ele>68</ele>
        <time>2019-05-14T14:15:01Z</time>
      </trkpt>
      <trkpt lat="44.65758" lon="-0.61602">
        <ele>68</ele>
        <time>2019-05-14T14:15:02Z</time>
      </trkpt>
      <trkpt lat="44.65761" lon="-0.61613">
        <ele>69</ele>
        <time>2019-05-14T14:15:04Z</time>
      </trkpt>
      <trkpt lat="44.65768" lon="-0.61649">
        <ele>71</ele>
        <time>2019-05-14T14:15:11Z</time>
      </trkpt>
      <trkpt lat="44.65777" lon="-0.61657">
        <ele>72</ele>
        <time>2019-05-14T14:15:13Z</time>
      </trkpt>
      <trkpt lat="44.65786" lon="-0.61667">
        <ele>74</ele>
        <time>2019-05-14T14:15:15Z</time>
      </trkpt>
      <trkpt lat="44.65783" lon="-0.61672">
        <ele>77</ele>
        <time>2019-05-14T14:15:25Z</time>
      </trkpt>
      <trkpt lat="44.65785" lon="-0.61691">
        <ele>81</ele>
        <time>2019-05-14T14:15:28Z</time>
      </trkpt>
      <trkpt lat="44.65781" lon="-0.61703">
        <ele>81</ele>
        <time>2019-05-14T14:15:30Z</time>
      </trkpt>
      <trkpt lat="44.6578" lon="-0.61712">
        <ele>79</ele>
        <time>2019-05-14T14:15:34Z</time>
      </trkpt>
      <trkpt lat="44.65788" lon="-0.61761">
        <ele>77</ele>
        <time>2019-05-14T14:15:36Z</time>
      </trkpt>
      <trkpt lat="44.65792" lon="-0.61772">
        <ele>78</ele>
        <time>2019-05-14T14:15:40Z</time>
      </trkpt>
      <trkpt lat="44.65797" lon="-0.6178">
        <ele>79</ele>
        <time>2019-05-14T14:15:52Z</time>
      </trkpt>
      <trkpt lat="44.65809" lon="-0.61781">
        <ele>80</ele>
        <time>2019-05-14T14:15:56Z</time>
      </trkpt>
      <trkpt lat="44.65813" lon="-0.61785">
        <ele>79</ele>
        <time>2019-05-14T14:15:58Z</time>
      </trkpt>
      <trkpt lat="44.65823" lon="-0.61798">
        <ele>78</ele>
        <time>2019-05-14T14:16:07Z</time>
      </trkpt>
      <trkpt lat="44.65841" lon="-0.61837">
        <ele>77</ele>
        <time>2019-05-14T14:16:10Z</time>
      </trkpt>
      <trkpt lat="44.65846" lon="-0.6186">
        <ele>76</ele>
        <time>2019-05-14T14:16:13Z</time>
      </trkpt>
      <trkpt lat="44.65846" lon="-0.6187">
        <ele>75</ele>
        <time>2019-05-14T14:16:15Z</time>
      </trkpt>
      <trkpt lat="44.65864" lon="-0.61909">
        <ele>76</ele>
        <time>2019-05-14T14:16:18Z</time>
      </trkpt>
      <trkpt lat="44.6586" lon="-0.61933">
        <ele>77</ele>
        <time>2019-05-14T14:16:22Z</time>
      </trkpt>
      <trkpt lat="44.65868" lon="-0.61942">
        <ele>78</ele>
        <time>2019-05-14T14:16:23Z</time>
      </trkpt>
      <trkpt lat="44.65879" lon="-0.61946">
        <ele>77</ele>
        <time>2019-05-14T14:16:25Z</time>
      </trkpt>
      <trkpt lat="44.65886" lon="-0.61957">
        <ele>76</ele>
        <time>2019-05-14T14:16:30Z</time>
      </trkpt>
      <trkpt lat="44.65904" lon="-0.61967">
        <ele>77</ele>
        <time>2019-05-14T14:16:33Z</time>
      </trkpt>
      <trkpt lat="44.65904" lon="-0.61976">
        <ele>77</ele>
        <time>2019-05-14T14:16:35Z</time>
      </trkpt>
      <trkpt lat="44.65907" lon="-0.61983">
        <ele>76</ele>
        <time>2019-05-14T14:16:38Z</time>
      </trkpt>
      <trkpt lat="44.65914" lon="-0.62008">
        <ele>73</ele>
        <time>2019-05-14T14:16:44Z</time>
      </trkpt>
      <trkpt lat="44.65912" lon="-0.62033">
        <ele>73</ele>
        <time>2019-05-14T14:16:47Z</time>
      </trkpt>
      <trkpt lat="44.65917" lon="-0.62041">
        <ele>74</ele>
        <time>2019-05-14T14:16:49Z</time>
      </trkpt>
      <trkpt lat="44.65922" lon="-0.62057">
        <ele>75</ele>
        <time>2019-05-14T14:16:50Z</time>
      </trkpt>
      <trkpt lat="44.65917" lon="-0.621">
        <ele>76</ele>
        <time>2019-05-14T14:16:51Z</time>
      </trkpt>
      <trkpt lat="44.65919" lon="-0.62115">
        <ele>77</ele>
        <time>2019-05-14T14:16:53Z</time>
      </trkpt>
      <trkpt lat="44.65926" lon="-0.62126">
        <ele>78</ele>
        <time>2019-05-14T14:16:57Z</time>
      </trkpt>
      <trkpt lat="44.65933" lon="-0.62131">
        <ele>76</ele>
        <time>2019-05-14T14:16:58Z</time>
      </trkpt>
      <trkpt lat="44.65935" lon="-0.62137">
        <ele>75</ele>
        <time>2019-05-14T14:16:59Z</time>
      </trkpt>
      <trkpt lat="44.65939" lon="-0.62141">
        <ele>74</ele>
        <time>2019-05-14T14:17:00Z</time>
      </trkpt>
      <trkpt lat="44.65943" lon="-0.62153">
        <ele>75</ele>
        <time>2019-05-14T14:17:06Z</time>
      </trkpt>
      <trkpt lat="44.65942" lon="-0.62159">
        <ele>77</ele>
        <time>2019-05-14T14:17:22Z</time>
      </trkpt>
      <trkpt lat="44.65939" lon="-0.62162">
        <ele>77</ele>
        <time>2019-05-14T14:17:36Z</time>
      </trkpt>
      <trkpt lat="44.65934" lon="-0.62159">
        <ele>78</ele>
        <time>2019-05-14T14:17:44Z</time>
      </trkpt>
      <trkpt lat="44.65936" lon="-0.62156">
        <ele>76</ele>
        <time>2019-05-14T14:17:54Z</time>
      </trkpt>
      <trkpt lat="44.65936" lon="-0.62158">
        <ele>74</ele>
        <time>2019-05-14T14:18:11Z</time>
      </trkpt>
      <trkpt lat="44.6594" lon="-0.62162">
        <ele>74</ele>
        <time>2019-05-14T14:18:16Z</time>
      </trkpt>
      <trkpt lat="44.6594" lon="-0.62163">
        <ele>75</ele>
        <time>2019-05-14T14:18:18Z</time>
      </trkpt>
      <trkpt lat="44.65936" lon="-0.62153">
        <ele>77</ele>
        <time>2019-05-14T14:18:26Z</time>
      </trkpt>
      <trkpt lat="44.65942" lon="-0.62149">
        <ele>75</ele>
        <time>2019-05-14T14:18:27Z</time>
      </trkpt>
      <trkpt lat="44.65939" lon="-0.62144">
        <ele>77</ele>
        <time>2019-05-14T14:18:34Z</time>
      </trkpt>
      <trkpt lat="44.65938" lon="-0.62153">
        <ele>73</ele>
        <time>2019-05-14T14:18:35Z</time>
      </trkpt>
      <trkpt lat="44.65931" lon="-0.6215">
        <ele>72</ele>
        <time>2019-05-14T14:18:53Z</time>
      </trkpt>
      <trkpt lat="44.65927" lon="-0.62155">
        <ele>71</ele>
        <time>2019-05-14T14:19:12Z</time>
      </trkpt>
      <trkpt lat="44.65938" lon="-0.62146">
        <ele>72</ele>
        <time>2019-05-14T14:19:14Z</time>
      </trkpt>
      <trkpt lat="44.6594" lon="-0.62155">
        <ele>71</ele>
        <time>2019-05-14T14:19:26Z</time>
      </trkpt>
      <trkpt lat="44.6594" lon="-0.62158">
        <ele>72</ele>
        <time>2019-05-14T14:19:37Z</time>
      </trkpt>
      <trkpt lat="44.65932" lon="-0.6216">
        <ele>72</ele>
        <time>2019-05-14T14:19:48Z</time>
      </trkpt>
      <trkpt lat="44.65928" lon="-0.62164">
        <ele>68</ele>
        <time>2019-05-14T14:19:50Z</time>
      </trkpt>
      <trkpt lat="44.65928" lon="-0.62154">
        <ele>67</ele>
        <time>2019-05-14T14:20:12Z</time>
      </trkpt>
      <trkpt lat="44.65932" lon="-0.6215">
        <ele>69</ele>
        <time>2019-05-14T14:20:20Z</time>
      </trkpt>
      <trkpt lat="44.65934" lon="-0.62155">
        <ele>72</ele>
        <time>2019-05-14T14:20:22Z</time>
      </trkpt>
      <trkpt lat="44.6593" lon="-0.62162">
        <ele>71</ele>
        <time>2019-05-14T14:20:25Z</time>
      </trkpt>
      <trkpt lat="44.65872" lon="-0.62238">
        <ele>64</ele>
        <time>2019-05-14T14:20:27Z</time>
      </trkpt>
      <trkpt lat="44.6585" lon="-0.62266">
        <ele>63</ele>
        <time>2019-05-14T14:20:29Z</time>
      </trkpt>
      <trkpt lat="44.65848" lon="-0.62274">
        <ele>63</ele>
        <time>2019-05-14T14:20:31Z</time>
      </trkpt>
      <trkpt lat="44.65839" lon="-0.62297">
        <ele>63</ele>
        <time>2019-05-14T14:20:32Z</time>
      </trkpt>
      <trkpt lat="44.65851" lon="-0.62299">
        <ele>63</ele>
        <time>2019-05-14T14:20:35Z</time>
      </trkpt>
      <trkpt lat="44.65857" lon="-0.62312">
        <ele>66</ele>
        <time>2019-05-14T14:20:36Z</time>
      </trkpt>
      <trkpt lat="44.65863" lon="-0.62323">
        <ele>68</ele>
        <time>2019-05-14T14:20:38Z</time>
      </trkpt>
      <trkpt lat="44.65865" lon="-0.62329">
        <ele>68</ele>
        <time>2019-05-14T14:20:39Z</time>
      </trkpt>
      <trkpt lat="44.65863" lon="-0.62348">
        <ele>72</ele>
        <time>2019-05-14T14:20:41Z</time>
      </trkpt>
      <trkpt lat="44.65872" lon="-0.62349">
        <ele>73</ele>
        <time>2019-05-14T14:20:42Z</time>
      </trkpt>
      <trkpt lat="44.65877" lon="-0.62358">
        <ele>74</ele>
        <time>2019-05-14T14:20:44Z</time>
      </trkpt>
      <trkpt lat="44.65873" lon="-0.62366">
        <ele>74</ele>
        <time>2019-05-14T14:20:45Z</time>
      </trkpt>
      <trkpt lat="44.65874" lon="-0.6238">
        <ele>74</ele>
        <time>2019-05-14T14:20:46Z</time>
      </trkpt>
      <trkpt lat="44.65881" lon="-0.62385">
        <ele>75</ele>
        <time>2019-05-14T14:20:49Z</time>
      </trkpt>
      <trkpt lat="44.65887" lon="-0.62395">
        <ele>75</ele>
        <time>2019-05-14T14:20:51Z</time>
      </trkpt>
      <trkpt lat="44.65885" lon="-0.62406">
        <ele>75</ele>
        <time>2019-05-14T14:20:53Z</time>
      </trkpt>
      <trkpt lat="44.65897" lon="-0.62407">
        <ele>76</ele>
        <time>2019-05-14T14:20:54Z</time>
      </trkpt>
      <trkpt lat="44.65895" lon="-0.62433">
        <ele>77</ele>
        <time>2019-05-14T14:20:55Z</time>
      </trkpt>
      <trkpt lat="44.65891" lon="-0.62447">
        <ele>79</ele>
        <time>2019-05-14T14:20:58Z</time>
      </trkpt>
      <trkpt lat="44.65906" lon="-0.62451">
        <ele>79</ele>
        <time>2019-05-14T14:20:59Z</time>
      </trkpt>
      <trkpt lat="44.65909" lon="-0.6246">
        <ele>78</ele>
        <time>2019-05-14T14:21:03Z</time>
      </trkpt>
      <trkpt lat="44.65917" lon="-0.62463">
        <ele>76</ele>
        <time>2019-05-14T14:21:05Z</time>
      </trkpt>
      <trkpt lat="44.65927" lon="-0.62478">
        <ele>75</ele>
        <time>2019-05-14T14:21:08Z</time>
      </trkpt>
      <trkpt lat="44.6592" lon="-0.62495">
        <ele>75</ele>
        <time>2019-05-14T14:21:10Z</time>
      </trkpt>
      <trkpt lat="44.65932" lon="-0.62526">
        <ele>73</ele>
        <time>2019-05-14T14:21:12Z</time>
      </trkpt>
      <trkpt lat="44.65944" lon="-0.62534">
        <ele>73</ele>
        <time>2019-05-14T14:21:14Z</time>
      </trkpt>
      <trkpt lat="44.65948" lon="-0.62554">
        <ele>74</ele>
        <time>2019-05-14T14:21:15Z</time>
      </trkpt>
      <trkpt lat="44.65965" lon="-0.6256">
        <ele>75</ele>
        <time>2019-05-14T14:21:18Z</time>
      </trkpt>
      <trkpt lat="44.65969" lon="-0.62578">
        <ele>74</ele>
        <time>2019-05-14T14:21:19Z</time>
      </trkpt>
      <trkpt lat="44.65965" lon="-0.62599">
        <ele>77</ele>
        <time>2019-05-14T14:21:30Z</time>
      </trkpt>
      <trkpt lat="44.65965" lon="-0.62607">
        <ele>76</ele>
        <time>2019-05-14T14:21:32Z</time>
      </trkpt>
      <trkpt lat="44.65972" lon="-0.62629">
        <ele>72</ele>
        <time>2019-05-14T14:21:35Z</time>
      </trkpt>
      <trkpt lat="44.65975" lon="-0.62636">
        <ele>72</ele>
        <time>2019-05-14T14:21:37Z</time>
      </trkpt>
      <trkpt lat="44.66027" lon="-0.62686">
        <ele>69</ele>
        <time>2019-05-14T14:21:39Z</time>
      </trkpt>
      <trkpt lat="44.66037" lon="-0.62695">
        <ele>68</ele>
        <time>2019-05-14T14:21:40Z</time>
      </trkpt>
      <trkpt lat="44.66066" lon="-0.62701">
        <ele>73</ele>
        <time>2019-05-14T14:21:41Z</time>
      </trkpt>
      <trkpt lat="44.66074" lon="-0.62711">
        <ele>75</ele>
        <time>2019-05-14T14:21:42Z</time>
      </trkpt>
      <trkpt lat="44.66089" lon="-0.62714">
        <ele>75</ele>
        <time>2019-05-14T14:21:44Z</time>
      </trkpt>
      <trkpt lat="44.66093" lon="-0.62724">
        <ele>76</ele>
        <time>2019-05-14T14:21:45Z</time>
      </trkpt>
      <trkpt lat="44.66101" lon="-0.62717">
        <ele>77</ele>
        <time>2019-05-14T14:21:46Z</time>
      </trkpt>
      <trkpt lat="44.661" lon="-0.62727">
        <ele>77</ele>
        <time>2019-05-14T14:21:50Z</time>
      </trkpt>
      <trkpt lat="44.66108" lon="-0.62741">
        <ele>78</ele>
        <time>2019-05-14T14:21:59Z</time>
      </trkpt>
      <trkpt lat="44.66117" lon="-0.62743">
        <ele>77</ele>
        <time>2019-05-14T14:22:00Z</time>
      </trkpt>
      <trkpt lat="44.66122" lon="-0.62748">
        <ele>78</ele>
        <time>2019-05-14T14:22:04Z</time>
      </trkpt>
      <trkpt lat="44.66147" lon="-0.62737">
        <ele>76</ele>
        <time>2019-05-14T14:22:06Z</time>
      </trkpt>
      <trkpt lat="44.66168" lon="-0.62704">
        <ele>69</ele>
        <time>2019-05-14T14:22:07Z</time>
      </trkpt>
      <trkpt lat="44.66189" lon="-0.62704">
        <ele>66</ele>
        <time>2019-05-14T14:22:09Z</time>
      </trkpt>
      <trkpt lat="44.6621" lon="-0.62667">
        <ele>65</ele>
        <time>2019-05-14T14:22:10Z</time>
      </trkpt>
      <trkpt lat="44.66225" lon="-0.62662">
        <ele>64</ele>
        <time>2019-05-14T14:22:11Z</time>
      </trkpt>
      <trkpt lat="44.66224" lon="-0.62668">
        <ele>65</ele>
        <time>2019-05-14T14:22:14Z</time>
      </trkpt>
      <trkpt lat="44.66232" lon="-0.62667">
        <ele>66</ele>
        <time>2019-05-14T14:22:16Z</time>
      </trkpt>
      <trkpt lat="44.66235" lon="-0.62668">
        <ele>66</ele>
        <time>2019-05-14T14:22:18Z</time>
      </trkpt>
      <trkpt lat="44.6624" lon="-0.62662">
        <ele>65</ele>
        <time>2019-05-14T14:22:20Z</time>
      </trkpt>
      <trkpt lat="44.66232" lon="-0.62656">
        <ele>65</ele>
        <time>2019-05-14T14:22:21Z</time>
      </trkpt>
      <trkpt lat="44.6625" lon="-0.62645">
        <ele>64</ele>
        <time>2019-05-14T14:22:22Z</time>
      </trkpt>
      <trkpt lat="44.66257" lon="-0.62643">
        <ele>64</ele>
        <time>2019-05-14T14:22:24Z</time>
      </trkpt>
      <trkpt lat="44.66263" lon="-0.62642">
        <ele>64</ele>
        <time>2019-05-14T14:22:29Z</time>
      </trkpt>
      <trkpt lat="44.6626" lon="-0.62636">
        <ele>64</ele>
        <time>2019-05-14T14:22:33Z</time>
      </trkpt>
      <trkpt lat="44.66258" lon="-0.62626">
        <ele>63</ele>
        <time>2019-05-14T14:22:37Z</time>
      </trkpt>
      <trkpt lat="44.66263" lon="-0.62608">
        <ele>61</ele>
        <time>2019-05-14T14:22:39Z</time>
      </trkpt>
      <trkpt lat="44.66264" lon="-0.62594">
        <ele>65</ele>
        <time>2019-05-14T14:22:44Z</time>
      </trkpt>
      <trkpt lat="44.66275" lon="-0.6258">
        <ele>46</ele>
        <time>2019-05-14T14:22:50Z</time>
      </trkpt>
      <trkpt lat="44.66291" lon="-0.62561">
        <ele>53</ele>
        <time>2019-05-14T14:22:51Z</time>
      </trkpt>
      <trkpt lat="44.66299" lon="-0.62551">
        <ele>51</ele>
        <time>2019-05-14T14:22:52Z</time>
      </trkpt>
      <trkpt lat="44.6632" lon="-0.62533">
        <ele>52</ele>
        <time>2019-05-14T14:22:53Z</time>
      </trkpt>
      <trkpt lat="44.66353" lon="-0.62511">
        <ele>60</ele>
        <time>2019-05-14T14:22:59Z</time>
      </trkpt>
      <trkpt lat="44.66358" lon="-0.6251">
        <ele>61</ele>
        <time>2019-05-14T14:23:00Z</time>
      </trkpt>
      <trkpt lat="44.6636" lon="-0.62506">
        <ele>61</ele>
        <time>2019-05-14T14:23:02Z</time>
      </trkpt>
      <trkpt lat="44.66361" lon="-0.625">
        <ele>61</ele>
        <time>2019-05-14T14:23:04Z</time>
      </trkpt>
      <trkpt lat="44.66383" lon="-0.62477">
        <ele>60</ele>
        <time>2019-05-14T14:23:13Z</time>
      </trkpt>
      <trkpt lat="44.66387" lon="-0.62471">
        <ele>61</ele>
        <time>2019-05-14T14:23:18Z</time>
      </trkpt>
      <trkpt lat="44.66394" lon="-0.62465">
        <ele>61</ele>
        <time>2019-05-14T14:23:23Z</time>
      </trkpt>
      <trkpt lat="44.664" lon="-0.62454">
        <ele>60</ele>
        <time>2019-05-14T14:23:25Z</time>
      </trkpt>
      <trkpt lat="44.6644" lon="-0.62429">
        <ele>56</ele>
        <time>2019-05-14T14:23:30Z</time>
      </trkpt>
      <trkpt lat="44.66458" lon="-0.62415">
        <ele>56</ele>
        <time>2019-05-14T14:23:31Z</time>
      </trkpt>
      <trkpt lat="44.66474" lon="-0.62397">
        <ele>56</ele>
        <time>2019-05-14T14:23:32Z</time>
      </trkpt>
      <trkpt lat="44.66483" lon="-0.62391">
        <ele>54</ele>
        <time>2019-05-14T14:23:33Z</time>
      </trkpt>
      <trkpt lat="44.66504" lon="-0.6238">
        <ele>54</ele>
        <time>2019-05-14T14:23:34Z</time>
      </trkpt>
      <trkpt lat="44.6651" lon="-0.62378">
        <ele>56</ele>
        <time>2019-05-14T14:23:40Z</time>
      </trkpt>
      <trkpt lat="44.66515" lon="-0.62379">
        <ele>57</ele>
        <time>2019-05-14T14:23:45Z</time>
      </trkpt>
      <trkpt lat="44.6652" lon="-0.62381">
        <ele>58</ele>
        <time>2019-05-14T14:23:49Z</time>
      </trkpt>
      <trkpt lat="44.66522" lon="-0.62377">
        <ele>59</ele>
        <time>2019-05-14T14:23:51Z</time>
      </trkpt>
      <trkpt lat="44.66547" lon="-0.62346">
        <ele>59</ele>
        <time>2019-05-14T14:24:21Z</time>
      </trkpt>
      <trkpt lat="44.66562" lon="-0.62326">
        <ele>58</ele>
        <time>2019-05-14T14:24:25Z</time>
      </trkpt>
      <trkpt lat="44.66578" lon="-0.62313">
        <ele>58</ele>
        <time>2019-05-14T14:24:27Z</time>
      </trkpt>
      <trkpt lat="44.66587" lon="-0.62308">
        <ele>57</ele>
        <time>2019-05-14T14:24:29Z</time>
      </trkpt>
      <trkpt lat="44.66692" lon="-0.6222">
        <ele>56</ele>
        <time>2019-05-14T14:24:30Z</time>
      </trkpt>
      <trkpt lat="44.66705" lon="-0.62206">
        <ele>55</ele>
        <time>2019-05-14T14:24:31Z</time>
      </trkpt>
      <trkpt lat="44.66711" lon="-0.62201">
        <ele>56</ele>
        <time>2019-05-14T14:24:34Z</time>
      </trkpt>
      <trkpt lat="44.66714" lon="-0.62192">
        <ele>56</ele>
        <time>2019-05-14T14:24:37Z</time>
      </trkpt>
      <trkpt lat="44.66714" lon="-0.62188">
        <ele>56</ele>
        <time>2019-05-14T14:24:58Z</time>
      </trkpt>
      <trkpt lat="44.66713" lon="-0.62183">
        <ele>56</ele>
        <time>2019-05-14T14:24:59Z</time>
      </trkpt>
      <trkpt lat="44.66705" lon="-0.62172">
        <ele>57</ele>
        <time>2019-05-14T14:25:00Z</time>
      </trkpt>
      <trkpt lat="44.66694" lon="-0.62157">
        <ele>58</ele>
        <time>2019-05-14T14:25:03Z</time>
      </trkpt>
      <trkpt lat="44.66641" lon="-0.62051">
        <ele>60</ele>
        <time>2019-05-14T14:25:06Z</time>
      </trkpt>
      <trkpt lat="44.66643" lon="-0.62044">
        <ele>59</ele>
        <time>2019-05-14T14:25:11Z</time>
      </trkpt>
      <trkpt lat="44.66647" lon="-0.62042">
        <ele>58</ele>
        <time>2019-05-14T14:25:16Z</time>
      </trkpt>
      <trkpt lat="44.66675" lon="-0.62046">
        <ele>57</ele>
        <time>2019-05-14T14:25:17Z</time>
      </trkpt>
      <trkpt lat="44.66692" lon="-0.62055">
        <ele>61</ele>
        <time>2019-05-14T14:25:34Z</time>
      </trkpt>
      <trkpt lat="44.66722" lon="-0.62066">
        <ele>64</ele>
        <time>2019-05-14T14:25:35Z</time>
      </trkpt>
      <trkpt lat="44.66748" lon="-0.62076">
        <ele>62</ele>
        <time>2019-05-14T14:25:52Z</time>
      </trkpt>
      <trkpt lat="44.66754" lon="-0.62076">
        <ele>62</ele>
        <time>2019-05-14T14:25:53Z</time>
      </trkpt>
      <trkpt lat="44.66836" lon="-0.62108">
        <ele>60</ele>
        <time>2019-05-14T14:25:54Z</time>
      </trkpt>
      <trkpt lat="44.66841" lon="-0.62107">
        <ele>60</ele>
        <time>2019-05-14T14:26:12Z</time>
      </trkpt>
      <trkpt lat="44.6692" lon="-0.62135">
        <ele>60</ele>
        <time>2019-05-14T14:26:15Z</time>
      </trkpt>
      <trkpt lat="44.66926" lon="-0.6214">
        <ele>61</ele>
        <time>2019-05-14T14:26:24Z</time>
      </trkpt>
      <trkpt lat="44.6693" lon="-0.6214">
        <ele>61</ele>
        <time>2019-05-14T14:26:26Z</time>
      </trkpt>
      <trkpt lat="44.6702" lon="-0.62166">
        <ele>59</ele>
        <time>2019-05-14T14:26:36Z</time>
      </trkpt>
      <trkpt lat="44.67036" lon="-0.62164">
        <ele>58</ele>
        <time>2019-05-14T14:26:39Z</time>
      </trkpt>
      <trkpt lat="44.67085" lon="-0.62172">
        <ele>59</ele>
        <time>2019-05-14T14:26:42Z</time>
      </trkpt>
      <trkpt lat="44.67095" lon="-0.62173">
        <ele>59</ele>
        <time>2019-05-14T14:26:44Z</time>
      </trkpt>
      <trkpt lat="44.67142" lon="-0.62172">
        <ele>61</ele>
        <time>2019-05-14T14:26:54Z</time>
      </trkpt>
      <trkpt lat="44.67158" lon="-0.62171">
        <ele>60</ele>
        <time>2019-05-14T14:26:55Z</time>
      </trkpt>
      <trkpt lat="44.67175" lon="-0.62176">
        <ele>58</ele>
        <time>2019-05-14T14:26:56Z</time>
      </trkpt>
      <trkpt lat="44.67186" lon="-0.62179">
        <ele>57</ele>
        <time>2019-05-14T14:27:01Z</time>
      </trkpt>
      <trkpt lat="44.67234" lon="-0.62182">
        <ele>55</ele>
        <time>2019-05-14T14:27:02Z</time>
      </trkpt>
      <trkpt lat="44.67238" lon="-0.62185">
        <ele>55</ele>
        <time>2019-05-14T14:27:04Z</time>
      </trkpt>
      <trkpt lat="44.67242" lon="-0.62189">
        <ele>55</ele>
        <time>2019-05-14T14:27:06Z</time>
      </trkpt>
      <trkpt lat="44.67249" lon="-0.62219">
        <ele>57</ele>
        <time>2019-05-14T14:27:09Z</time>
      </trkpt>
      <trkpt lat="44.6725" lon="-0.62224">
        <ele>57</ele>
        <time>2019-05-14T14:27:12Z</time>
      </trkpt>
      <trkpt lat="44.67257" lon="-0.62236">
        <ele>56</ele>
        <time>2019-05-14T14:27:15Z</time>
      </trkpt>
      <trkpt lat="44.67263" lon="-0.62245">
        <ele>56</ele>
        <time>2019-05-14T14:27:19Z</time>
      </trkpt>
      <trkpt lat="44.6727" lon="-0.62262">
        <ele>56</ele>
        <time>2019-05-14T14:27:24Z</time>
      </trkpt>
      <trkpt lat="44.67279" lon="-0.62281">
        <ele>57</ele>
        <time>2019-05-14T14:27:28Z</time>
      </trkpt>
      <trkpt lat="44.67291" lon="-0.62295">
        <ele>59</ele>
        <time>2019-05-14T14:27:31Z</time>
      </trkpt>
      <trkpt lat="44.67307" lon="-0.62303">
        <ele>59</ele>
        <time>2019-05-14T14:27:48Z</time>
      </trkpt>
      <trkpt lat="44.6733" lon="-0.62303">
        <ele>61</ele>
        <time>2019-05-14T14:27:49Z</time>
      </trkpt>
      <trkpt lat="44.67342" lon="-0.62316">
        <ele>69</ele>
        <time>2019-05-14T14:27:50Z</time>
      </trkpt>
      <trkpt lat="44.67354" lon="-0.62317">
        <ele>67</ele>
        <time>2019-05-14T14:27:51Z</time>
      </trkpt>
      <trkpt lat="44.67421" lon="-0.62336">
        <ele>65</ele>
        <time>2019-05-14T14:28:05Z</time>
      </trkpt>
      <trkpt lat="44.67424" lon="-0.62336">
        <ele>63</ele>
        <time>2019-05-14T14:28:10Z</time>
      </trkpt>
      <trkpt lat="44.67426" lon="-0.62339">
        <ele>63</ele>
        <time>2019-05-14T14:28:20Z</time>
      </trkpt>
      <trkpt lat="44.6743" lon="-0.62343">
        <ele>62</ele>
        <time>2019-05-14T14:28:21Z</time>
      </trkpt>
      <trkpt lat="44.67462" lon="-0.6242">
        <ele>63</ele>
        <time>2019-05-14T14:28:23Z</time>
      </trkpt>
      <trkpt lat="44.67475" lon="-0.6245">
        <ele>62</ele>
        <time>2019-05-14T14:28:25Z</time>
      </trkpt>
      <trkpt lat="44.67492" lon="-0.625">
        <ele>63</ele>
        <time>2019-05-14T14:28:28Z</time>
      </trkpt>
      <trkpt lat="44.67495" lon="-0.62503">
        <ele>63</ele>
        <time>2019-05-14T14:28:29Z</time>
      </trkpt>
      <trkpt lat="44.67501" lon="-0.6251">
        <ele>67</ele>
        <time>2019-05-14T14:28:30Z</time>
      </trkpt>
      <trkpt lat="44.67506" lon="-0.62525">
        <ele>69</ele>
        <time>2019-05-14T14:28:31Z</time>
      </trkpt>
      <trkpt lat="44.67511" lon="-0.62545">
        <ele>69</ele>
        <time>2019-05-14T14:28:35Z</time>
      </trkpt>
      <trkpt lat="44.67514" lon="-0.62549">
        <ele>68</ele>
        <time>2019-05-14T14:28:38Z</time>
      </trkpt>
      <trkpt lat="44.67518" lon="-0.62552">
        <ele>66</ele>
        <time>2019-05-14T14:28:39Z</time>
      </trkpt>
      <trkpt lat="44.67521" lon="-0.62551">
        <ele>67</ele>
        <time>2019-05-14T14:28:46Z</time>
      </trkpt>
      <trkpt lat="44.67539" lon="-0.6255">
        <ele>64</ele>
        <time>2019-05-14T14:28:47Z</time>
      </trkpt>
      <trkpt lat="44.67548" lon="-0.62547">
        <ele>63</ele>
        <time>2019-05-14T14:28:52Z</time>
      </trkpt>
      <trkpt lat="44.67552" lon="-0.62544">
        <ele>60</ele>
        <time>2019-05-14T14:28:59Z</time>
      </trkpt>
      <trkpt lat="44.67575" lon="-0.62527">
        <ele>59</ele>
        <time>2019-05-14T14:29:01Z</time>
      </trkpt>
      <trkpt lat="44.67578" lon="-0.62525">
        <ele>59</ele>
        <time>2019-05-14T14:29:03Z</time>
      </trkpt>
      <trkpt lat="44.67594" lon="-0.62523">
        <ele>62</ele>
        <time>2019-05-14T14:29:05Z</time>
      </trkpt>
      <trkpt lat="44.67615" lon="-0.62516">
        <ele>63</ele>
        <time>2019-05-14T14:29:11Z</time>
      </trkpt>
      <trkpt lat="44.6762" lon="-0.62513">
        <ele>63</ele>
        <time>2019-05-14T14:29:15Z</time>
      </trkpt>
      <trkpt lat="44.67628" lon="-0.6251">
        <ele>63</ele>
        <time>2019-05-14T14:29:19Z</time>
      </trkpt>
      <trkpt lat="44.67634" lon="-0.62506">
        <ele>63</ele>
        <time>2019-05-14T14:29:23Z</time>
      </trkpt>
      <trkpt lat="44.67651" lon="-0.62499">
        <ele>62</ele>
        <time>2019-05-14T14:29:27Z</time>
      </trkpt>
      <trkpt lat="44.67661" lon="-0.62493">
        <ele>61</ele>
        <time>2019-05-14T14:29:34Z</time>
      </trkpt>
      <trkpt lat="44.6767" lon="-0.62486">
        <ele>61</ele>
        <time>2019-05-14T14:29:36Z</time>
      </trkpt>
      <trkpt lat="44.67684" lon="-0.6248">
        <ele>61</ele>
        <time>2019-05-14T14:29:38Z</time>
      </trkpt>
      <trkpt lat="44.67699" lon="-0.62482">
        <ele>58</ele>
        <time>2019-05-14T14:29:41Z</time>
      </trkpt>
      <trkpt lat="44.67721" lon="-0.62466">
        <ele>56</ele>
        <time>2019-05-14T14:29:44Z</time>
      </trkpt>
      <trkpt lat="44.67727" lon="-0.62464">
        <ele>56</ele>
        <time>2019-05-14T14:29:49Z</time>
      </trkpt>
      <trkpt lat="44.67733" lon="-0.62465">
        <ele>56</ele>
        <time>2019-05-14T14:29:58Z</time>
      </trkpt>
      <trkpt lat="44.67736" lon="-0.62467">
        <ele>60</ele>
        <time>2019-05-14T14:30:16Z</time>
      </trkpt>
      <trkpt lat="44.67735" lon="-0.62472">
        <ele>62</ele>
        <time>2019-05-14T14:30:18Z</time>
      </trkpt>
      <trkpt lat="44.67736" lon="-0.62478">
        <ele>69</ele>
        <time>2019-05-14T14:30:20Z</time>
      </trkpt>
      <trkpt lat="44.67736" lon="-0.62485">
        <ele>72</ele>
        <time>2019-05-14T14:30:29Z</time>
      </trkpt>
      <trkpt lat="44.67736" lon="-0.62485">
        <ele>68</ele>
        <time>2019-05-14T14:30:40Z</time>
      </trkpt>
      <trkpt lat="44.67739" lon="-0.62482">
        <ele>67</ele>
        <time>2019-05-14T14:30:41Z</time>
      </trkpt>
      <trkpt lat="44.67741" lon="-0.62478">
        <ele>67</ele>
        <time>2019-05-14T14:30:43Z</time>
      </trkpt>
      <trkpt lat="44.67762" lon="-0.62468">
        <ele>63</ele>
        <time>2019-05-14T14:30:47Z</time>
      </trkpt>
      <trkpt lat="44.67795" lon="-0.62449">
        <ele>66</ele>
        <time>2019-05-14T14:30:49Z</time>
      </trkpt>
      <trkpt lat="44.67798" lon="-0.6245">
        <ele>66</ele>
        <time>2019-05-14T14:30:50Z</time>
      </trkpt>
      <trkpt lat="44.67802" lon="-0.62449">
        <ele>66</ele>
        <time>2019-05-14T14:30:53Z</time>
      </trkpt>
      <trkpt lat="44.67811" lon="-0.62443">
        <ele>67</ele>
        <time>2019-05-14T14:30:57Z</time>
      </trkpt>
      <trkpt lat="44.67817" lon="-0.62443">
        <ele>68</ele>
        <time>2019-05-14T14:30:59Z</time>
      </trkpt>
      <trkpt lat="44.6782" lon="-0.62445">
        <ele>68</ele>
        <time>2019-05-14T14:31:01Z</time>
      </trkpt>
      <trkpt lat="44.67835" lon="-0.62438">
        <ele>66</ele>
        <time>2019-05-14T14:31:03Z</time>
      </trkpt>
      <trkpt lat="44.67839" lon="-0.62432">
        <ele>63</ele>
        <time>2019-05-14T14:31:08Z</time>
      </trkpt>
      <trkpt lat="44.67845" lon="-0.62435">
        <ele>61</ele>
        <time>2019-05-14T14:31:19Z</time>
      </trkpt>
      <trkpt lat="44.67852" lon="-0.62431">
        <ele>61</ele>
        <time>2019-05-14T14:31:21Z</time>
      </trkpt>
      <trkpt lat="44.67856" lon="-0.62424">
        <ele>61</ele>
        <time>2019-05-14T14:31:22Z</time>
      </trkpt>
      <trkpt lat="44.67867" lon="-0.62417">
        <ele>66</ele>
        <time>2019-05-14T14:31:27Z</time>
      </trkpt>
      <trkpt lat="44.67898" lon="-0.62399">
        <ele>74</ele>
        <time>2019-05-14T14:31:30Z</time>
      </trkpt>
      <trkpt lat="44.67905" lon="-0.62396">
        <ele>76</ele>
        <time>2019-05-14T14:31:32Z</time>
      </trkpt>
      <trkpt lat="44.67909" lon="-0.62397">
        <ele>77</ele>
        <time>2019-05-14T14:31:34Z</time>
      </trkpt>
      <trkpt lat="44.6793" lon="-0.6239">
        <ele>76</ele>
        <time>2019-05-14T14:31:36Z</time>
      </trkpt>
      <trkpt lat="44.67942" lon="-0.62386">
        <ele>72</ele>
        <time>2019-05-14T14:31:37Z</time>
      </trkpt>
      <trkpt lat="44.67948" lon="-0.62385">
        <ele>72</ele>
        <time>2019-05-14T14:31:41Z</time>
      </trkpt>
      <trkpt lat="44.67955" lon="-0.62379">
        <ele>71</ele>
        <time>2019-05-14T14:31:42Z</time>
      </trkpt>
      <trkpt lat="44.67964" lon="-0.62378">
        <ele>71</ele>
        <time>2019-05-14T14:31:59Z</time>
      </trkpt>
      <trkpt lat="44.67967" lon="-0.62377">
        <ele>70</ele>
        <time>2019-05-14T14:32:01Z</time>
      </trkpt>
      <trkpt lat="44.67977" lon="-0.62383">
        <ele>69</ele>
        <time>2019-05-14T14:32:03Z</time>
      </trkpt>
      <trkpt lat="44.67978" lon="-0.62388">
        <ele>68</ele>
        <time>2019-05-14T14:32:11Z</time>
      </trkpt>
      <trkpt lat="44.6796" lon="-0.62465">
        <ele>62</ele>
        <time>2019-05-14T14:32:13Z</time>
      </trkpt>
      <trkpt lat="44.67961" lon="-0.6247">
        <ele>62</ele>
        <time>2019-05-14T14:32:19Z</time>
      </trkpt>
      <trkpt lat="44.67963" lon="-0.62474">
        <ele>62</ele>
        <time>2019-05-14T14:32:22Z</time>
      </trkpt>
      <trkpt lat="44.67981" lon="-0.62489">
        <ele>60</ele>
        <time>2019-05-14T14:32:28Z</time>
      </trkpt>
      <trkpt lat="44.67985" lon="-0.62493">
        <ele>60</ele>
        <time>2019-05-14T14:32:34Z</time>
      </trkpt>
      <trkpt lat="44.68004" lon="-0.62507">
        <ele>59</ele>
        <time>2019-05-14T14:32:40Z</time>
      </trkpt>
      <trkpt lat="44.68013" lon="-0.62517">
        <ele>58</ele>
        <time>2019-05-14T14:32:45Z</time>
      </trkpt>
      <trkpt lat="44.68035" lon="-0.62531">
        <ele>57</ele>
        <time>2019-05-14T14:32:50Z</time>
      </trkpt>
      <trkpt lat="44.68058" lon="-0.62551">
        <ele>57</ele>
        <time>2019-05-14T14:32:54Z</time>
      </trkpt>
      <trkpt lat="44.68083" lon="-0.62571">
        <ele>55</ele>
        <time>2019-05-14T14:32:56Z</time>
      </trkpt>
      <trkpt lat="44.68098" lon="-0.62587">
        <ele>55</ele>
        <time>2019-05-14T14:32:58Z</time>
      </trkpt>
      <trkpt lat="44.68113" lon="-0.62595">
        <ele>57</ele>
        <time>2019-05-14T14:32:59Z</time>
      </trkpt>
      <trkpt lat="44.6813" lon="-0.62616">
        <ele>56</ele>
        <time>2019-05-14T14:33:01Z</time>
      </trkpt>
      <trkpt lat="44.68137" lon="-0.62611">
        <ele>58</ele>
        <time>2019-05-14T14:33:02Z</time>
      </trkpt>
      <trkpt lat="44.68145" lon="-0.62621">
        <ele>59</ele>
        <time>2019-05-14T14:33:05Z</time>
      </trkpt>
      <trkpt lat="44.6815" lon="-0.62625">
        <ele>58</ele>
        <time>2019-05-14T14:33:11Z</time>
      </trkpt>
      <trkpt lat="44.6816" lon="-0.62637">
        <ele>52</ele>
        <time>2019-05-14T14:33:12Z</time>
      </trkpt>
      <trkpt lat="44.68165" lon="-0.62644">
        <ele>49</ele>
        <time>2019-05-14T14:33:14Z</time>
      </trkpt>
      <trkpt lat="44.68178" lon="-0.62658">
        <ele>47</ele>
        <time>2019-05-14T14:33:20Z</time>
      </trkpt>
      <trkpt lat="44.68201" lon="-0.62676">
        <ele>50</ele>
        <time>2019-05-14T14:33:22Z</time>
      </trkpt>
      <trkpt lat="44.68204" lon="-0.62682">
        <ele>51</ele>
        <time>2019-05-14T14:33:28Z</time>
      </trkpt>
      <trkpt lat="44.68212" lon="-0.62683">
        <ele>52</ele>
        <time>2019-05-14T14:33:39Z</time>
      </trkpt>
      <trkpt lat="44.68237" lon="-0.62702">
        <ele>56</ele>
        <time>2019-05-14T14:33:43Z</time>
      </trkpt>
      <trkpt lat="44.68245" lon="-0.6271">
        <ele>57</ele>
        <time>2019-05-14T14:33:45Z</time>
      </trkpt>
      <trkpt lat="44.68271" lon="-0.62728">
        <ele>56</ele>
        <time>2019-05-14T14:33:49Z</time>
      </trkpt>
      <trkpt lat="44.68323" lon="-0.62737">
        <ele>56</ele>
        <time>2019-05-14T14:33:51Z</time>
      </trkpt>
      <trkpt lat="44.68343" lon="-0.62737">
        <ele>56</ele>
        <time>2019-05-14T14:34:00Z</time>
      </trkpt>
      <trkpt lat="44.6835" lon="-0.62736">
        <ele>56</ele>
        <time>2019-05-14T14:34:02Z</time>
      </trkpt>
      <trkpt lat="44.6837" lon="-0.62737">
        <ele>57</ele>
        <time>2019-05-14T14:34:03Z</time>
      </trkpt>
      <trkpt lat="44.68383" lon="-0.62742">
        <ele>56</ele>
        <time>2019-05-14T14:34:05Z</time>
      </trkpt>
      <trkpt lat="44.68426" lon="-0.62747">
        <ele>57</ele>
        <time>2019-05-14T14:34:08Z</time>
      </trkpt>
      <trkpt lat="44.68434" lon="-0.62748">
        <ele>57</ele>
        <time>2019-05-14T14:34:11Z</time>
      </trkpt>
      <trkpt lat="44.68436" lon="-0.62751">
        <ele>56</ele>
        <time>2019-05-14T14:34:21Z</time>
      </trkpt>
      <trkpt lat="44.68447" lon="-0.62755">
        <ele>53</ele>
        <time>2019-05-14T14:34:25Z</time>
      </trkpt>
      <trkpt lat="44.68458" lon="-0.62756">
        <ele>53</ele>
        <time>2019-05-14T14:34:27Z</time>
      </trkpt>
      <trkpt lat="44.68465" lon="-0.62757">
        <ele>53</ele>
        <time>2019-05-14T14:34:47Z</time>
      </trkpt>
      <trkpt lat="44.68465" lon="-0.62757">
        <ele>53</ele>
        <time>2019-05-14T14:35:07Z</time>
      </trkpt>
      <trkpt lat="44.68466" lon="-0.62753">
        <ele>53</ele>
        <time>2019-05-14T14:35:22Z</time>
      </trkpt>
      <trkpt lat="44.68465" lon="-0.62749">
        <ele>54</ele>
        <time>2019-05-14T14:35:25Z</time>
      </trkpt>
      <trkpt lat="44.68468" lon="-0.62747">
        <ele>58</ele>
        <time>2019-05-14T14:35:38Z</time>
      </trkpt>
      <trkpt lat="44.6847" lon="-0.62755">
        <ele>62</ele>
        <time>2019-05-14T14:35:47Z</time>
      </trkpt>
      <trkpt lat="44.68469" lon="-0.62758">
        <ele>62</ele>
        <time>2019-05-14T14:36:10Z</time>
      </trkpt>
      <trkpt lat="44.68471" lon="-0.62761">
        <ele>62</ele>
        <time>2019-05-14T14:36:12Z</time>
      </trkpt>
      <trkpt lat="44.68471" lon="-0.62763">
        <ele>64</ele>
        <time>2019-05-14T14:36:25Z</time>
      </trkpt>
      <trkpt lat="44.68474" lon="-0.62764">
        <ele>65</ele>
        <time>2019-05-14T14:36:28Z</time>
      </trkpt>
      <trkpt lat="44.68472" lon="-0.62763">
        <ele>64</ele>
        <time>2019-05-14T14:36:30Z</time>
      </trkpt>
      <trkpt lat="44.6847" lon="-0.62766">
        <ele>64</ele>
        <time>2019-05-14T14:36:32Z</time>
      </trkpt>
      <trkpt lat="44.68458" lon="-0.62786">
        <ele>72</ele>
        <time>2019-05-14T14:36:34Z</time>
      </trkpt>
      <trkpt lat="44.68459" lon="-0.62777">
        <ele>88</ele>
        <time>2019-05-14T14:36:55Z</time>
      </trkpt>
      <trkpt lat="44.68464" lon="-0.62775">
        <ele>85</ele>
        <time>2019-05-14T14:37:03Z</time>
      </trkpt>
      <trkpt lat="44.68466" lon="-0.6277">
        <ele>72</ele>
        <time>2019-05-14T14:37:13Z</time>
      </trkpt>
      <trkpt lat="44.68468" lon="-0.62766">
        <ele>69</ele>
        <time>2019-05-14T14:37:15Z</time>
      </trkpt>
      <trkpt lat="44.68467" lon="-0.62765">
        <ele>74</ele>
        <time>2019-05-14T14:37:22Z</time>
      </trkpt>
      <trkpt lat="44.68465" lon="-0.62761">
        <ele>73</ele>
        <time>2019-05-14T14:37:23Z</time>
      </trkpt>
      <trkpt lat="44.68465" lon="-0.62757">
        <ele>69</ele>
        <time>2019-05-14T14:37:25Z</time>
      </trkpt>
      <trkpt lat="44.68465" lon="-0.62752">
        <ele>68</ele>
        <time>2019-05-14T14:37:36Z</time>
      </trkpt>
      <trkpt lat="44.68461" lon="-0.62756">
        <ele>66</ele>
        <time>2019-05-14T14:37:52Z</time>
      </trkpt>
      <trkpt lat="44.68463" lon="-0.62761">
        <ele>66</ele>
        <time>2019-05-14T14:37:57Z</time>
      </trkpt>
      <trkpt lat="44.68465" lon="-0.62765">
        <ele>66</ele>
        <time>2019-05-14T14:38:00Z</time>
      </trkpt>
      <trkpt lat="44.68471" lon="-0.62758">
        <ele>61</ele>
        <time>2019-05-14T14:38:06Z</time>
      </trkpt>
      <trkpt lat="44.68472" lon="-0.62761">
        <ele>66</ele>
        <time>2019-05-14T14:38:10Z</time>
      </trkpt>
      <trkpt lat="44.68469" lon="-0.62764">
        <ele>66</ele>
        <time>2019-05-14T14:38:13Z</time>
      </trkpt>
      <trkpt lat="44.68466" lon="-0.62759">
        <ele>67</ele>
        <time>2019-05-14T14:38:16Z</time>
      </trkpt>
      <trkpt lat="44.6847" lon="-0.62755">
        <ele>67</ele>
        <time>2019-05-14T14:38:20Z</time>
      </trkpt>
      <trkpt lat="44.6849" lon="-0.62755">
        <ele>74</ele>
        <time>2019-05-14T14:38:23Z</time>
      </trkpt>
      <trkpt lat="44.68482" lon="-0.62752">
        <ele>67</ele>
        <time>2019-05-14T14:38:31Z</time>
      </trkpt>
      <trkpt lat="44.68479" lon="-0.62751">
        <ele>60</ele>
        <time>2019-05-14T14:38:35Z</time>
      </trkpt>
      <trkpt lat="44.68476" lon="-0.62752">
        <ele>58</ele>
        <time>2019-05-14T14:38:39Z</time>
      </trkpt>
      <trkpt lat="44.68473" lon="-0.6275">
        <ele>59</ele>
        <time>2019-05-14T14:38:42Z</time>
      </trkpt>
      <trkpt lat="44.68471" lon="-0.62747">
        <ele>59</ele>
        <time>2019-05-14T14:38:43Z</time>
      </trkpt>
      <trkpt lat="44.68473" lon="-0.62739">
        <ele>58</ele>
        <time>2019-05-14T14:38:45Z</time>
      </trkpt>
      <trkpt lat="44.68473" lon="-0.62727">
        <ele>58</ele>
        <time>2019-05-14T14:38:48Z</time>
      </trkpt>
      <trkpt lat="44.68476" lon="-0.62722">
        <ele>59</ele>
        <time>2019-05-14T14:38:50Z</time>
      </trkpt>
      <trkpt lat="44.68476" lon="-0.62717">
        <ele>60</ele>
        <time>2019-05-14T14:38:55Z</time>
      </trkpt>
      <trkpt lat="44.68477" lon="-0.62708">
        <ele>60</ele>
        <time>2019-05-14T14:39:25Z</time>
      </trkpt>
      <trkpt lat="44.68479" lon="-0.62693">
        <ele>60</ele>
        <time>2019-05-14T14:39:43Z</time>
      </trkpt>
      <trkpt lat="44.6848" lon="-0.62681">
        <ele>60</ele>
        <time>2019-05-14T14:39:47Z</time>
      </trkpt>
      <trkpt lat="44.68484" lon="-0.62657">
        <ele>58</ele>
        <time>2019-05-14T14:39:53Z</time>
      </trkpt>
      <trkpt lat="44.68518" lon="-0.62481">
        <ele>55</ele>
        <time>2019-05-14T14:40:00Z</time>
      </trkpt>
      <trkpt lat="44.68537" lon="-0.62376">
        <ele>52</ele>
        <time>2019-05-14T14:40:05Z</time>
      </trkpt>
      <trkpt lat="44.68541" lon="-0.62354">
        <ele>52</ele>
        <time>2019-05-14T14:40:17Z</time>
      </trkpt>
      <trkpt lat="44.68547" lon="-0.62315">
        <ele>52</ele>
        <time>2019-05-14T14:40:19Z</time>
      </trkpt>
      <trkpt lat="44.68557" lon="-0.62276">
        <ele>52</ele>
        <time>2019-05-14T14:40:21Z</time>
      </trkpt>
      <trkpt lat="44.68562" lon="-0.62246">
        <ele>52</ele>
        <time>2019-05-14T14:40:22Z</time>
      </trkpt>
      <trkpt lat="44.68574" lon="-0.62178">
        <ele>57</ele>
        <time>2019-05-14T14:40:24Z</time>
      </trkpt>
      <trkpt lat="44.68574" lon="-0.6217">
        <ele>57</ele>
        <time>2019-05-14T14:40:26Z</time>
      </trkpt>
      <trkpt lat="44.68573" lon="-0.62159">
        <ele>57</ele>
        <time>2019-05-14T14:40:27Z</time>
      </trkpt>
      <trkpt lat="44.68574" lon="-0.62154">
        <ele>57</ele>
        <time>2019-05-14T14:40:32Z</time>
      </trkpt>
      <trkpt lat="44.68579" lon="-0.62139">
        <ele>58</ele>
        <time>2019-05-14T14:40:34Z</time>
      </trkpt>
      <trkpt lat="44.68583" lon="-0.62127">
        <ele>58</ele>
        <time>2019-05-14T14:40:35Z</time>
      </trkpt>
      <trkpt lat="44.68585" lon="-0.62122">
        <ele>57</ele>
        <time>2019-05-14T14:40:36Z</time>
      </trkpt>
      <trkpt lat="44.68589" lon="-0.62092">
        <ele>64</ele>
        <time>2019-05-14T14:40:37Z</time>
      </trkpt>
      <trkpt lat="44.68593" lon="-0.62078">
        <ele>62</ele>
        <time>2019-05-14T14:41:07Z</time>
      </trkpt>
      <trkpt lat="44.68597" lon="-0.62073">
        <ele>60</ele>
        <time>2019-05-14T14:41:25Z</time>
      </trkpt>
      <trkpt lat="44.68601" lon="-0.62071">
        <ele>58</ele>
        <time>2019-05-14T14:41:27Z</time>
      </trkpt>
      <trkpt lat="44.68605" lon="-0.62071">
        <ele>57</ele>
        <time>2019-05-14T14:41:39Z</time>
      </trkpt>
      <trkpt lat="44.68715" lon="-0.62176">
        <ele>52</ele>
        <time>2019-05-14T14:41:42Z</time>
      </trkpt>
      <trkpt lat="44.68783" lon="-0.62243">
        <ele>54</ele>
        <time>2019-05-14T14:41:49Z</time>
      </trkpt>
      <trkpt lat="44.68791" lon="-0.62249">
        <ele>53</ele>
        <time>2019-05-14T14:41:50Z</time>
      </trkpt>
      <trkpt lat="44.68835" lon="-0.62292">
        <ele>56</ele>
        <time>2019-05-14T14:41:52Z</time>
      </trkpt>
      <trkpt lat="44.68849" lon="-0.623">
        <ele>56</ele>
        <time>2019-05-14T14:41:57Z</time>
      </trkpt>
      <trkpt lat="44.68875" lon="-0.62329">
        <ele>56</ele>
        <time>2019-05-14T14:41:59Z</time>
      </trkpt>
      <trkpt lat="44.6888" lon="-0.62331">
        <ele>56</ele>
        <time>2019-05-14T14:42:21Z</time>
      </trkpt>
      <trkpt lat="44.68888" lon="-0.62338">
        <ele>56</ele>
        <time>2019-05-14T14:42:22Z</time>
      </trkpt>
      <trkpt lat="44.68904" lon="-0.62359">
        <ele>56</ele>
        <time>2019-05-14T14:42:52Z</time>
      </trkpt>
      <trkpt lat="44.68913" lon="-0.62363">
        <ele>57</ele>
        <time>2019-05-14T14:42:57Z</time>
      </trkpt>
      <trkpt lat="44.68995" lon="-0.62444">
        <ele>56</ele>
        <time>2019-05-14T14:43:27Z</time>
      </trkpt>
      <trkpt lat="44.68999" lon="-0.62447">
        <ele>56</ele>
        <time>2019-05-14T14:43:46Z</time>
      </trkpt>
      <trkpt lat="44.69111" lon="-0.62558">
        <ele>57</ele>
        <time>2019-05-14T14:43:59Z</time>
      </trkpt>
      <trkpt lat="44.69131" lon="-0.62575">
        <ele>54</ele>
        <time>2019-05-14T14:44:05Z</time>
      </trkpt>
      <trkpt lat="44.69244" lon="-0.62687">
        <ele>57</ele>
        <time>2019-05-14T14:44:26Z</time>
      </trkpt>
      <trkpt lat="44.69322" lon="-0.62755">
        <ele>53</ele>
        <time>2019-05-14T14:44:34Z</time>
      </trkpt>
      <trkpt lat="44.6938" lon="-0.62798">
        <ele>50</ele>
        <time>2019-05-14T14:44:37Z</time>
      </trkpt>
      <trkpt lat="44.69404" lon="-0.62821">
        <ele>50</ele>
        <time>2019-05-14T14:44:41Z</time>
      </trkpt>
      <trkpt lat="44.695" lon="-0.62889">
        <ele>55</ele>
        <time>2019-05-14T14:44:44Z</time>
      </trkpt>
      <trkpt lat="44.69534" lon="-0.6292">
        <ele>57</ele>
        <time>2019-05-14T14:44:48Z</time>
      </trkpt>
      <trkpt lat="44.6955" lon="-0.62924">
        <ele>60</ele>
        <time>2019-05-14T14:44:50Z</time>
      </trkpt>
      <trkpt lat="44.69567" lon="-0.6294">
        <ele>61</ele>
        <time>2019-05-14T14:44:52Z</time>
      </trkpt>
      <trkpt lat="44.6958" lon="-0.62952">
        <ele>65</ele>
        <time>2019-05-14T14:44:55Z</time>
      </trkpt>
      <trkpt lat="44.696" lon="-0.62966">
        <ele>62</ele>
        <time>2019-05-14T14:44:57Z</time>
      </trkpt>
      <trkpt lat="44.69607" lon="-0.62975">
        <ele>61</ele>
        <time>2019-05-14T14:45:01Z</time>
      </trkpt>
      <trkpt lat="44.69614" lon="-0.62984">
        <ele>61</ele>
        <time>2019-05-14T14:45:03Z</time>
      </trkpt>
      <trkpt lat="44.69626" lon="-0.62992">
        <ele>61</ele>
        <time>2019-05-14T14:45:06Z</time>
      </trkpt>
      <trkpt lat="44.69635" lon="-0.62998">
        <ele>61</ele>
        <time>2019-05-14T14:45:08Z</time>
      </trkpt>
      <trkpt lat="44.69652" lon="-0.63013">
        <ele>59</ele>
        <time>2019-05-14T14:45:23Z</time>
      </trkpt>
      <trkpt lat="44.69662" lon="-0.63014">
        <ele>57</ele>
        <time>2019-05-14T14:45:24Z</time>
      </trkpt>
      <trkpt lat="44.69673" lon="-0.63031">
        <ele>61</ele>
        <time>2019-05-14T14:45:32Z</time>
      </trkpt>
      <trkpt lat="44.69683" lon="-0.63039">
        <ele>59</ele>
        <time>2019-05-14T14:45:37Z</time>
      </trkpt>
      <trkpt lat="44.69747" lon="-0.63084">
        <ele>58</ele>
        <time>2019-05-14T14:45:44Z</time>
      </trkpt>
      <trkpt lat="44.6975" lon="-0.63085">
        <ele>58</ele>
        <time>2019-05-14T14:45:47Z</time>
      </trkpt>
      <trkpt lat="44.69783" lon="-0.63112">
        <ele>56</ele>
        <time>2019-05-14T14:45:48Z</time>
      </trkpt>
      <trkpt lat="44.69802" lon="-0.63119">
        <ele>56</ele>
        <time>2019-05-14T14:45:50Z</time>
      </trkpt>
      <trkpt lat="44.69828" lon="-0.63144">
        <ele>56</ele>
        <time>2019-05-14T14:45:52Z</time>
      </trkpt>
      <trkpt lat="44.69832" lon="-0.63163">
        <ele>64</ele>
        <time>2019-05-14T14:45:54Z</time>
      </trkpt>
      <trkpt lat="44.6984" lon="-0.6316">
        <ele>55</ele>
        <time>2019-05-14T14:45:56Z</time>
      </trkpt>
      <trkpt lat="44.69846" lon="-0.63167">
        <ele>61</ele>
        <time>2019-05-14T14:45:59Z</time>
      </trkpt>
      <trkpt lat="44.69858" lon="-0.63169">
        <ele>60</ele>
        <time>2019-05-14T14:46:07Z</time>
      </trkpt>
      <trkpt lat="44.69865" lon="-0.63177">
        <ele>61</ele>
        <time>2019-05-14T14:46:12Z</time>
      </trkpt>
      <trkpt lat="44.69877" lon="-0.63182">
        <ele>63</ele>
        <time>2019-05-14T14:46:14Z</time>
      </trkpt>
      <trkpt lat="44.6989" lon="-0.63185">
        <ele>68</ele>
        <time>2019-05-14T14:46:15Z</time>
      </trkpt>
      <trkpt lat="44.69911" lon="-0.63205">
        <ele>74</ele>
        <time>2019-05-14T14:46:16Z</time>
      </trkpt>
      <trkpt lat="44.6993" lon="-0.63215">
        <ele>69</ele>
        <time>2019-05-14T14:46:19Z</time>
      </trkpt>
      <trkpt lat="44.69937" lon="-0.63215">
        <ele>69</ele>
        <time>2019-05-14T14:46:41Z</time>
      </trkpt>
      <trkpt lat="44.6994" lon="-0.63221">
        <ele>66</ele>
        <time>2019-05-14T14:46:43Z</time>
      </trkpt>
      <trkpt lat="44.69943" lon="-0.63224">
        <ele>65</ele>
        <time>2019-05-14T14:46:59Z</time>
      </trkpt>
      <trkpt lat="44.69951" lon="-0.63237">
        <ele>60</ele>
        <time>2019-05-14T14:47:02Z</time>
      </trkpt>
      <trkpt lat="44.70049" lon="-0.63316">
        <ele>54</ele>
        <time>2019-05-14T14:47:07Z</time>
      </trkpt>
      <trkpt lat="44.70058" lon="-0.63324">
        <ele>52</ele>
        <time>2019-05-14T14:47:08Z</time>
      </trkpt>
      <trkpt lat="44.70133" lon="-0.63376">
        <ele>54</ele>
        <time>2019-05-14T14:47:09Z</time>
      </trkpt>
      <trkpt lat="44.70145" lon="-0.63387">
        <ele>55</ele>
        <time>2019-05-14T14:47:11Z</time>
      </trkpt>
      <trkpt lat="44.7017" lon="-0.63403">
        <ele>56</ele>
        <time>2019-05-14T14:47:13Z</time>
      </trkpt>
      <trkpt lat="44.70173" lon="-0.63408">
        <ele>57</ele>
        <time>2019-05-14T14:47:15Z</time>
      </trkpt>
      <trkpt lat="44.70175" lon="-0.63411">
        <ele>57</ele>
        <time>2019-05-14T14:47:27Z</time>
      </trkpt>
      <trkpt lat="44.70182" lon="-0.6342">
        <ele>57</ele>
        <time>2019-05-14T14:47:29Z</time>
      </trkpt>
      <trkpt lat="44.70188" lon="-0.63426">
        <ele>58</ele>
        <time>2019-05-14T14:47:30Z</time>
      </trkpt>
      <trkpt lat="44.70193" lon="-0.63432">
        <ele>58</ele>
        <time>2019-05-14T14:47:31Z</time>
      </trkpt>
      <trkpt lat="44.7025" lon="-0.63479">
        <ele>55</ele>
        <time>2019-05-14T14:47:32Z</time>
      </trkpt>
      <trkpt lat="44.70259" lon="-0.6348">
        <ele>54</ele>
        <time>2019-05-14T14:47:40Z</time>
      </trkpt>
      <trkpt lat="44.70262" lon="-0.63479">
        <ele>54</ele>
        <time>2019-05-14T14:47:44Z</time>
      </trkpt>
      <trkpt lat="44.70266" lon="-0.63477">
        <ele>55</ele>
        <time>2019-05-14T14:48:04Z</time>
      </trkpt>
      <trkpt lat="44.70271" lon="-0.63476">
        <ele>55</ele>
        <time>2019-05-14T14:48:06Z</time>
      </trkpt>
      <trkpt lat="44.70309" lon="-0.63477">
        <ele>56</ele>
        <time>2019-05-14T14:48:08Z</time>
      </trkpt>
      <trkpt lat="44.70323" lon="-0.63475">
        <ele>56</ele>
        <time>2019-05-14T14:48:11Z</time>
      </trkpt>
      <trkpt lat="44.70419" lon="-0.63449">
        <ele>52</ele>
        <time>2019-05-14T14:48:36Z</time>
      </trkpt>
      <trkpt lat="44.70427" lon="-0.63453">
        <ele>51</ele>
        <time>2019-05-14T14:48:43Z</time>
      </trkpt>
      <trkpt lat="44.70435" lon="-0.6346">
        <ele>51</ele>
        <time>2019-05-14T14:48:58Z</time>
      </trkpt>
      <trkpt lat="44.70445" lon="-0.63475">
        <ele>51</ele>
        <time>2019-05-14T14:49:00Z</time>
      </trkpt>
      <trkpt lat="44.70527" lon="-0.63592">
        <ele>51</ele>
        <time>2019-05-14T14:49:01Z</time>
      </trkpt>
      <trkpt lat="44.70547" lon="-0.63622">
        <ele>52</ele>
        <time>2019-05-14T14:49:03Z</time>
      </trkpt>
      <trkpt lat="44.7059" lon="-0.63679">
        <ele>57</ele>
        <time>2019-05-14T14:50:41Z</time>
      </trkpt>
      <trkpt lat="44.70593" lon="-0.63688">
        <ele>57</ele>
        <time>2019-05-14T14:50:51Z</time>
      </trkpt>
      <trkpt lat="44.70594" lon="-0.63692">
        <ele>56</ele>
        <time>2019-05-14T14:50:55Z</time>
      </trkpt>
      <trkpt lat="44.70597" lon="-0.63698">
        <ele>56</ele>
        <time>2019-05-14T14:50:57Z</time>
      </trkpt>
      <trkpt lat="44.70599" lon="-0.63698">
        <ele>58</ele>
        <time>2019-05-14T14:50:58Z</time>
      </trkpt>
      <trkpt lat="44.70608" lon="-0.63702">
        <ele>56</ele>
        <time>2019-05-14T14:51:05Z</time>
      </trkpt>
      <trkpt lat="44.70618" lon="-0.63697">
        <ele>57</ele>
        <time>2019-05-14T14:51:35Z</time>
      </trkpt>
      <trkpt lat="44.70623" lon="-0.63693">
        <ele>54</ele>
        <time>2019-05-14T14:51:44Z</time>
      </trkpt>
      <trkpt lat="44.70626" lon="-0.63697">
        <ele>53</ele>
        <time>2019-05-14T14:51:47Z</time>
      </trkpt>
      <trkpt lat="44.70641" lon="-0.63695">
        <ele>56</ele>
        <time>2019-05-14T14:51:54Z</time>
      </trkpt>
      <trkpt lat="44.70766" lon="-0.63665">
        <ele>55</ele>
        <time>2019-05-14T14:51:57Z</time>
      </trkpt>
      <trkpt lat="44.70815" lon="-0.63662">
        <ele>52</ele>
        <time>2019-05-14T14:52:00Z</time>
      </trkpt>
      <trkpt lat="44.7084" lon="-0.6366">
        <ele>47</ele>
        <time>2019-05-14T14:52:09Z</time>
      </trkpt>
      <trkpt lat="44.70876" lon="-0.6365">
        <ele>48</ele>
        <time>2019-05-14T14:52:24Z</time>
      </trkpt>
      <trkpt lat="44.70889" lon="-0.63645">
        <ele>49</ele>
        <time>2019-05-14T14:52:31Z</time>
      </trkpt>
      <trkpt lat="44.70904" lon="-0.63652">
        <ele>50</ele>
        <time>2019-05-14T14:52:35Z</time>
      </trkpt>
      <trkpt lat="44.70944" lon="-0.63685">
        <ele>54</ele>
        <time>2019-05-14T14:52:42Z</time>
      </trkpt>
      <trkpt lat="44.71011" lon="-0.63755">
        <ele>48</ele>
        <time>2019-05-14T14:52:43Z</time>
      </trkpt>
      <trkpt lat="44.7104" lon="-0.63772">
        <ele>49</ele>
        <time>2019-05-14T14:52:45Z</time>
      </trkpt>
      <trkpt lat="44.71059" lon="-0.63772">
        <ele>49</ele>
        <time>2019-05-14T14:52:47Z</time>
      </trkpt>
      <trkpt lat="44.71088" lon="-0.63764">
        <ele>49</ele>
        <time>2019-05-14T14:52:48Z</time>
      </trkpt>
      <trkpt lat="44.71092" lon="-0.63762">
        <ele>50</ele>
        <time>2019-05-14T14:52:56Z</time>
      </trkpt>
      <trkpt lat="44.71103" lon="-0.63752">
        <ele>57</ele>
        <time>2019-05-14T14:52:58Z</time>
      </trkpt>
      <trkpt lat="44.71108" lon="-0.63759">
        <ele>58</ele>
        <time>2019-05-14T14:53:13Z</time>
      </trkpt>
      <trkpt lat="44.71113" lon="-0.63756">
        <ele>57</ele>
        <time>2019-05-14T14:53:17Z</time>
      </trkpt>
      <trkpt lat="44.71147" lon="-0.63741">
        <ele>53</ele>
        <time>2019-05-14T14:53:19Z</time>
      </trkpt>
      <trkpt lat="44.71154" lon="-0.63734">
        <ele>56</ele>
        <time>2019-05-14T14:53:21Z</time>
      </trkpt>
      <trkpt lat="44.71213" lon="-0.63714">
        <ele>56</ele>
        <time>2019-05-14T14:53:28Z</time>
      </trkpt>
      <trkpt lat="44.71223" lon="-0.63711">
        <ele>56</ele>
        <time>2019-05-14T14:53:31Z</time>
      </trkpt>
      <trkpt lat="44.7123" lon="-0.63706">
        <ele>58</ele>
        <time>2019-05-14T14:53:48Z</time>
      </trkpt>
      <trkpt lat="44.71243" lon="-0.63707">
        <ele>54</ele>
        <time>2019-05-14T14:53:49Z</time>
      </trkpt>
      <trkpt lat="44.71268" lon="-0.63693">
        <ele>49</ele>
        <time>2019-05-14T14:53:51Z</time>
      </trkpt>
      <trkpt lat="44.71279" lon="-0.63686">
        <ele>53</ele>
        <time>2019-05-14T14:53:53Z</time>
      </trkpt>
      <trkpt lat="44.71348" lon="-0.63664">
        <ele>51</ele>
        <time>2019-05-14T14:53:54Z</time>
      </trkpt>
      <trkpt lat="44.71351" lon="-0.63666">
        <ele>51</ele>
        <time>2019-05-14T14:53:56Z</time>
      </trkpt>
      <trkpt lat="44.71357" lon="-0.63667">
        <ele>50</ele>
        <time>2019-05-14T14:54:23Z</time>
      </trkpt>
      <trkpt lat="44.71358" lon="-0.63671">
        <ele>50</ele>
        <time>2019-05-14T14:54:27Z</time>
      </trkpt>
      <trkpt lat="44.71358" lon="-0.63675">
        <ele>49</ele>
        <time>2019-05-14T14:54:29Z</time>
      </trkpt>
      <trkpt lat="44.7136" lon="-0.63681">
        <ele>49</ele>
        <time>2019-05-14T14:54:49Z</time>
      </trkpt>
      <trkpt lat="44.71314" lon="-0.63832">
        <ele>51</ele>
        <time>2019-05-14T14:55:06Z</time>
      </trkpt>
      <trkpt lat="44.71306" lon="-0.63854">
        <ele>50</ele>
        <time>2019-05-14T14:55:13Z</time>
      </trkpt>
      <trkpt lat="44.71303" lon="-0.63864">
        <ele>50</ele>
        <time>2019-05-14T14:55:16Z</time>
      </trkpt>
      <trkpt lat="44.71255" lon="-0.63975">
        <ele>49</ele>
        <time>2019-05-14T14:55:17Z</time>
      </trkpt>
      <trkpt lat="44.71209" lon="-0.64075">
        <ele>51</ele>
        <time>2019-05-14T14:55:18Z</time>
      </trkpt>
      <trkpt lat="44.71192" lon="-0.64112">
        <ele>50</ele>
        <time>2019-05-14T14:55:19Z</time>
      </trkpt>
      <trkpt lat="44.71186" lon="-0.64122">
        <ele>49</ele>
        <time>2019-05-14T14:55:26Z</time>
      </trkpt>
      <trkpt lat="44.71186" lon="-0.64126">
        <ele>49</ele>
        <time>2019-05-14T14:55:56Z</time>
      </trkpt>
      <trkpt lat="44.71187" lon="-0.64131">
        <ele>49</ele>
        <time>2019-05-14T14:56:21Z</time>
      </trkpt>
      <trkpt lat="44.71191" lon="-0.64133">
        <ele>50</ele>
        <time>2019-05-14T14:56:22Z</time>
      </trkpt>
      <trkpt lat="44.71216" lon="-0.64138">
        <ele>52</ele>
        <time>2019-05-14T14:56:27Z</time>
      </trkpt>
      <trkpt lat="44.71353" lon="-0.64147">
        <ele>49</ele>
        <time>2019-05-14T14:56:30Z</time>
      </trkpt>
      <trkpt lat="44.71457" lon="-0.6416">
        <ele>50</ele>
        <time>2019-05-14T14:56:32Z</time>
      </trkpt>
      <trkpt lat="44.7146" lon="-0.64155">
        <ele>53</ele>
        <time>2019-05-14T14:56:33Z</time>
      </trkpt>
      <trkpt lat="44.71473" lon="-0.64154">
        <ele>56</ele>
        <time>2019-05-14T14:56:35Z</time>
      </trkpt>
      <trkpt lat="44.71478" lon="-0.6415">
        <ele>65</ele>
        <time>2019-05-14T14:56:44Z</time>
      </trkpt>
      <trkpt lat="44.71487" lon="-0.64153">
        <ele>67</ele>
        <time>2019-05-14T14:56:48Z</time>
      </trkpt>
      <trkpt lat="44.71491" lon="-0.64154">
        <ele>69</ele>
        <time>2019-05-14T14:56:52Z</time>
      </trkpt>
      <trkpt lat="44.71502" lon="-0.64156">
        <ele>66</ele>
        <time>2019-05-14T14:56:55Z</time>
      </trkpt>
      <trkpt lat="44.71531" lon="-0.64159">
        <ele>59</ele>
        <time>2019-05-14T14:57:02Z</time>
      </trkpt>
      <trkpt lat="44.71541" lon="-0.64161">
        <ele>59</ele>
        <time>2019-05-14T14:57:07Z</time>
      </trkpt>
      <trkpt lat="44.71553" lon="-0.64161">
        <ele>58</ele>
        <time>2019-05-14T14:57:13Z</time>
      </trkpt>
      <trkpt lat="44.71559" lon="-0.64162">
        <ele>58</ele>
        <time>2019-05-14T14:57:29Z</time>
      </trkpt>
      <trkpt lat="44.71583" lon="-0.64162">
        <ele>55</ele>
        <time>2019-05-14T14:57:33Z</time>
      </trkpt>
      <trkpt lat="44.71602" lon="-0.64162">
        <ele>54</ele>
        <time>2019-05-14T14:57:43Z</time>
      </trkpt>
      <trkpt lat="44.71627" lon="-0.64165">
        <ele>54</ele>
        <time>2019-05-14T14:57:44Z</time>
      </trkpt>
      <trkpt lat="44.71706" lon="-0.64173">
        <ele>53</ele>
        <time>2019-05-14T14:57:45Z</time>
      </trkpt>
      <trkpt lat="44.71728" lon="-0.64171">
        <ele>51</ele>
        <time>2019-05-14T14:57:58Z</time>
      </trkpt>
      <trkpt lat="44.71778" lon="-0.64175">
        <ele>53</ele>
        <time>2019-05-14T14:58:00Z</time>
      </trkpt>
      <trkpt lat="44.71783" lon="-0.64174">
        <ele>53</ele>
        <time>2019-05-14T14:58:02Z</time>
      </trkpt>
      <trkpt lat="44.71788" lon="-0.64172">
        <ele>53</ele>
        <time>2019-05-14T14:58:32Z</time>
      </trkpt>
      <trkpt lat="44.71852" lon="-0.64164">
        <ele>53</ele>
        <time>2019-05-14T14:58:33Z</time>
      </trkpt>
      <trkpt lat="44.71861" lon="-0.64159">
        <ele>53</ele>
        <time>2019-05-14T14:58:36Z</time>
      </trkpt>
      <trkpt lat="44.71869" lon="-0.6416">
        <ele>54</ele>
        <time>2019-05-14T14:58:38Z</time>
      </trkpt>
      <trkpt lat="44.72" lon="-0.64152">
        <ele>58</ele>
        <time>2019-05-14T14:58:40Z</time>
      </trkpt>
      <trkpt lat="44.72005" lon="-0.64152">
        <ele>57</ele>
        <time>2019-05-14T14:58:42Z</time>
      </trkpt>
      <trkpt lat="44.72016" lon="-0.64161">
        <ele>57</ele>
        <time>2019-05-14T14:58:45Z</time>
      </trkpt>
      <trkpt lat="44.72022" lon="-0.64151">
        <ele>61</ele>
        <time>2019-05-14T14:58:49Z</time>
      </trkpt>
      <trkpt lat="44.72031" lon="-0.64154">
        <ele>61</ele>
        <time>2019-05-14T14:58:56Z</time>
      </trkpt>
      <trkpt lat="44.72039" lon="-0.64152">
        <ele>60</ele>
        <time>2019-05-14T14:59:08Z</time>
      </trkpt>
      <trkpt lat="44.7205" lon="-0.64157">
        <ele>62</ele>
        <time>2019-05-14T14:59:11Z</time>
      </trkpt>
      <trkpt lat="44.72067" lon="-0.64142">
        <ele>65</ele>
        <time>2019-05-14T14:59:14Z</time>
      </trkpt>
      <trkpt lat="44.721" lon="-0.64148">
        <ele>61</ele>
        <time>2019-05-14T14:59:16Z</time>
      </trkpt>
      <trkpt lat="44.7214" lon="-0.64147">
        <ele>62</ele>
        <time>2019-05-14T14:59:18Z</time>
      </trkpt>
      <trkpt lat="44.7215" lon="-0.64145">
        <ele>61</ele>
        <time>2019-05-14T14:59:48Z</time>
      </trkpt>
      <trkpt lat="44.7216" lon="-0.64142">
        <ele>61</ele>
        <time>2019-05-14T15:00:01Z</time>
      </trkpt>
      <trkpt lat="44.72164" lon="-0.64145">
        <ele>63</ele>
        <time>2019-05-14T15:00:06Z</time>
      </trkpt>
      <trkpt lat="44.7217" lon="-0.64141">
        <ele>65</ele>
        <time>2019-05-14T15:00:08Z</time>
      </trkpt>
      <trkpt lat="44.72305" lon="-0.641">
        <ele>53</ele>
        <time>2019-05-14T15:00:10Z</time>
      </trkpt>
      <trkpt lat="44.72364" lon="-0.6408">
        <ele>53</ele>
        <time>2019-05-14T15:00:15Z</time>
      </trkpt>
      <trkpt lat="44.72387" lon="-0.64072">
        <ele>52</ele>
        <time>2019-05-14T15:00:17Z</time>
      </trkpt>
      <trkpt lat="44.72396" lon="-0.64072">
        <ele>52</ele>
        <time>2019-05-14T15:00:18Z</time>
      </trkpt>
      <trkpt lat="44.72402" lon="-0.64074">
        <ele>53</ele>
        <time>2019-05-14T15:00:32Z</time>
      </trkpt>
      <trkpt lat="44.72424" lon="-0.64066">
        <ele>53</ele>
        <time>2019-05-14T15:00:42Z</time>
      </trkpt>
      <trkpt lat="44.7243" lon="-0.64065">
        <ele>54</ele>
        <time>2019-05-14T15:00:46Z</time>
      </trkpt>
      <trkpt lat="44.72432" lon="-0.64062">
        <ele>55</ele>
        <time>2019-05-14T15:00:49Z</time>
      </trkpt>
      <trkpt lat="44.72468" lon="-0.64042">
        <ele>60</ele>
        <time>2019-05-14T15:00:51Z</time>
      </trkpt>
      <trkpt lat="44.72472" lon="-0.64043">
        <ele>60</ele>
        <time>2019-05-14T15:00:57Z</time>
      </trkpt>
      <trkpt lat="44.72471" lon="-0.64039">
        <ele>61</ele>
        <time>2019-05-14T15:01:12Z</time>
      </trkpt>
      <trkpt lat="44.72476" lon="-0.64038">
        <ele>64</ele>
        <time>2019-05-14T15:01:28Z</time>
      </trkpt>
      <trkpt lat="44.72472" lon="-0.64045">
        <ele>65</ele>
        <time>2019-05-14T15:01:30Z</time>
      </trkpt>
      <trkpt lat="44.72472" lon="-0.64039">
        <ele>65</ele>
        <time>2019-05-14T15:01:33Z</time>
      </trkpt>
      <trkpt lat="44.72471" lon="-0.6404">
        <ele>62</ele>
        <time>2019-05-14T15:01:47Z</time>
      </trkpt>
      <trkpt lat="44.72472" lon="-0.64043">
        <ele>60</ele>
        <time>2019-05-14T15:01:49Z</time>
      </trkpt>
      <trkpt lat="44.72476" lon="-0.64045">
        <ele>60</ele>
        <time>2019-05-14T15:01:51Z</time>
      </trkpt>
      <trkpt lat="44.72482" lon="-0.6404">
        <ele>58</ele>
        <time>2019-05-14T15:01:57Z</time>
      </trkpt>
      <trkpt lat="44.72549" lon="-0.64008">
        <ele>57</ele>
        <time>2019-05-14T15:02:27Z</time>
      </trkpt>
      <trkpt lat="44.72559" lon="-0.64007">
        <ele>57</ele>
        <time>2019-05-14T15:02:41Z</time>
      </trkpt>
      <trkpt lat="44.72567" lon="-0.64004">
        <ele>55</ele>
        <time>2019-05-14T15:02:47Z</time>
      </trkpt>
      <trkpt lat="44.72595" lon="-0.63992">
        <ele>52</ele>
        <time>2019-05-14T15:02:54Z</time>
      </trkpt>
      <trkpt lat="44.72719" lon="-0.6395">
        <ele>54</ele>
        <time>2019-05-14T15:02:57Z</time>
      </trkpt>
      <trkpt lat="44.72778" lon="-0.63923">
        <ele>53</ele>
        <time>2019-05-14T15:02:59Z</time>
      </trkpt>
      <trkpt lat="44.72803" lon="-0.63917">
        <ele>53</ele>
        <time>2019-05-14T15:03:05Z</time>
      </trkpt>
      <trkpt lat="44.72825" lon="-0.63905">
        <ele>51</ele>
        <time>2019-05-14T15:03:06Z</time>
      </trkpt>
      <trkpt lat="44.72832" lon="-0.63903">
        <ele>51</ele>
        <time>2019-05-14T15:03:08Z</time>
      </trkpt>
      <trkpt lat="44.72835" lon="-0.639">
        <ele>51</ele>
        <time>2019-05-14T15:03:14Z</time>
      </trkpt>
      <trkpt lat="44.72852" lon="-0.63898">
        <ele>52</ele>
        <time>2019-05-14T15:03:18Z</time>
      </trkpt>
      <trkpt lat="44.72855" lon="-0.63899">
        <ele>52</ele>
        <time>2019-05-14T15:03:22Z</time>
      </trkpt>
      <trkpt lat="44.72861" lon="-0.63897">
        <ele>51</ele>
        <time>2019-05-14T15:03:36Z</time>
      </trkpt>
      <trkpt lat="44.7288" lon="-0.63888">
        <ele>52</ele>
        <time>2019-05-14T15:03:38Z</time>
      </trkpt>
      <trkpt lat="44.72893" lon="-0.63884">
        <ele>52</ele>
        <time>2019-05-14T15:03:51Z</time>
      </trkpt>
      <trkpt lat="44.72908" lon="-0.63877">
        <ele>50</ele>
        <time>2019-05-14T15:03:55Z</time>
      </trkpt>
      <trkpt lat="44.72947" lon="-0.63858">
        <ele>49</ele>
        <time>2019-05-14T15:04:01Z</time>
      </trkpt>
      <trkpt lat="44.72955" lon="-0.63852">
        <ele>50</ele>
        <time>2019-05-14T15:04:02Z</time>
      </trkpt>
      <trkpt lat="44.73006" lon="-0.63845">
        <ele>51</ele>
        <time>2019-05-14T15:04:03Z</time>
      </trkpt>
      <trkpt lat="44.73022" lon="-0.63833">
        <ele>52</ele>
        <time>2019-05-14T15:04:04Z</time>
      </trkpt>
      <trkpt lat="44.73038" lon="-0.63812">
        <ele>52</ele>
        <time>2019-05-14T15:04:07Z</time>
      </trkpt>
      <trkpt lat="44.73043" lon="-0.63812">
        <ele>52</ele>
        <time>2019-05-14T15:04:26Z</time>
      </trkpt>
      <trkpt lat="44.73046" lon="-0.63814">
        <ele>52</ele>
        <time>2019-05-14T15:04:29Z</time>
      </trkpt>
      <trkpt lat="44.7305" lon="-0.63818">
        <ele>52</ele>
        <time>2019-05-14T15:04:31Z</time>
      </trkpt>
      <trkpt lat="44.73052" lon="-0.63832">
        <ele>53</ele>
        <time>2019-05-14T15:04:34Z</time>
      </trkpt>
      <trkpt lat="44.73069" lon="-0.63976">
        <ele>56</ele>
        <time>2019-05-14T15:04:40Z</time>
      </trkpt>
      <trkpt lat="44.73071" lon="-0.64002">
        <ele>59</ele>
        <time>2019-05-14T15:04:43Z</time>
      </trkpt>
      <trkpt lat="44.73071" lon="-0.6402">
        <ele>59</ele>
        <time>2019-05-14T15:04:52Z</time>
      </trkpt>
      <trkpt lat="44.73067" lon="-0.64047">
        <ele>60</ele>
        <time>2019-05-14T15:05:03Z</time>
      </trkpt>
      <trkpt lat="44.73073" lon="-0.64099">
        <ele>55</ele>
        <time>2019-05-14T15:05:11Z</time>
      </trkpt>
      <trkpt lat="44.73075" lon="-0.64116">
        <ele>55</ele>
        <time>2019-05-14T15:05:33Z</time>
      </trkpt>
      <trkpt lat="44.73077" lon="-0.64166">
        <ele>56</ele>
        <time>2019-05-14T15:05:36Z</time>
      </trkpt>
      <trkpt lat="44.73084" lon="-0.64248">
        <ele>57</ele>
        <time>2019-05-14T15:05:38Z</time>
      </trkpt>
      <trkpt lat="44.73088" lon="-0.64321">
        <ele>57</ele>
        <time>2019-05-14T15:05:58Z</time>
      </trkpt>
      <trkpt lat="44.73107" lon="-0.64528">
        <ele>56</ele>
        <time>2019-05-14T15:06:01Z</time>
      </trkpt>
      <trkpt lat="44.73109" lon="-0.64556">
        <ele>55</ele>
        <time>2019-05-14T15:06:03Z</time>
      </trkpt>
      <trkpt lat="44.7311" lon="-0.64574">
        <ele>54</ele>
        <time>2019-05-14T15:06:17Z</time>
      </trkpt>
      <trkpt lat="44.7312" lon="-0.64696">
        <ele>56</ele>
        <time>2019-05-14T15:06:20Z</time>
      </trkpt>
      <trkpt lat="44.73125" lon="-0.64706">
        <ele>59</ele>
        <time>2019-05-14T15:06:37Z</time>
      </trkpt>
      <trkpt lat="44.73122" lon="-0.6471">
        <ele>59</ele>
        <time>2019-05-14T15:06:39Z</time>
      </trkpt>
      <trkpt lat="44.7312" lon="-0.64714">
        <ele>62</ele>
        <time>2019-05-14T15:06:41Z</time>
      </trkpt>
      <trkpt lat="44.73118" lon="-0.64712">
        <ele>65</ele>
        <time>2019-05-14T15:06:43Z</time>
      </trkpt>
      <trkpt lat="44.7312" lon="-0.64712">
        <ele>67</ele>
        <time>2019-05-14T15:06:49Z</time>
      </trkpt>
      <trkpt lat="44.73123" lon="-0.64711">
        <ele>67</ele>
        <time>2019-05-14T15:06:50Z</time>
      </trkpt>
      <trkpt lat="44.73127" lon="-0.64712">
        <ele>68</ele>
        <time>2019-05-14T15:06:59Z</time>
      </trkpt>
      <trkpt lat="44.73133" lon="-0.64713">
        <ele>66</ele>
        <time>2019-05-14T15:07:04Z</time>
      </trkpt>
      <trkpt lat="44.73154" lon="-0.64705">
        <ele>61</ele>
        <time>2019-05-14T15:07:21Z</time>
      </trkpt>
      <trkpt lat="44.73158" lon="-0.64704">
        <ele>60</ele>
        <time>2019-05-14T15:07:25Z</time>
      </trkpt>
      <trkpt lat="44.7319" lon="-0.64688">
        <ele>57</ele>
        <time>2019-05-14T15:07:28Z</time>
      </trkpt>
      <trkpt lat="44.73209" lon="-0.64665">
        <ele>59</ele>
        <time>2019-05-14T15:07:29Z</time>
      </trkpt>
      <trkpt lat="44.73268" lon="-0.64572">
        <ele>58</ele>
        <time>2019-05-14T15:07:31Z</time>
      </trkpt>
      <trkpt lat="44.73281" lon="-0.64554">
        <ele>58</ele>
        <time>2019-05-14T15:07:34Z</time>
      </trkpt>
      <trkpt lat="44.73288" lon="-0.64539">
        <ele>58</ele>
        <time>2019-05-14T15:07:38Z</time>
      </trkpt>
      <trkpt lat="44.7329" lon="-0.64532">
        <ele>58</ele>
        <time>2019-05-14T15:07:43Z</time>
      </trkpt>
      <trkpt lat="44.73293" lon="-0.64517">
        <ele>57</ele>
        <time>2019-05-14T15:07:45Z</time>
      </trkpt>
      <trkpt lat="44.73302" lon="-0.64503">
        <ele>57</ele>
        <time>2019-05-14T15:07:46Z</time>
      </trkpt>
      <trkpt lat="44.73314" lon="-0.64478">
        <ele>59</ele>
        <time>2019-05-14T15:07:47Z</time>
      </trkpt>
      <trkpt lat="44.73327" lon="-0.64447">
        <ele>62</ele>
        <time>2019-05-14T15:07:48Z</time>
      </trkpt>
      <trkpt lat="44.73331" lon="-0.64434">
        <ele>63</ele>
        <time>2019-05-14T15:07:49Z</time>
      </trkpt>
      <trkpt lat="44.73332" lon="-0.64425">
        <ele>62</ele>
        <time>2019-05-14T15:07:50Z</time>
      </trkpt>
      <trkpt lat="44.73336" lon="-0.64419">
        <ele>62</ele>
        <time>2019-05-14T15:07:51Z</time>
      </trkpt>
      <trkpt lat="44.73342" lon="-0.64414">
        <ele>62</ele>
        <time>2019-05-14T15:07:53Z</time>
      </trkpt>
      <trkpt lat="44.73348" lon="-0.64411">
        <ele>61</ele>
        <time>2019-05-14T15:07:54Z</time>
      </trkpt>
      <trkpt lat="44.73353" lon="-0.64412">
        <ele>61</ele>
        <time>2019-05-14T15:08:00Z</time>
      </trkpt>
      <trkpt lat="44.73359" lon="-0.64415">
        <ele>61</ele>
        <time>2019-05-14T15:08:01Z</time>
      </trkpt>
      <trkpt lat="44.73367" lon="-0.64423">
        <ele>60</ele>
        <time>2019-05-14T15:08:16Z</time>
      </trkpt>
      <trkpt lat="44.73369" lon="-0.64427">
        <ele>60</ele>
        <time>2019-05-14T15:08:19Z</time>
      </trkpt>
      <trkpt lat="44.73388" lon="-0.64463">
        <ele>59</ele>
        <time>2019-05-14T15:08:21Z</time>
      </trkpt>
      <trkpt lat="44.73391" lon="-0.64468">
        <ele>61</ele>
        <time>2019-05-14T15:08:28Z</time>
      </trkpt>
      <trkpt lat="44.7344" lon="-0.64554">
        <ele>60</ele>
        <time>2019-05-14T15:08:29Z</time>
      </trkpt>
      <trkpt lat="44.73449" lon="-0.6458">
        <ele>63</ele>
        <time>2019-05-14T15:08:30Z</time>
      </trkpt>
      <trkpt lat="44.73463" lon="-0.6459">
        <ele>60</ele>
        <time>2019-05-14T15:08:32Z</time>
      </trkpt>
      <trkpt lat="44.73487" lon="-0.64621">
        <ele>57</ele>
        <time>2019-05-14T15:08:33Z</time>
      </trkpt>
      <trkpt lat="44.7349" lon="-0.64626">
        <ele>57</ele>
        <time>2019-05-14T15:08:34Z</time>
      </trkpt>
      <trkpt lat="44.73491" lon="-0.64632">
        <ele>56</ele>
        <time>2019-05-14T15:08:35Z</time>
      </trkpt>
      <trkpt lat="44.73489" lon="-0.64643">
        <ele>57</ele>
        <time>2019-05-14T15:08:36Z</time>
      </trkpt>
      <trkpt lat="44.73487" lon="-0.64648">
        <ele>57</ele>
        <time>2019-05-14T15:08:57Z</time>
      </trkpt>
      <trkpt lat="44.73488" lon="-0.64652">
        <ele>57</ele>
        <time>2019-05-14T15:09:04Z</time>
      </trkpt>
      <trkpt lat="44.7349" lon="-0.64655">
        <ele>56</ele>
        <time>2019-05-14T15:09:24Z</time>
      </trkpt>
      <trkpt lat="44.73491" lon="-0.64657">
        <ele>56</ele>
        <time>2019-05-14T15:09:31Z</time>
      </trkpt>
      <trkpt lat="44.73491" lon="-0.64657">
        <ele>58</ele>
      </trkpt>
      <trkpt lat="44.73494" lon="-0.64652">
        <ele>57</ele>
      </trkpt>
      <trkpt lat="44.7351" lon="-0.64649">
        <ele>60</ele>
      </trkpt>
      <trkpt lat="44.73503" lon="-0.64656">
        <ele>60</ele>
      </trkpt>
    </trkseg>
  </trk>
</gpx>